[[{"header":{"parameterUnit":"m.s-1","parameterCategory":1,"la1":30.6,"la2":28.766,"lo1":-90.7593,"lo2":-88.6598,"dx":0.0162,"dy":0.0183,"nx":116,"ny":114,"refTime":"2023-01-31T06:00:00:Z","depth":0,"parameterNumber":2,"parameterNumberName":"U-component_of_WINDS"},"data":[0.0,0.0,0.0,0.0,0.0,0.0,0.0,0.0,0.0,0.0,0.0,0.0,0.0,0.0,0.0,0.0,0.0,0.0,0.0,0.0,0.0,0.0,0.0,0.0,0.0,0.0,0.0,0.0,0.0,0.0,0.0,0.0,0.0,0.0,0.0,0.0,0.0,0.0,0.0,0.0,0.0,0.0,0.0,0.0,0.0,0.0,0.0,0.0,0.0,0.0,0.0,0.0,0.0,0.0,0.0,0.0,0.0,0.0,0.0,0.0,0.0,0.0,0.0,0.0,0.0,0.0,0.0,0.0,0.0,0.0,0.0,0.0,0.0,0.0,0.0,0.0,0.0,0.0,0.0,0.0,0.0,0.0,0.0,0.0,0.0,0.0,0.0,0.0,0.0,0.0,0.0,0.0,0.0,0.0,0.0,0.0,0.0,0.0,0.0,0.0,0.0,0.0,0.0,0.0,0.0,0.0,0.0,0.0,0.0,0.0,0.0,0.0,0.0,0.0,0.0,0.0,0.0,0.0,0.0,0.0,0.0,0.0,0.0,0.0,0.0,0.0,0.0,0.0,0.0,0.0,0.0,0.0,0.0,0.0,0.0,0.0,0.0,0.0,0.0,0.0,0.0,0.0,0.0,0.0,0.0,0.0,0.0,0.0,0.0,0.0,0.0,0.0,0.0,0.0,0.0,0.0,0.0,0.0,0.0,0.0,0.0,0.0,0.0,0.0,0.0,0.0,0.0,0.0,0.0,0.0,0.0,0.0,0.0,0.0,0.0,0.0,0.0,0.0,0.0,0.0,0.0,0.0,0.0,0.0,0.0,0.0,0.0,0.0,0.0,0.0,0.0,0.0,0.0,0.0,0.0,0.0,0.0,0.0,0.0,0.0,0.0,0.0,0.0,0.0,0.0,0.0,0.0,0.0,0.0,0.0,0.0,0.0,0.0,0.0,0.0,0.0,0.0,0.0,0.0,0.0,0.0,0.0,0.0,0.0,0.0,0.0,0.0,0.0,0.0,0.0,0.0,0.0,0.0,0.0,0.0,0.0,0.0,0.0,0.0,0.0,0.0,0.0,0.0,0.0,0.0,0.0,0.0,0.0,0.0,0.0,0.0,0.0,0.0,0.0,0.0,0.0,0.0,0.0,0.0,0.0,0.0,0.0,0.0,0.0,0.0,0.0,0.0,0.0,0.0,0.0,0.0,0.0,0.0,0.0,0.0,0.0,0.0,0.0,0.0,0.0,0.0,0.0,0.0,0.0,0.0,0.0,0.0,0.0,0.0,0.0,0.0,0.0,0.0,0.0,0.0,0.0,0.0,0.0,0.0,0.0,0.0,0.0,0.0,0.0,0.0,0.0,0.0,0.0,0.0,0.0,0.0,0.0,0.0,0.0,0.0,0.0,0.0,0.0,0.0,0.0,0.0,0.0,0.0,0.0,0.0,0.0,0.0,0.0,0.0,0.0,0.0,0.0,0.0,0.0,0.0,0.0,0.0,0.0,0.0,0.0,0.0,0.0,0.0,0.0,0.0,0.0,0.0,0.0,0.0,0.0,0.0,0.0,0.0,0.0,0.0,0.0,0.0,0.0,0.0,0.0,0.0,0.0,0.0,0.0,0.0,0.0,0.0,0.0,0.0,0.0,0.0,0.0,0.0,0.0,0.0,0.0,0.0,0.0,0.0,0.0,0.0,0.0,0.0,0.0,0.0,0.0,0.0,0.0,0.0,0.0,0.0,0.0,0.0,0.0,0.0,0.0,0.0,0.0,0.0,0.0,0.0,0.0,0.0,0.0,0.0,0.0,0.0,0.0,0.0,0.0,0.0,0.0,0.0,0.0,0.0,0.0,0.0,0.0,0.0,0.0,0.0,0.0,0.0,0.0,0.0,0.0,0.0,0.0,0.0,0.0,0.0,0.0,0.0,0.0,0.0,0.0,0.0,0.0,0.0,0.0,0.0,0.0,0.0,0.0,0.0,0.0,0.0,0.0,0.0,0.0,0.0,0.0,0.0,0.0,0.0,0.0,0.0,0.0,0.0,0.0,0.0,0.0,0.0,0.0,0.0,0.0,0.0,0.0,0.0,0.0,0.0,0.0,0.0,0.0,0.0,0.0,0.0,0.0,0.0,0.0,0.0,0.0,0.0,0.0,0.0,0.0,0.0,0.0,0.0,0.0,0.0,0.0,0.0,0.0,0.0,0.0,0.0,0.0,0.0,0.0,0.0,0.0,0.0,0.0,0.0,0.0,0.0,0.0,0.0,0.0,0.0,0.0,0.0,0.0,0.0,0.0,0.0,0.0,0.0,0.0,0.0,0.0,0.0,0.0,0.0,0.0,0.0,0.0,0.0,0.0,0.0,0.0,0.0,0.0,0.0,0.0,0.0,0.0,0.0,0.0,0.0,0.0,0.0,0.0,0.0,0.0,0.0,0.0,0.0,0.0,0.0,0.0,0.0,0.0,0.0,0.0,0.0,0.0,0.0,0.0,0.0,0.0,0.0,0.0,0.0,0.0,0.0,0.0,0.0,0.0,0.0,0.0,0.0,0.0,0.0,0.0,0.0,0.0,0.0,0.0,0.0,0.0,0.0,0.0,0.0,0.0,0.0,0.0,0.0,0.0,0.0,0.0,0.0,0.0,0.0,0.0,0.0,0.0,0.0,0.0,0.0,0.0,0.0,0.0,0.0,0.0,0.0,0.0,0.0,0.0,0.0,0.0,0.0,0.0,0.0,0.0,0.0,0.0,0.0,0.0,0.0,0.0,0.0,0.0,0.0,0.0,0.0,0.0,0.0,0.0,0.0,0.0,0.0,0.0,0.0,0.0,0.0,0.0,0.0,0.0,0.0,0.0,0.0,0.0,0.0,0.0,0.0,0.0,0.0,0.0,0.0,0.0,0.0,0.0,0.0,0.0,0.0,0.0,0.0,0.0,0.0,0.0,0.0,0.0,0.0,0.0,0.0,0.0,0.0,0.0,0.0,0.0,0.0,0.0,0.0,0.0,0.0,0.0,0.0,0.0,0.0,0.0,0.0,0.0,0.0,0.0,0.0,0.0,0.0,0.0,0.0,0.0,0.0,0.0,0.0,0.0,0.0,0.0,0.0,0.0,0.0,0.0,0.0,0.0,0.0,0.0,0.0,0.0,0.0,0.0,0.0,0.0,0.0,0.0,0.0,0.0,0.0,0.0,0.0,0.0,0.0,0.0,0.0,0.0,0.0,0.0,0.0,0.0,0.0,0.0,0.0,0.0,0.0,0.0,0.0,0.0,0.0,0.0,0.0,0.0,0.0,0.0,0.0,0.0,0.0,0.0,0.0,0.0,0.0,0.0,0.0,0.0,0.0,0.0,0.0,0.0,0.0,0.0,0.0,0.0,0.0,0.0,0.0,0.0,0.0,0.0,0.0,0.0,0.0,0.0,0.0,0.0,0.0,0.0,0.0,0.0,0.0,0.0,0.0,0.0,0.0,0.0,0.0,0.0,0.0,0.0,0.0,0.0,0.0,0.0,0.0,0.0,0.0,0.0,0.0,0.0,0.0,0.0,0.0,0.0,0.0,0.0,0.0,0.0,0.0,0.0,0.0,0.0,0.0,0.0,0.0,0.0,0.0,0.0,0.0,0.0,0.0,0.0,0.0,0.0,0.0,0.0,0.0,0.0,0.0,0.0,0.0,0.0,0.0,0.0,0.0,0.0,0.0,0.0,0.0,0.0,0.0,0.0,0.0,0.0,0.0,0.0,0.0,0.0,0.0,0.0,0.0,0.0,0.0,0.0,0.0,0.0,0.0,0.0,0.0,0.0,0.0,0.0,0.0,0.0,0.0,0.0,0.0,0.0,0.0,0.0,0.0,0.0,0.0,0.0,0.0,0.0,0.0,0.0,0.0,0.0,0.0,0.0,0.0,0.0,0.0,0.0,0.0,0.0,0.0,0.0,0.0,0.0,0.0,0.0,0.0,0.0,0.0,0.0,0.0,0.0,0.0,0.0,0.0,0.0,0.0,0.0,0.0,0.0,0.0,0.0,0.0,0.0,0.0,0.0,0.0,0.0,0.0,0.0,0.0,0.0,0.0,0.0,0.0,0.0,0.0,0.0,0.0,0.0,0.0,0.0,0.0,0.0,0.0,0.0,0.0,0.0,0.0,0.0,0.0,0.0,0.0,0.0,0.0,0.0,0.0,0.0,0.0,0.0,0.0,0.0,0.0,0.0,0.0,0.0,0.0,0.0,0.0,0.0,0.0,0.0,0.0,0.0,0.0,0.0,0.0,0.0,0.0,0.0,0.0,0.0,0.0,0.0,0.0,0.0,0.0,0.0,0.0,0.0,0.0,0.0,0.0,0.0,0.0,0.0,0.0,0.0,0.0,0.0,0.0,0.0,0.0,0.0,0.0,0.0,0.0,0.0,0.0,0.0,0.0,0.0,0.0,0.0,0.0,0.0,0.0,0.0,0.0,0.0,0.0,0.0,0.0,0.0,0.0,0.0,0.0,0.0,0.0,0.0,0.0,0.0,0.0,0.0,0.0,0.0,0.0,0.0,0.0,0.0,0.0,0.0,0.0,0.0,0.0,0.0,0.0,0.0,0.0,0.0,0.0,0.0,0.0,0.0,0.0,0.0,0.0,0.0,0.0,0.0,0.0,0.0,0.0,0.0,0.0,0.0,0.0,0.0,0.0,0.0,0.0,0.0,0.0,0.0,0.0,0.0,0.0,0.0,0.0,0.0,0.0,0.0,0.0,0.0,0.0,0.0,0.0,0.0,0.0,0.0,0.0,0.0,0.0,0.0,0.0,0.0,0.0,0.0,0.0,0.0,0.0,0.0,0.0,0.0,0.0,0.0,0.0,0.0,0.0,0.0,0.0,0.0,0.0,0.0,0.0,0.0,0.0,0.0,0.0,0.0,0.0,0.0,0.0,0.0,0.0,0.0,0.0,0.0,0.0,0.0,0.0,0.0,0.0,0.0,0.0,0.0,0.0,0.0,0.0,0.0,0.0,0.0,0.0,0.0,0.0,0.0,0.0,0.0,0.0,0.0,0.0,0.0,0.0,0.0,0.0,0.0,0.0,0.0,0.0,0.0,0.0,0.0,0.0,0.0,0.0,0.0,0.0,0.0,0.0,0.0,0.0,0.0,0.0,0.0,0.0,0.0,0.0,0.0,0.0,0.0,0.0,0.0,0.0,0.0,0.0,0.0,0.0,0.0,0.0,0.0,0.0,0.0,0.0,0.0,0.0,0.0,0.0,0.0,0.0,0.0,0.0,0.0,0.0,0.0,0.0,0.0,0.0,0.0,0.0,0.0,0.0,0.0,0.0,0.0,0.0,0.0,0.0,0.0,0.0,0.0,0.0,0.0,0.0,0.0,0.0,0.0,0.0,0.0,0.0,0.0,0.0,0.0,0.0,0.0,0.0,0.0,0.0,0.0,0.0,0.0,0.0,0.0,0.0,0.0,0.0,0.0,0.0,0.0,0.0,0.0,0.0,0.0,0.0,0.0,0.0,0.0,0.0,0.0,0.0,0.0,0.0,0.0,0.0,0.0,0.0,0.0,0.0,0.0,0.0,0.0,0.0,0.0,0.0,0.0,0.0,0.0,0.0,0.0,0.0,0.0,0.0,0.0,0.0,0.0,0.0,0.0,0.0,0.0,0.0,0.0,0.0,0.0,0.0,0.0,0.0,0.0,0.0,0.0,0.0,0.0,0.0,0.0,0.0,0.0,0.0,0.0,0.0,0.0,0.0,0.0,0.0,0.0,0.0,0.0,0.0,0.0,0.0,0.0,0.0,0.0,0.0,0.0,0.0,0.0,0.0,0.0,0.0,0.0,0.0,0.0,0.0,0.0,0.0,0.0,0.0,0.0,0.0,0.0,0.0,0.0,0.0,0.0,0.0,0.0,0.0,0.0,0.0,0.0,0.0,0.0,0.0,0.0,0.0,0.0,0.0,0.0,0.0,0.0,0.0,0.0,0.0,0.0,0.0,0.0,0.0,0.0,0.0,0.0,0.0,0.0,0.0,0.0,0.0,0.0,0.0,0.0,0.0,0.0,0.0,0.0,0.0,0.0,0.0,0.0,0.0,0.0,0.0,0.0,0.0,0.0,0.0,0.0,0.0,0.0,0.0,0.0,1.6006,0.0,0.0,0.0,0.0,0.0,0.0,0.0,0.0,0.0,0.0,0.0,0.0,0.0,0.0,0.0,0.0,0.0,0.0,0.0,0.0,0.0,0.0,0.0,0.0,0.0,0.0,0.0,0.0,0.0,0.0,0.0,0.0,0.0,0.0,0.0,0.0,0.0,0.0,0.0,0.0,0.0,0.0,0.0,0.0,0.0,0.0,0.0,0.0,0.0,0.0,0.0,0.0,0.0,0.0,0.0,0.0,0.0,0.0,0.0,0.0,0.0,0.0,0.0,0.0,0.0,0.0,0.0,0.0,0.0,0.0,0.0,0.0,0.0,0.0,0.0,0.0,0.0,0.0,0.0,0.0,0.0,0.0,0.0,0.0,0.0,0.0,0.0,0.0,0.0,0.0,0.0,0.0,0.0,0.0,0.0,0.0,0.0,0.0,0.0,0.0,0.0,0.0,0.0,0.0,0.0,0.0,0.0,0.0,0.0,0.0,0.0,0.0,0.0,0.0,0.0,0.0,1.6156,0.0,0.0,0.0,0.0,0.0,0.0,0.0,0.0,0.0,0.0,0.0,0.0,0.0,0.0,0.0,0.0,0.0,0.0,0.0,0.0,0.0,0.0,0.0,0.0,0.0,0.0,0.0,0.0,0.0,0.0,0.0,0.0,0.0,0.0,0.0,0.0,0.0,0.0,0.0,0.0,0.0,0.0,0.0,0.0,0.0,0.0,0.0,0.0,0.0,0.0,0.0,0.0,0.0,0.0,0.0,0.0,0.0,0.0,0.0,0.0,0.0,0.0,0.0,0.0,0.0,0.0,0.0,0.0,0.0,0.0,0.0,0.0,0.0,0.0,0.0,0.0,0.0,0.0,0.0,0.0,0.0,0.0,0.0,0.0,0.0,0.0,0.0,0.0,0.0,0.0,0.0,0.0,0.0,0.0,0.0,0.0,0.0,0.0,0.0,0.0,0.0,0.0,0.0,0.0,0.0,0.0,0.0,0.0,1.7594,1.6913,1.6007,1.6332,1.5643,1.4185,1.486,1.513,1.5144,1.5189,0.0,0.0,0.0,0.0,0.0,0.0,0.0,0.0,0.0,0.0,0.0,0.0,0.0,0.0,0.0,0.0,0.0,0.0,0.0,0.0,0.0,0.0,0.0,0.0,0.0,0.0,0.0,0.0,0.0,0.0,0.0,0.0,0.0,0.0,0.0,0.0,0.0,0.0,3.1738,3.3945,3.4512,3.3515,0.0,0.0,0.0,0.0,0.0,0.0,0.0,0.0,0.0,0.0,0.0,0.0,0.0,0.0,0.0,0.0,0.0,0.0,0.0,0.0,0.0,0.0,0.0,0.0,0.0,0.0,0.0,0.0,0.0,0.0,0.0,0.0,0.0,0.0,0.0,0.0,0.0,0.0,0.0,0.0,0.0,0.0,0.0,0.0,2.1062,1.9353,0.0,0.0,0.0,0.0,0.0,0.0,0.0,0.0,0.0,0.0,0.0,0.0,0.0,1.8325,1.8946,1.7504,1.7157,1.7887,1.6254,1.5243,1.4822,1.4593,1.4283,1.3941,1.4062,0.0,1.4111,1.428,0.0,0.0,0.0,0.0,0.0,0.0,0.0,0.0,0.0,0.0,0.0,0.0,0.0,0.0,0.0,0.0,0.0,0.0,0.0,0.0,0.0,0.0,0.0,0.0,0.0,0.0,0.0,0.0,0.0,0.0,0.0,0.0,0.0,0.0,0.0,0.0,3.2368,3.4531,3.582,3.6934,3.7519,3.7519,3.5088,3.3523,3.259,3.0377,0.0,0.0,0.0,0.0,0.0,0.0,0.0,0.0,0.0,0.0,0.0,0.0,0.0,0.0,0.0,0.0,0.0,0.0,0.0,0.0,0.0,0.0,0.0,0.0,0.0,0.0,0.0,0.0,0.0,0.0,0.0,0.0,0.0,0.0,0.0,0.0,0.0,0.0,0.0,2.2,2.091,1.9621,1.9831,1.9953,0.0,0.0,0.0,0.0,0.0,0.0,0.0,0.0,0.0,1.7779,1.819,1.8435,1.8436,1.7166,1.6744,1.7094,1.5624,1.4804,1.452,1.4118,1.3856,1.3736,1.3838,1.3874,1.3818,1.4083,1.4262,1.4359,0.0,0.0,0.0,0.0,1.4903,1.5656,0.0,0.0,0.0,0.0,0.0,0.0,0.0,0.0,0.0,0.0,0.0,0.0,0.0,0.0,0.0,0.0,0.0,0.0,0.0,0.0,0.0,0.0,0.0,0.0,0.0,0.0,0.0,0.0,3.6355,3.8516,3.957,4.0039,4.0469,4.0859,4.0357,3.8322,3.5059,3.2551,3.0746,0.0,0.0,0.0,0.0,0.0,0.0,0.0,0.0,0.0,0.0,0.0,0.0,0.0,0.0,0.0,0.0,0.0,0.0,0.0,0.0,0.0,0.0,0.0,0.0,0.0,0.0,0.0,0.0,0.0,0.0,0.0,0.0,0.0,0.0,0.0,0.0,0.0,0.0,2.0718,2.0068,1.9392,1.9135,1.9191,0.0,0.0,0.0,0.0,0.0,0.0,1.91,1.907,1.8643,1.7727,1.833,1.8525,1.8217,1.705,1.6586,1.6753,1.5386,1.4713,1.4653,1.425,1.4092,1.4124,1.4395,1.4458,1.4368,1.4248,1.4123,1.3969,1.3927,1.4069,1.4319,1.4111,1.4516,1.5163,0.0,0.0,0.0,0.0,0.0,0.0,0.0,0.0,0.0,0.0,0.0,0.0,0.0,0.0,0.0,0.0,0.0,0.0,0.0,0.0,0.0,0.0,0.0,0.0,0.0,0.0,0.0,3.5718,3.8447,4.0605,4.2246,4.3906,4.4258,4.3535,4.4257,4.3033,4.0138,3.5971,3.4087,3.3527,0.0,0.0,0.0,0.0,0.0,0.0,0.0,0.0,0.0,0.0,0.0,0.0,0.0,0.0,0.0,0.0,0.0,0.0,0.0,0.0,0.0,0.0,0.0,0.0,0.0,0.0,0.0,0.0,0.0,0.0,0.0,0.0,0.0,0.0,0.0,0.0,0.0,0.0,0.0,1.7452,1.6763,0.0,0.0,0.0,0.0,2.0246,2.0265,1.9873,1.9054,1.9011,1.8595,1.7725,1.7745,1.8182,1.9037,1.7285,1.6791,1.7524,1.5494,1.4734,1.5164,1.4889,1.5019,1.5516,1.5993,1.6179,1.6073,1.4737,1.4188,1.4162,1.3969,1.4024,1.4188,1.3965,1.3945,1.3995,0.0,0.0,0.0,0.0,0.0,0.0,0.0,0.0,0.0,0.0,0.0,0.0,0.0,0.0,0.0,0.0,0.0,0.0,0.0,0.0,0.0,0.0,0.0,0.0,0.0,0.0,3.6381,4.0086,4.2164,4.3769,4.4922,4.5547,4.5664,4.5391,4.5664,4.4911,4.3156,3.8713,3.5586,3.3284,3.0001,2.7757,0.0,0.0,0.0,0.0,0.0,0.0,0.0,0.0,0.0,0.0,0.0,0.0,0.0,0.0,0.0,0.0,0.0,0.0,0.0,0.0,0.0,0.0,0.0,0.0,0.0,0.0,0.0,0.0,0.0,0.0,0.0,0.0,0.0,0.0,0.0,0.0,0.0,1.903,1.8905,0.0,1.9643,1.9791,1.9988,2.0285,1.9769,1.9339,1.9016,1.9001,1.8866,1.8544,1.9077,1.9495,1.9735,1.8029,1.7159,1.7127,1.566,1.4955,1.4942,1.5191,1.5418,1.5615,1.5919,1.6028,1.6011,1.5651,1.5559,1.5645,1.5324,1.5308,1.5469,1.5308,1.5324,1.538,0.0,0.0,0.0,0.0,0.0,0.0,0.0,0.0,0.0,0.0,0.0,0.0,0.0,0.0,0.0,0.0,0.0,0.0,0.0,0.0,0.0,0.0,0.0,0.0,0.0,3.6805,3.9384,4.2832,4.457,4.5723,4.6308,4.6308,4.6308,4.6308,4.6308,4.5957,4.5156,4.1855,3.8319,3.4661,3.1679,2.9912,2.883,0.0,0.0,0.0,0.0,0.0,0.0,0.0,0.0,0.0,0.0,0.0,0.0,0.0,0.0,0.0,0.0,0.0,0.0,0.0,0.0,0.0,0.0,0.0,0.0,0.0,0.0,0.0,0.0,0.0,0.0,0.0,0.0,0.0,0.0,0.0,2.0181,2.0712,2.0441,2.0452,2.1018,2.085,2.0839,2.1128,2.0603,2.028,2.0271,2.028,2.0288,2.0326,2.0573,2.0649,2.0544,1.8716,1.7615,1.7268,1.6031,1.5482,1.5556,1.5829,1.6103,1.636,1.6583,1.668,1.6699,1.6831,1.6941,1.6993,1.6308,1.6133,1.6236,1.6168,1.6252,1.6306,0.0,0.0,0.0,0.0,0.0,0.0,0.0,0.0,0.0,0.0,0.0,0.0,0.0,0.0,0.0,0.0,0.0,0.0,0.0,0.0,0.0,0.0,0.0,0.0,3.6133,3.9512,4.207,4.3789,4.5469,4.6308,4.6308,4.6308,4.6308,4.6308,4.6308,4.6308,4.623,4.5332,4.2454,3.8214,3.4745,3.3347,3.2871,0.0,0.0,0.0,0.0,0.0,0.0,0.0,0.0,0.0,0.0,0.0,0.0,0.0,0.0,0.0,0.0,0.0,0.0,0.0,0.0,0.0,0.0,0.0,0.0,0.0,0.0,0.0,0.0,0.0,0.0,0.0,0.0,0.0,2.1142,2.0399,2.0573,2.2123,2.1048,2.0814,2.2456,2.1961,2.1894,2.2733,2.2802,2.2803,2.2804,2.2803,2.2821,2.2896,2.2013,2.1491,2.1375,1.928,1.8159,1.7954,1.6588,1.6315,1.6967,1.6799,1.7096,1.7789,1.804,1.8166,1.8166,1.8187,1.8187,1.8052,1.6835,1.6357,1.6357,1.6388,1.6478,1.6435,0.0,0.0,0.0,0.0,0.0,0.0,0.0,0.0,0.0,0.0,3.4766,0.0,0.0,0.0,0.0,0.0,0.0,0.0,0.0,0.0,0.0,0.0,0.0,0.0,4.0566,4.1582,4.3223,4.5586,4.6074,4.6308,4.6308,4.6308,4.6308,4.6308,4.6308,4.6308,4.6289,4.6016,4.4856,4.2783,3.8598,3.585,3.3971,0.0,0.0,0.0,0.0,0.0,0.0,0.0,0.0,0.0,0.0,0.0,0.0,0.0,0.0,0.0,0.0,0.0,0.0,0.0,0.0,0.0,0.0,0.0,0.0,0.0,0.0,0.0,0.0,0.0,0.0,0.0,0.0,2.2973,2.1426,2.146,2.1871,2.2445,2.224,2.2247,2.269,2.2553,2.2532,2.2782,2.2802,2.2793,2.2803,2.284,2.2887,2.2896,2.2646,2.2021,2.0977,1.9757,1.8544,1.7329,1.6915,1.6601,1.6442,1.693,1.7115,1.7093,1.7415,1.7539,1.7579,1.78,1.7905,1.7871,1.7509,1.7398,1.735,1.7037,1.6323,1.5485,0.0,0.0,0.0,0.0,0.0,0.0,0.0,0.0,0.0,0.0,3.5293,3.9961,4.5,4.8008,4.9707,0.0,0.0,0.0,0.0,0.0,0.0,0.0,0.0,3.9238,4.2324,4.3125,4.4414,4.6308,4.668,4.6836,4.6855,4.7226,4.7187,4.6836,4.6836,4.6641,4.6308,4.6308,4.6016,4.5273,4.2295,3.9825,3.7558,3.4242,3.27,3.2012,2.9922,2.9687,2.998,2.7598,0.0,0.0,0.0,0.0,0.0,0.0,0.0,0.0,0.0,0.0,0.0,0.0,0.0,0.0,0.0,0.0,0.0,0.0,0.0,0.0,0.0,0.0,0.0,0.0,2.3938,2.3534,2.2613,2.2745,2.3106,2.3561,2.3755,2.3851,2.3851,2.3851,2.3851,2.3851,2.3851,2.3851,2.3889,2.3937,2.3975,2.4042,2.3562,2.2843,2.1857,2.0418,1.914,1.802,1.7403,1.6948,1.6663,1.6971,1.6977,0.0,1.715,1.7296,1.7344,1.7658,1.7811,0.0,0.0,0.0,0.0,0.0,1.6359,1.5077,0.0,0.0,0.0,0.0,0.0,0.0,0.0,0.0,0.0,0.0,0.0,3.9453,4.5117,4.7441,4.8261,4.7377,4.5618,4.2184,0.0,0.0,0.0,3.6484,3.8242,4.0332,4.2793,4.4355,4.5625,4.6582,4.7266,4.7656,4.7754,4.8535,4.8437,4.7598,4.7598,4.7129,4.6308,4.6308,4.6308,4.623,4.5469,4.4101,4.2109,3.8008,3.6328,3.5801,3.3242,3.1465,3.0137,2.8984,0.0,0.0,0.0,0.0,0.0,0.0,0.0,0.0,0.0,0.0,0.0,0.0,0.0,0.0,0.0,0.0,0.0,0.0,0.0,0.0,0.0,0.0,0.0,0.0,2.4117,2.4075,2.4341,2.4138,2.4236,2.4958,2.5203,2.5303,2.5303,2.5303,2.5303,2.5303,2.5303,2.5322,2.5409,0.0,0.0,0.0,0.0,2.3733,2.3176,2.1078,1.9724,1.9121,1.7843,1.7224,1.7175,1.6876,1.6712,1.6712,1.7052,1.7199,1.7224,1.7572,1.7715,1.763,1.7222,1.7357,1.772,1.7328,1.6181,1.4812,0.0,0.0,0.0,0.0,0.0,0.0,0.0,0.0,0.0,3.1621,3.5176,3.8555,4.1836,4.4941,4.6459,4.558,4.3221,4.0673,0.0,0.0,3.8105,4.0117,4.1816,4.3594,4.5508,4.5879,4.6816,4.8398,4.7851,4.7969,4.8652,4.8828,4.8437,4.7598,4.7598,4.7129,4.6308,4.6308,4.6308,4.6289,4.6113,4.5,4.3125,4.0234,3.8262,3.6719,3.4101,3.3848,3.4316,3.1387,3.1641,3.2695,2.9766,0.0,0.0,0.0,0.0,0.0,0.0,0.0,0.0,0.0,0.0,0.0,0.0,0.0,0.0,0.0,0.0,0.0,0.0,0.0,0.0,2.5101,2.5033,2.5264,2.6005,2.5485,2.5061,2.5215,2.5274,2.5303,2.5303,2.5303,2.5303,2.5303,2.5303,2.5322,2.5409,2.5452,2.5478,2.5515,2.4934,2.3889,2.2331,2.0951,1.9516,1.8065,0.0,0.0,1.6501,1.6421,1.6246,1.6011,1.634,1.6501,1.6538,1.715,1.7198,1.6902,1.6812,1.6152,1.5197,1.5118,1.4363,1.3393,0.0,0.0,0.0,0.0,0.0,0.0,0.0,0.0,0.0,0.0,3.3496,3.6348,3.8965,4.1152,4.1905,4.0556,3.7983,0.0,0.0,3.8185,3.9609,4.2324,4.3672,4.5176,4.6914,4.6953,4.7598,4.8906,4.8906,4.9121,4.9551,4.9961,4.9707,4.8887,4.8457,4.7773,4.6914,4.6484,4.6308,4.6308,4.6308,4.5781,4.4805,4.3105,4.1113,3.9082,3.7773,3.6738,3.5664,3.3516,3.3086,3.3066,3.0937,2.9648,2.8768,0.0,0.0,0.0,0.0,0.0,0.0,0.0,0.0,0.0,0.0,0.0,0.0,0.0,0.0,2.539,2.537,0.0,2.5341,2.5303,2.5303,2.5437,2.589,2.5947,2.5947,2.5947,2.5572,2.5303,2.5303,2.5303,2.5303,2.5303,2.5322,2.539,2.5447,2.5487,2.5467,2.5395,2.4882,2.3949,2.2571,2.1305,2.0051,1.8853,1.7634,1.6964,1.6797,1.6276,1.5955,1.5827,1.6163,1.6301,1.634,1.701,1.7053,1.6699,1.6699,1.5798,1.4528,1.4919,1.418,1.2979,0.0,0.0,0.0,0.0,0.0,0.0,0.0,0.0,0.0,0.0,0.0,3.373,3.5831,3.6962,3.6902,0.0,0.0,0.0,0.0,3.8864,4.1029,4.4277,4.5254,4.6465,4.8066,4.7949,4.8359,4.9394,4.9922,5.0273,5.0449,5.1094,5.0976,5.0176,4.9473,4.8672,4.7793,4.6914,4.6543,4.6543,4.6367,4.6308,4.6191,4.5332,4.3516,4.1348,4.0684,3.8418,3.5605,3.4746,3.3555,3.2305,3.1601,3.0798,2.989,2.8775,2.7701,0.0,0.0,0.0,0.0,0.0,0.0,0.0,0.0,2.5529,2.5467,2.5408,2.5341,2.5303,2.5303,2.5303,2.5303,2.5303,2.5303,2.536,2.5534,2.6005,2.6409,2.6582,2.5986,2.5495,2.5322,2.5303,2.5303,2.5303,2.537,2.5418,2.5475,2.5456,2.5348,2.519,2.4496,2.37,2.276,2.1378,2.0279,1.9452,1.7927,1.713,1.6991,1.6168,1.5799,1.5827,1.6095,1.6274,1.6448,1.6977,1.709,1.6919,1.6919,1.6103,1.495,1.5199,1.4391,1.3083,0.0,0.0,0.0,0.0,0.0,0.0,0.0,0.0,0.0,0.0,0.0,0.0,0.0,0.0,0.0,0.0,0.0,0.0,3.908,4.2078,4.4773,4.6894,4.7812,4.8808,4.9883,4.9141,4.9531,5.1113,5.0508,5.0566,5.1269,5.1367,5.0976,5.0195,5.0098,4.957,4.8691,4.7812,4.7441,4.7383,4.6601,4.6308,4.6191,4.5332,4.3867,4.1875,3.8828,3.6484,3.4707,3.3848,3.3418,3.3242,3.3144,3.2565,3.1572,2.9854,2.8155,2.6612,2.5746,2.5505,2.5509,2.5517,2.5511,2.5522,0.0,2.5456,2.5399,2.539,2.5341,2.5303,2.5303,2.5303,2.5303,2.5303,2.5303,2.5572,2.6351,2.587,2.5726,2.6505,2.6505,2.6159,2.538,2.5303,2.5303,2.5303,2.537,2.5388,2.5401,2.5291,2.5091,2.4781,2.3731,2.276,2.1949,2.0374,1.9028,1.7949,1.7149,1.6503,1.5961,1.5857,1.5799,1.5799,1.5856,1.6191,1.6738,1.6815,1.7191,1.7693,1.7693,1.7185,1.6289,1.4824,1.4005,1.3496,0.0,0.0,0.0,0.0,0.0,0.0,0.0,0.0,0.0,0.0,0.0,0.0,0.0,0.0,0.0,0.0,0.0,0.0,3.7091,4.1778,4.533,4.7187,4.8185,4.9121,5.0058,4.9805,5.0234,5.1406,5.1055,5.1074,5.1406,5.1406,5.1211,5.0859,4.9883,4.9238,4.8808,4.7422,4.6836,4.6816,4.6445,4.5996,4.5391,4.4004,4.2109,4.0,3.8574,3.6601,0.0,0.0,3.2363,3.1953,3.1953,3.1373,3.0425,2.9084,2.7791,2.6593,2.564,2.5409,2.5563,2.6067,2.6238,2.6392,2.6848,2.6545,2.6149,2.612,2.5678,2.5303,2.5303,2.5303,2.5303,2.5303,2.5303,2.5418,2.5793,2.5967,2.6005,2.587,2.6294,2.6255,2.538,2.5303,2.5322,2.537,2.539,2.5369,2.5294,2.5059,2.4608,2.3961,2.3102,2.2207,2.1242,2.0352,1.9587,1.8852,1.816,1.755,1.6892,1.6518,1.6129,1.5799,1.5799,1.6067,1.6501,1.6501,1.6901,1.7502,1.7288,1.7139,1.6903,1.5742,1.4886,1.4201,0.0,0.0,0.0,0.0,0.0,0.0,0.0,0.0,0.0,0.0,0.0,0.0,0.0,0.0,0.0,0.0,0.0,0.0,0.0,4.0803,4.4916,4.6743,4.8185,4.9254,4.9924,5.0278,5.0637,5.1016,5.1016,5.1035,5.1055,5.082,5.084,5.1016,4.9551,4.8906,4.8808,4.7305,4.666,4.6641,4.6406,4.5625,4.4433,4.2461,4.0117,3.7812,3.7344,3.5484,0.0,0.0,3.0684,3.0195,3.0452,3.0092,2.9382,2.8384,2.7283,2.6237,2.5505,2.5341,2.5572,2.6456,2.6715,2.6965,2.7772,2.7302,2.6668,2.6621,2.5909,2.5303,2.5303,2.5303,2.5303,2.5303,2.5303,2.5303,2.5303,2.5851,2.6005,2.538,2.587,2.5986,2.536,2.5303,2.5322,2.537,2.5351,2.5236,2.504,2.4711,2.4147,2.3316,2.2531,2.1787,2.1021,2.0452,1.9978,1.9617,1.8816,1.8056,1.7399,1.6741,1.6219,1.5799,1.5799,1.5983,1.6301,1.6301,1.6644,1.715,1.6892,1.6952,1.7085,1.6459,1.5647,1.479,0.0,0.0,0.0,0.0,0.0,0.0,0.0,0.0,0.0,0.0,0.0,0.0,0.0,0.0,0.0,0.0,0.0,0.0,0.0,3.9835,4.3953,4.5762,4.824,4.9641,4.98,5.0636,5.0738,5.0039,5.0039,5.0117,5.0215,4.9375,4.9433,5.0195,4.9297,4.8906,4.8848,4.7949,4.7558,4.748,4.6641,4.5273,4.3457,4.0937,3.8359,3.5859,3.416,0.0,0.0,0.0,2.8359,2.8433,2.9353,2.9574,2.9321,2.8371,2.6791,2.5341,2.5303,2.5303,2.5514,2.639,2.6601,2.6832,2.7698,2.7236,2.6601,2.6601,2.5909,2.5303,2.5303,2.5303,2.5303,2.5303,2.5303,2.5303,2.5303,2.5322,2.5322,2.5303,2.5322,2.5322,0.0,2.5303,2.5303,2.5303,2.5178,2.4968,2.4634,2.43,2.3768,2.3041,2.205,2.1529,2.1582,2.033,1.9606,1.9417,1.8256,1.7369,1.6712,1.6099,1.5829,1.5799,1.5799,1.5983,1.6301,1.6301,1.6501,1.6815,1.6815,1.6815,1.6763,1.6432,1.5863,1.5129,0.0,0.0,0.0,0.0,0.0,0.0,0.0,0.0,0.0,0.0,0.0,0.0,0.0,0.0,0.0,0.0,0.0,0.0,0.0,3.7584,4.1354,4.3069,4.6222,4.7948,4.8005,4.8906,4.9253,4.8987,4.9005,4.9028,4.9073,4.886,4.8926,4.918,4.8398,4.8047,4.7988,4.7109,4.6406,4.5742,4.4297,4.2695,4.082,3.7656,3.4844,3.2382,0.0,0.0,0.0,0.0,0.0,0.0,2.6858,2.693,2.6834,2.6434,2.583,2.5418,2.6005,2.6159,2.6505,2.7909,2.8255,2.8486,2.9371,2.8467,2.7426,2.7285,2.6231,2.5264,2.5141,2.5214,2.5303,2.5303,2.5303,2.5303,2.5303,2.5303,2.5303,2.5303,2.5303,0.0,0.0,0.0,0.0,2.5168,2.4924,2.4614,2.428,2.37,2.3069,2.2409,2.1852,2.1444,2.1213,2.0465,1.987,1.9386,1.7772,1.6781,1.6293,1.5936,1.5639,1.5359,1.5668,1.5856,1.5983,1.5983,1.6163,1.6463,1.6219,1.6552,1.708,1.6724,1.6713,1.6713,0.0,0.0,0.0,0.0,0.0,0.0,0.0,0.0,0.0,0.0,0.0,0.0,0.0,0.0,0.0,0.0,0.0,0.0,0.0,0.0,3.7469,3.9469,4.2008,4.353,4.384,4.4451,4.4895,4.5262,4.5253,4.5592,4.6247,4.6037,4.6117,4.6387,4.5644,4.5312,4.5254,4.4375,4.3516,4.2598,4.1152,3.9375,3.7266,3.4414,3.1934,0.0,0.0,0.0,0.0,0.0,0.0,0.0,0.0,2.5582,2.5543,2.5409,2.5553,2.589,2.6447,2.6832,2.739,2.8756,2.8871,2.889,2.9737,2.8587,2.7213,2.6784,2.5848,2.5019,2.4641,2.4919,2.5214,2.5303,2.5303,2.5303,2.5303,2.5303,2.5303,2.5303,2.5243,2.5111,0.0,0.0,0.0,2.4814,2.4538,2.4192,2.3715,2.2935,2.2277,2.1769,2.142,2.1068,2.0825,2.049,1.9798,1.8789,1.7377,1.648,1.6056,1.5711,1.5416,1.517,1.5296,1.5418,1.5551,1.5389,1.5653,1.6111,1.598,1.6383,1.7075,1.7059,1.7324,1.7533,0.0,0.0,0.0,0.0,0.0,0.0,0.0,0.0,0.0,0.0,0.0,0.0,0.0,0.0,0.0,0.0,0.0,0.0,0.0,0.0,0.0,3.5128,3.6103,3.6969,3.7796,3.7853,3.8308,3.9207,3.9207,4.0117,4.1844,4.1078,4.1164,4.1933,4.123,4.0937,4.0879,4.0059,3.9199,3.832,3.7402,3.5527,3.3086,3.1367,0.0,0.0,0.0,0.0,0.0,0.0,2.5447,2.5428,2.5553,2.5544,2.5466,2.5341,2.5928,2.6621,2.6659,2.7294,2.814,2.8909,2.8525,2.814,2.8871,2.7596,2.6022,2.5302,2.4923,2.4558,2.3957,2.4476,2.5077,2.5264,2.5303,2.5303,2.5303,2.5284,2.5274,2.5274,2.5099,2.4854,2.4586,2.4369,0.0,2.4238,0.0,2.3697,2.307,2.2164,2.1548,2.1281,2.0805,2.0545,2.0517,2.0256,1.929,1.759,1.6948,1.6371,1.5927,1.5387,1.5191,1.5278,1.4782,1.476,1.5086,1.4742,1.5053,1.5787,1.601,1.6381,1.6845,1.7471,1.7757,1.7697,0.0,0.0,0.0,0.0,0.0,0.0,0.0,0.0,0.0,0.0,0.0,0.0,0.0,0.0,0.0,0.0,0.0,0.0,0.0,0.0,0.0,0.0,0.0,0.0,0.0,0.0,0.0,0.0,0.0,3.6728,3.7214,3.7036,3.7112,3.7391,3.7294,3.7285,3.7305,3.709,3.6484,3.5566,0.0,3.2715,3.1289,0.0,0.0,0.0,0.0,0.0,0.0,2.5466,2.5447,2.5493,2.5578,2.5543,2.5486,2.5409,2.5967,2.6736,2.739,2.8159,2.8832,2.9044,2.8948,2.8679,2.8294,2.6745,2.5475,2.5712,2.4733,2.3982,2.4458,2.4791,2.5077,2.5264,2.5303,2.5303,2.5303,2.5163,2.5088,2.5088,2.4709,2.4388,2.4171,2.3895,0.0,0.0,2.3572,2.3611,2.353,2.2828,2.2392,2.2306,2.1664,2.1133,2.0747,1.8814,1.7238,1.6071,1.5783,1.5432,1.5038,1.5613,1.5714,1.5468,1.563,1.551,1.5272,1.5593,1.5578,1.5464,1.591,1.6705,1.76,1.7795,1.842,1.9056,0.0,0.0,0.0,0.0,0.0,0.0,0.0,0.0,0.0,0.0,0.0,0.0,0.0,0.0,0.0,0.0,0.0,0.0,0.0,0.0,0.0,0.0,0.0,0.0,0.0,0.0,0.0,0.0,0.0,0.0,0.0,3.3327,3.34,3.3471,3.3604,3.3691,3.373,3.3359,0.0,0.0,0.0,0.0,0.0,0.0,0.0,0.0,0.0,0.0,2.5024,2.4947,2.5447,2.6129,2.6116,2.635,2.6625,2.6564,2.7082,2.7794,2.8294,2.9044,2.9583,2.9198,2.8832,2.8352,2.7525,2.6151,2.5037,2.5031,2.4534,2.4133,2.4327,2.4416,2.4645,2.5206,2.5005,2.487,2.5135,2.5077,2.4911,2.4728,2.4391,2.4008,2.3596,2.3444,2.3257,0.0,2.3071,2.3234,2.3459,2.2576,2.1867,2.154,2.0816,2.0125,1.9546,1.7899,1.6775,1.6186,1.5819,1.555,1.5417,1.5691,1.5766,1.5582,0.0,1.5508,1.5407,1.5525,1.5604,1.5681,1.6099,1.6793,1.7571,1.7876,1.859,1.92,0.0,0.0,0.0,0.0,0.0,0.0,0.0,0.0,0.0,0.0,0.0,0.0,0.0,0.0,0.0,0.0,0.0,0.0,0.0,0.0,0.0,0.0,0.0,0.0,0.0,0.0,0.0,0.0,0.0,0.0,0.0,0.0,0.0,0.0,0.0,0.0,0.0,0.0,0.0,0.0,0.0,0.0,0.0,0.0,0.0,0.0,0.0,0.0,0.0,2.4274,2.5466,2.6881,2.684,2.7342,2.7957,2.8,2.8459,2.8986,2.9063,2.9737,3.0179,2.9179,2.8409,2.764,2.6659,2.5592,2.4667,2.4079,2.4315,2.4482,2.4045,2.3961,2.4205,2.4974,2.4524,2.4225,2.4688,2.4715,2.4582,2.4236,2.3971,2.3593,2.3024,2.3017,2.2972,2.2721,2.2686,2.2822,2.3236,2.2123,2.1019,2.0051,1.905,1.8235,1.7605,1.7064,1.6775,1.6694,1.6174,1.5991,1.6086,1.5621,1.5515,1.5645,0.0,0.0,1.5603,1.5248,1.5516,1.6186,1.6413,1.6756,1.7197,1.7781,1.8341,1.865,0.0,0.0,0.0,0.0,0.0,0.0,0.0,0.0,0.0,0.0,0.0,0.0,0.0,0.0,0.0,0.0,0.0,0.0,0.0,0.0,0.0,0.0,0.0,0.0,0.0,0.0,0.0,0.0,0.0,0.0,0.0,0.0,0.0,0.0,0.0,0.0,0.0,0.0,0.0,0.0,0.0,0.0,0.0,0.0,0.0,0.0,0.0,0.0,0.0,0.0,2.5505,2.6908,2.6944,2.7028,2.7242,2.7885,2.8134,2.831,2.8929,2.9737,3.0044,2.8486,2.8005,2.7486,2.589,2.4741,2.4164,2.4667,2.422,2.3947,2.4662,2.4801,2.4641,2.4151,2.3941,2.3743,2.3468,2.3289,2.3308,2.359,2.3221,2.2888,2.2762,2.2563,0.0,0.0,2.25,2.2738,2.3566,2.3129,2.2019,2.0225,1.7896,1.6467,1.6008,1.5467,1.4984,1.4545,1.4858,1.5035,1.5061,1.4911,1.5098,1.5632,1.5536,0.0,1.6336,1.6239,1.6301,1.6426,1.6466,1.6809,1.7289,1.7395,1.7787,1.8145,0.0,0.0,0.0,0.0,0.0,0.0,0.0,0.0,0.0,0.0,0.0,0.0,0.0,0.0,0.0,0.0,0.0,0.0,0.0,0.0,0.0,0.0,0.0,0.0,0.0,0.0,2.5416,2.5452,0.0,0.0,0.0,2.5414,2.5453,0.0,0.0,0.0,0.0,0.0,0.0,0.0,0.0,0.0,0.0,0.0,0.0,0.0,0.0,0.0,0.0,0.0,2.4924,2.5769,2.6695,2.7266,2.7652,2.8003,2.8348,2.8683,2.9006,2.941,2.9429,2.8198,2.7563,2.689,2.5591,2.4917,2.4694,2.5086,2.4763,2.4587,2.5064,2.4818,2.4509,2.4442,2.3725,2.3139,2.3012,2.2884,2.2736,2.2531,2.2788,2.284,2.2527,2.266,2.2599,2.2158,2.2324,2.2729,2.3392,2.2141,2.0381,1.8202,1.6608,1.5449,1.4707,1.4743,1.4635,1.4362,1.4647,1.4762,1.4773,1.4688,1.488,1.5141,1.5454,0.0,1.6082,1.6396,1.6515,1.6494,1.6494,1.668,1.6879,1.6879,1.7229,1.7572,0.0,0.0,0.0,0.0,0.0,0.0,0.0,0.0,0.0,0.0,0.0,0.0,0.0,0.0,0.0,0.0,0.0,0.0,0.0,0.0,0.0,0.0,0.0,0.0,0.0,0.0,0.0,2.5527,2.5531,0.0,0.0,0.0,0.0,0.0,2.5517,0.0,0.0,0.0,0.0,0.0,0.0,0.0,0.0,0.0,0.0,0.0,0.0,0.0,2.2383,2.3887,2.4512,2.4883,2.6074,2.7008,2.7671,2.7784,2.8222,2.8722,2.9025,2.9102,2.8909,2.8102,2.739,2.6601,2.5534,2.5303,2.5303,2.5322,2.5303,2.5303,2.5322,2.4755,2.4387,2.4643,2.3531,2.2604,2.2483,2.2499,2.227,2.1586,2.2443,2.2865,2.2349,2.2704,0.0,2.1672,2.1781,2.2068,2.2444,2.0303,1.8186,1.6245,1.5364,1.4561,1.3906,1.4281,1.4514,1.4514,1.4514,1.4514,1.4514,1.4387,1.4376,1.456,1.5141,0.0,0.0,1.6281,1.6552,1.668,1.6552,1.6522,1.6522,1.6522,1.6752,1.698,0.0,0.0,0.0,0.0,0.0,0.0,0.0,0.0,0.0,0.0,0.0,0.0,0.0,0.0,0.0,0.0,0.0,0.0,0.0,0.0,0.0,0.0,0.0,0.0,0.0,0.0,0.0,2.5585,2.5642,0.0,0.0,0.0,0.0,0.0,0.0,2.509,2.4414,0.0,0.0,0.0,0.0,0.0,0.0,0.0,0.0,0.0,0.0,2.2363,2.3125,2.4082,2.4922,2.5469,2.4844,2.5184,2.5989,2.6712,2.6924,2.7245,2.8698,2.9102,2.8909,2.8102,2.7832,2.7332,2.5668,2.5303,2.5322,2.539,2.5341,2.5322,2.539,2.5133,2.4643,2.3776,2.3148,2.2374,2.1235,2.1399,2.1512,2.1266,2.2125,2.2625,2.2321,2.2248,2.2012,2.1642,2.0349,1.9746,2.0098,1.8116,1.6722,1.6153,1.4245,1.3411,1.3799,1.3841,1.3862,1.3862,1.3862,1.3862,1.3862,1.3334,1.3382,1.3909,1.4514,0.0,0.0,1.6454,1.6795,1.7188,1.668,1.6522,1.6522,1.6522,1.6522,1.6466,0.0,0.0,0.0,0.0,0.0,0.0,0.0,0.0,0.0,0.0,0.0,0.0,0.0,0.0,0.0,0.0,0.0,0.0,0.0,0.0,0.0,0.0,0.0,0.0,0.0,0.0,0.0,2.5664,2.5684,0.0,0.0,0.0,0.0,0.0,0.0,2.4594,2.4268,0.0,0.0,0.0,0.0,0.0,0.0,0.0,0.0,0.0,0.0,0.0,2.2656,2.4551,2.4746,2.4219,2.4355,2.4596,2.488,2.5142,2.5599,2.6206,2.7294,2.7601,2.7525,2.7198,2.6717,2.6159,2.5457,2.5303,2.5303,2.5322,2.5322,2.5303,2.5322,2.5243,2.4981,2.4388,0.0,2.2666,2.1743,2.1162,2.0735,2.0509,2.1387,2.1833,2.1273,0.0,2.081,1.8874,1.7273,1.6119,1.5421,1.5599,1.5404,1.4733,1.3113,1.2349,1.2589,1.2199,1.1994,1.1994,1.2395,1.2599,1.2599,1.2803,1.3017,1.3334,1.4294,0.0,0.0,1.6312,1.6837,1.7229,1.671,1.6522,1.6522,1.6522,1.6281,1.5908,0.0,0.0,0.0,0.0,0.0,0.0,0.0,0.0,0.0,0.0,0.0,0.0,0.0,0.0,0.0,0.0,0.0,0.0,0.0,0.0,0.0,0.0,0.0,0.0,0.0,0.0,0.0,0.0,0.0,2.5703,0.0,0.0,2.5488,2.5195,0.0,0.0,0.0,0.0,0.0,0.0,0.0,0.0,0.0,0.0,0.0,0.0,0.0,0.0,0.0,0.0,0.0,2.3984,2.4297,2.4375,2.4273,2.3935,2.4627,2.5582,2.6082,2.6409,2.6601,2.6601,2.614,2.561,2.536,2.5303,2.5303,2.5322,2.5303,2.5303,2.5322,2.5253,2.5118,0.0,0.0,2.2868,2.1907,2.1324,2.0754,2.0211,2.1087,2.1549,2.1005,2.049,1.9151,1.6569,1.485,1.3424,1.2244,1.2836,1.3093,1.2918,1.1975,1.144,1.1516,1.1065,1.0813,1.0813,1.1466,1.1814,1.1814,1.2559,1.3017,1.3238,1.4247,0.0,0.0,1.6225,1.6625,1.6756,1.6398,1.6238,1.6238,1.6238,1.6095,1.582,0.0,0.0,0.0,0.0,0.0,0.0,0.0,0.0,0.0,0.0,0.0,0.0,0.0,0.0,0.0,0.0,0.0,0.0,0.0,0.0,0.0,0.0,0.0,0.0,0.0,0.0,0.0,0.0,0.0,0.0,0.0,0.0,2.5195,2.4316,0.0,0.0,0.0,0.0,0.0,0.0,0.0,0.0,0.0,0.0,0.0,0.0,0.0,0.0,0.0,0.0,0.0,0.0,0.0,2.4394,0.0,0.0,2.4161,2.539,2.5322,2.5947,2.6601,2.6601,2.6601,2.637,2.5495,2.5303,2.5322,2.539,2.5341,2.5322,2.539,2.5179,2.4962,2.4814,2.4063,0.0,2.1248,2.1744,2.1854,2.0627,2.1438,2.2079,2.2079,1.9387,1.6983,1.544,1.3556,0.0,1.1556,0.9766,0.94,1.0813,1.0813,1.0813,1.0813,1.0813,1.0813,1.0813,1.1466,1.1814,1.1814,1.2559,1.3248,0.0,0.0,0.0,0.0,1.6238,1.6139,1.5632,1.5632,1.5632,1.5632,1.5632,1.5996,1.6423,0.0,0.0,0.0,0.0,0.0,0.0,0.0,0.0,0.0,0.0,0.0,0.0,0.0,0.0,0.0,0.0,0.0,0.0,0.0,0.0,0.0,0.0,0.0,0.0,0.0,0.0,0.0,0.0,0.0,0.0,0.0,0.0,0.0,0.0,2.3749,0.0,0.0,0.0,0.0,0.0,0.0,0.0,0.0,0.0,0.0,0.0,0.0,0.0,0.0,0.0,0.0,0.0,0.0,0.0,0.0,0.0,0.0,2.3992,2.5024,2.4678,2.4139,2.4736,2.4899,2.4822,2.4543,2.4909,2.5303,2.5322,2.5303,2.5303,2.5322,2.5253,2.4927,2.4047,2.3537,0.0,2.1846,2.0848,2.0436,2.0918,1.9768,1.8717,0.0,0.0,1.3948,1.2929,1.1012,0.0,0.968,0.8633,0.8633,1.0003,0.9155,0.9124,1.0115,0.9666,0.9666,1.0115,1.0813,1.1366,1.1814,1.2559,1.3017,0.0,0.0,0.0,0.0,1.5365,1.5632,1.6046,1.5276,1.5231,1.5588,1.5588,1.572,1.5908,0.0,0.0,0.0,0.0,0.0,0.0,0.0,0.0,0.0,0.0,0.0,0.0,0.0,0.0,0.0,0.0,0.0,0.0,0.0,0.0,0.0,0.0,0.0,0.0,0.0,0.0,0.0,0.0,0.0,0.0,0.0,0.0,0.0,0.0,0.0,0.0,0.0,0.0,0.0,0.0,0.0,0.0,2.0605,0.0,0.0,0.0,0.0,0.0,0.0,0.0,0.0,0.0,0.0,0.0,0.0,0.0,2.3786,2.3623,2.4233,2.3879,2.3533,2.437,2.436,2.4225,2.4524,2.4986,2.5322,2.5303,2.5253,2.5214,2.5293,2.508,2.4715,2.4095,2.3561,2.2867,2.1793,2.068,2.0043,2.0205,1.8982,0.0,0.0,1.3888,1.2296,1.1089,0.957,0.0,0.8421,0.7937,0.8078,0.8933,0.8396,0.8521,0.9413,0.9263,0.9361,0.9814,1.0466,1.1166,1.1814,1.2295,1.2745,0.0,0.0,0.0,0.0,1.4562,1.4744,1.5374,1.4641,1.4744,1.5276,1.5276,1.5555,1.6008,0.0,0.0,0.0,0.0,0.0,0.0,0.0,0.0,0.0,0.0,0.0,0.0,0.0,0.0,0.0,0.0,0.0,0.0,0.0,0.0,0.0,0.0,0.0,0.0,0.0,0.0,0.0,0.0,2.6798,2.6822,2.6892,0.0,0.0,0.0,0.0,0.0,0.0,0.0,0.0,0.0,0.0,0.0,0.0,0.0,0.0,0.0,0.0,0.0,0.0,0.0,0.0,0.0,0.0,0.0,0.0,0.0,0.0,0.0,0.0,2.3503,2.4225,2.5101,2.4716,2.433,2.5139,2.5361,0.0,2.5303,2.5141,2.5065,2.5234,2.4723,2.4356,2.4633,2.3953,2.2833,2.1259,2.1077,2.0405,1.854,1.8675,0.0,1.4628,1.311,1.1658,0.9893,0.0,0.0,0.7806,0.7711,0.7723,0.7777,0.8427,0.8804,0.8804,0.9413,0.9762,0.9814,1.0415,1.1065,1.1715,1.1715,1.2395,0.0,0.0,0.0,0.0,1.3903,1.3737,1.3815,1.3732,1.4143,1.4698,1.4698,1.5433,1.6423,0.0,0.0,0.0,0.0,0.0,0.0,0.0,0.0,0.0,0.0,0.0,0.0,0.0,0.0,0.0,0.0,0.0,0.0,0.0,0.0,0.0,0.0,0.0,0.0,0.0,0.0,0.0,2.5744,2.6395,2.6756,2.6834,2.7552,0.0,0.0,0.0,0.0,0.0,0.0,0.0,0.0,0.0,0.0,0.0,0.0,0.0,0.0,2.082,2.1465,0.0,0.0,0.0,0.0,0.0,0.0,0.0,0.0,2.5017,0.0,0.0,0.0,2.2573,2.411,2.3874,2.3478,0.0,2.496,2.539,2.5303,2.5141,2.5022,2.5057,2.4351,2.373,2.3649,2.2792,2.1927,2.1383,2.1145,1.9749,1.6272,1.6069,1.5274,1.284,1.1012,0.985,0.9532,0.0,0.8063,0.8222,0.7881,0.7943,0.854,0.8699,0.8804,0.8804,0.8956,0.9309,0.9814,0.9961,1.0364,1.1065,1.1065,1.1216,0.0,0.0,0.0,1.3263,1.3122,1.3362,1.3732,1.3286,1.3742,1.4698,1.4698,1.5186,1.5864,0.0,0.0,0.0,0.0,0.0,0.0,0.0,0.0,0.0,0.0,0.0,0.0,0.0,0.0,0.0,0.0,0.0,0.0,0.0,0.0,0.0,0.0,0.0,0.0,0.0,0.0,0.0,0.0,0.0,2.7108,0.0,0.0,0.0,0.0,0.0,0.0,0.0,0.0,0.0,0.0,2.0561,0.0,0.0,0.0,0.0,0.0,2.0605,2.1426,0.0,2.2461,2.3574,2.5,0.0,0.0,0.0,0.0,2.5232,0.0,0.0,2.3842,2.3159,2.4505,2.4191,2.3782,2.4607,2.5105,2.5351,2.5192,2.503,2.4872,2.4714,2.3565,2.2692,2.2743,2.1394,2.0023,1.8981,1.8544,1.7486,1.5169,1.4798,1.4099,0.0,1.08,0.958,0.0,0.0,0.812,0.8383,0.828,0.8374,0.8804,0.848,0.848,0.8804,0.9113,0.9249,0.9273,0.9273,0.9622,1.0273,0.9974,1.0187,0.0,0.0,0.0,1.2395,1.2716,1.3074,1.3324,1.3017,1.3478,1.4329,1.4606,1.4926,1.5276,0.0,0.0,0.0,0.0,0.0,0.0,0.0,0.0,0.0,0.0,0.0,0.0,0.0,0.0,0.0,0.0,0.0,0.0,0.0,0.0,0.0,0.0,0.0,0.0,0.0,0.0,0.0,0.0,0.0,0.0,0.0,0.0,0.0,0.0,0.0,0.0,0.0,0.0,0.0,0.0,2.0562,0.0,0.0,0.0,0.0,0.0,0.0,0.0,0.0,2.2988,2.416,2.5684,2.5547,0.0,0.0,0.0,0.0,0.0,2.5428,2.4851,2.4495,2.5351,2.4884,2.443,2.5282,2.5418,2.5299,2.5053,2.4831,2.4542,2.4106,2.2479,2.1325,2.1625,1.9951,1.7934,1.5963,1.551,1.5168,1.4626,1.418,0.0,1.2371,1.1067,0.0,0.0,0.0,0.8357,0.831,0.8624,0.8732,0.8633,0.8025,0.7919,0.8416,0.9013,0.9013,0.8364,0.8364,0.8724,0.9379,0.8835,0.9259,1.0517,0.0,0.0,1.1715,1.2492,1.2871,1.2929,1.3017,1.3324,1.3862,1.4468,1.4652,1.4652,0.0,0.0,0.0,0.0,0.0,0.0,0.0,0.0,0.0,0.0,0.0,0.0,0.0,0.0,0.0,0.0,0.0,0.0,0.0,0.0,0.0,0.0,0.0,0.0,0.0,0.0,0.0,0.0,0.0,0.0,2.9228,2.978,2.8072,0.0,0.0,0.0,0.0,0.0,0.0,0.0,0.0,0.0,0.0,0.0,0.0,0.0,0.0,0.0,0.0,2.2344,2.3691,2.5566,2.4824,0.0,0.0,0.0,0.0,0.0,2.5505,2.4851,2.4409,2.5236,2.481,2.4411,2.523,2.5278,2.512,2.5018,2.4538,2.3824,2.2867,2.0931,1.9524,1.9714,1.859,1.7102,0.0,0.0,1.5434,1.3559,0.0,1.2758,1.0456,0.0,0.0,0.0,0.0,0.8263,0.8009,0.851,0.8476,0.7707,0.7711,0.7401,0.6772,0.6966,0.7009,0.6902,0.6902,0.7278,0.8025,0.7925,0.8302,0.0,0.0,1.0956,1.1065,1.2353,1.2871,1.2978,1.3457,1.3732,1.3862,1.4468,1.4376,1.4003,0.0,0.0,0.0,0.0,0.0,0.0,0.0,0.0,0.0,0.0,0.0,0.0,0.0,0.0,0.0,0.0,0.0,0.0,0.0,0.0,0.0,0.0,0.0,0.0,0.0,0.0,0.0,0.0,0.0,2.964,3.0641,2.9283,2.6901,2.3691,0.0,0.0,0.0,0.0,0.0,0.0,0.0,0.0,0.0,0.0,0.0,0.0,0.0,0.0,0.0,0.0,2.4336,2.5625,2.5234,0.0,0.0,0.0,0.0,0.0,2.5447,2.5139,2.4745,2.4589,2.3928,2.3416,2.3705,2.3428,2.3075,2.3006,2.2244,2.1277,2.0347,1.881,1.72,1.5716,0.0,1.4562,1.2955,1.3496,1.3736,0.0,0.0,1.2039,0.0,0.0,0.0,0.0,0.0,0.0,0.8148,0.8517,0.8299,0.7327,0.694,0.6436,0.5722,0.5414,0.5565,0.5982,0.5982,0.6416,0.7128,0.7128,0.7925,0.9413,0.0,1.1531,1.1984,1.3341,1.3884,1.3884,1.3826,1.3815,1.3779,1.3742,1.3742,1.3815,0.0,0.0,0.0,0.0,0.0,0.0,0.0,0.0,0.0,0.0,0.0,0.0,0.0,0.0,0.0,0.0,0.0,0.0,0.0,0.0,0.0,0.0,0.0,0.0,0.0,0.0,0.0,2.8179,2.939,3.0529,3.1518,2.8435,2.5627,0.0,0.0,0.0,0.0,0.0,0.0,0.0,0.0,0.0,0.0,0.0,0.0,0.0,0.0,0.0,0.0,0.0,0.0,0.0,0.0,0.0,0.0,0.0,2.5493,2.5425,2.538,2.5043,2.4474,2.3648,2.3301,2.302,2.2443,2.1977,2.1534,2.1106,2.0264,1.9228,1.8052,1.6781,1.4932,1.2124,1.2476,1.2571,1.1156,1.1679,1.2256,1.2318,1.1897,0.0,0.0,0.0,0.0,0.0,0.0,0.0,0.8136,0.8349,0.7963,0.6807,0.6288,0.561,0.4783,0.4368,0.4527,0.5213,0.5412,0.5873,0.6588,0.6956,0.8066,0.9865,1.1182,1.2113,1.287,1.3852,1.434,1.4422,1.3956,1.3815,1.3732,1.3104,1.319,1.36,0.0,0.0,0.0,0.0,0.0,0.0,0.0,0.0,0.0,0.0,0.0,0.0,0.0,0.0,0.0,0.0,0.0,0.0,0.0,0.0,0.0,0.0,0.0,0.0,0.0,2.6409,2.7332,2.9006,3.1429,3.1967,3.0637,2.811,2.5584,0.0,0.0,0.0,0.0,0.0,0.0,0.0,0.0,0.0,0.0,0.0,0.0,0.0,0.0,0.0,0.0,0.0,0.0,0.0,0.0,0.0,0.0,0.0,2.5493,2.5465,2.533,2.408,2.274,2.2476,2.3619,2.4328,2.2468,2.2282,2.2046,2.0428,1.9975,1.9211,1.6951,1.5138,1.3123,1.0479,1.1752,1.2675,1.153,0.0,1.2193,1.1886,1.1675,0.0,0.0,0.0,0.0,0.0,0.0,0.0,0.7602,0.7809,0.7314,0.5851,0.5912,0.5298,0.3903,0.3958,0.4111,0.4316,0.5089,0.5873,0.6642,0.7947,0.9006,0.9865,1.1216,1.2199,1.2822,1.2997,1.3382,1.3862,1.3815,1.3815,1.3732,1.3104,1.2929,1.3065,0.0,0.0,0.0,0.0,0.0,0.0,0.0,0.0,0.0,0.0,0.0,0.0,0.0,0.0,0.0,0.0,0.0,0.0,0.0,0.0,0.0,0.0,0.0,2.5273,2.6629,2.764,2.8736,2.991,3.0964,3.089,2.9726,2.6746,0.0,0.0,0.0,0.0,0.0,0.0,0.0,0.0,0.0,0.0,0.0,0.0,0.0,0.0,0.0,0.0,0.0,0.0,0.0,0.0,0.0,0.0,0.0,0.0,0.0,2.5487,2.539,2.4387,2.3187,2.2483,2.2628,2.2454,2.0549,2.0244,1.9807,1.7928,1.729,1.6566,1.4732,1.2869,1.1393,1.0636,1.1481,1.2048,1.1598,1.2222,1.2596,1.2224,0.0,0.0,0.0,0.0,0.0,0.0,0.0,0.0,0.7802,0.7831,0.7126,0.5517,0.5515,0.4934,0.3705,0.4178,0.4532,0.4754,0.5188,0.6023,0.7289,0.8271,0.9311,1.0517,1.1846,1.3014,1.3982,1.4014,1.4376,1.4858,1.4086,1.3552,1.319,1.2968,1.2881,1.292,0.0,0.0,0.0,0.0,0.0,0.0,0.0,0.0,0.0,0.0,0.0,0.0,0.0,0.0,0.0,0.0,0.0,0.0,0.0,0.0,0.0,0.0,0.0,2.4879,2.6264,2.767,2.8901,2.9987,3.012,2.9625,2.8481,0.0,0.0,0.0,0.0,0.0,0.0,0.0,0.0,0.0,0.0,0.0,0.0,0.0,0.0,0.0,0.0,0.0,0.0,0.0,0.0,0.0,0.0,0.0,0.0,0.0,0.0,2.5091,2.5005,2.4023,2.2833,2.2104,2.161,2.0869,1.9236,1.8909,1.8358,1.6329,1.5242,1.435,1.3184,1.1885,0.0,0.0,1.1475,1.1859,1.1766,1.2057,1.223,0.0,0.0,0.0,0.0,0.0,0.0,0.0,0.0,0.0,0.0,0.7704,0.6888,0.5351,0.548,0.5005,0.388,0.4525,0.5171,0.5727,0.6017,0.6802,0.8025,0.8947,0.9974,1.1216,1.2531,1.3737,1.4709,1.4468,1.456,1.4687,1.3826,1.3238,1.2881,1.2881,1.2881,1.2881,0.0,0.0,0.0,0.0,0.0,0.0,0.0,0.0,0.0,0.0,0.0,0.0,0.0,0.0,0.0,0.0,0.0,0.0,0.0,0.0,0.0,0.0,0.0,2.463,2.5341,2.6285,2.7517,2.9083,2.9205,2.844,2.6852,0.0,0.0,0.0,0.0,0.0,0.0,0.0,0.0,0.0,0.0,2.1133,0.0,0.0,0.0,0.0,0.0,0.0,0.0,0.0,0.0,0.0,0.0,0.0,0.0,0.0,2.493,2.4281,2.4158,2.2729,2.1278,2.1145,2.076,2.0072,1.8876,1.8708,1.8208,1.6109,1.4308,1.2962,1.2605,1.2454,0.0,1.1158,1.1803,1.2314,1.213,1.1371,0.0,0.0,0.0,0.0,0.0,0.0,0.0,0.0,0.0,0.0,0.0,0.7321,0.6465,0.5351,0.5873,0.561,0.4434,0.5,0.5934,0.7092,0.7775,0.831,0.8731,1.0187,1.1166,1.1904,1.3226,1.4143,1.4652,1.405,1.3467,1.2881,1.2881,1.2881,1.2881,1.2881,1.2881,1.2881,0.0,0.0,0.0,0.0,0.0,0.0,0.0,0.0,0.0,0.0,0.0,0.0,0.0,0.0,0.0,0.0,0.0,0.0,0.0,0.0,0.0,0.0,0.0,0.0,0.0,0.0,2.5229,2.7474,2.696,2.6453,0.0,0.0,0.0,2.3945,0.0,0.0,0.0,0.0,0.0,0.0,0.0,2.2383,0.0,0.0,0.0,0.0,0.0,0.0,0.0,0.0,0.0,0.0,0.0,0.0,0.0,2.5532,2.5304,2.5053,2.4966,2.361,2.2166,2.1978,2.0742,1.933,1.8436,1.8193,1.7586,1.5565,1.3581,1.2363,1.2956,1.2476,0.0,1.1548,1.1883,1.2159,1.2032,1.2017,0.0,0.0,0.0,0.0,0.0,0.0,0.0,0.0,0.0,0.0,0.0,0.7105,0.6683,0.5959,0.6093,0.583,0.5043,0.5615,0.6381,0.7335,0.7937,0.8501,0.912,1.0739,1.1701,1.21,1.374,1.4778,1.5276,1.4687,1.3836,1.2881,1.2881,1.2881,1.2881,1.2881,1.2881,1.2968,0.0,0.0,0.0,0.0,0.0,0.0,0.0,0.0,0.0,0.0,0.0,0.0,0.0,0.0,0.0,0.0,0.0,0.0,0.0,0.0,0.0,0.0,0.0,0.0,0.0,2.2948,2.3956,0.0,0.0,0.0,0.0,0.0,0.0,2.4355,0.0,2.2715,0.0,0.0,0.0,2.1894,2.1894,2.2891,2.4394,0.0,0.0,0.0,0.0,0.0,0.0,0.0,0.0,0.0,0.0,0.0,0.0,2.5142,2.473,2.4312,2.3938,2.2777,2.1656,2.1499,2.0377,1.8945,1.7543,1.7135,1.6632,1.508,1.3528,1.2436,1.2603,1.2136,0.0,1.1387,1.1566,1.1776,1.1866,0.0,0.0,0.0,0.0,0.0,0.0,0.0,0.0,0.0,0.0,0.0,0.0,0.7021,0.6761,0.6155,0.6641,0.667,0.6301,0.6875,0.7496,0.8092,0.8719,0.9169,0.9509,1.0907,1.1912,1.2569,1.4327,1.5276,1.5543,1.4971,1.4247,1.361,1.3334,1.3238,1.3286,1.3515,1.3296,1.3017,0.0,0.0,0.0,0.0,0.0,0.0,0.0,0.0,0.0,0.0,0.0,0.0,0.0,0.0,0.0,0.0,0.0,0.0,0.0,0.0,0.0,0.0,0.0,0.0,0.0,0.0,0.0,0.0,0.0,0.0,0.0,0.0,2.4375,2.4512,0.0,2.3945,0.0,0.0,2.2012,2.2012,2.2109,2.3086,2.4512,2.4512,0.0,0.0,0.0,0.0,0.0,0.0,0.0,0.0,2.5703,2.5652,2.5436,2.4647,2.3752,2.2849,2.2062,2.1147,2.0412,2.0327,1.9844,1.8778,1.6467,1.58,1.5412,1.4562,1.3728,1.2851,1.178,1.1653,1.1506,1.0896,1.101,1.1309,0.0,0.0,0.0,0.0,0.0,0.0,0.0,0.0,0.0,0.0,0.0,0.0,0.0,0.6923,0.6706,0.6204,0.7294,0.7931,0.7952,0.8448,0.8882,0.0,0.9833,1.0103,1.0125,1.0967,1.2076,1.3418,1.5022,1.5632,1.5543,1.5017,1.4744,1.4663,1.4097,1.3862,1.3956,1.4514,1.4025,1.3248,0.0,0.0,0.0,0.0,0.0,0.0,0.0,0.0,0.0,0.0,0.0,0.0,0.0,0.0,0.0,0.0,0.0,0.0,0.0,0.0,0.0,0.0,0.0,0.0,0.0,0.0,0.0,0.0,0.0,0.0,0.0,0.0,0.0,2.5391,0.0,2.3945,0.0,2.3008,2.2891,2.2891,2.3594,2.4492,2.543,2.543,2.5506,0.0,0.0,0.0,0.0,0.0,0.0,0.0,2.5684,2.5641,2.5567,2.5371,2.4667,2.3887,2.3694,2.2538,2.1349,2.1178,1.983,1.8146,1.6557,1.5352,1.4236,1.3088,1.2394,1.1888,1.167,1.161,1.1412,1.0813,1.0994,1.1163,0.0,0.0,0.0,0.0,0.0,0.0,0.0,0.0,0.0,0.0,0.0,0.0,0.6428,0.6392,0.6507,0.6813,0.7516,0.8259,0.905,0.8812,0.9145,0.0,1.0126,1.0626,1.1501,1.2297,1.3559,1.5101,1.5959,1.6051,1.5588,1.5454,1.5152,1.4709,1.4571,1.4514,1.4514,1.4652,1.4525,1.4433,0.0,0.0,0.0,0.0,0.0,0.0,0.0,0.0,0.0,0.0,0.0,0.0,0.0,0.0,0.0,0.0,0.0,0.0,0.0,0.0,0.0,0.0,0.0,0.0,0.0,0.0,0.0,0.0,0.0,0.0,0.0,0.0,0.0,2.5684,0.0,2.4551,0.0,2.3769,2.375,2.3769,2.4219,2.4922,2.5703,2.5652,2.5628,0.0,0.0,0.0,0.0,0.0,0.0,0.0,0.0,0.0,2.5523,2.5143,2.4353,2.3545,2.3168,2.2091,2.1004,2.0753,1.9555,1.8064,1.663,1.4995,1.3483,1.2266,1.1784,1.15,1.1224,1.1173,1.0985,1.042,1.0599,0.0,0.0,0.0,0.0,0.0,0.0,0.0,0.0,0.0,0.0,0.0,0.0,0.7056,0.6221,0.6732,0.714,0.739,0.8203,0.903,0.9806,0.9806,1.0079,1.058,1.0836,1.1653,1.2981,1.3696,1.4612,1.5632,1.6238,1.6337,1.6008,1.572,1.5588,1.5522,1.5242,1.5141,1.5186,1.5478,1.5197,1.4846,0.0,0.0,0.0,0.0,0.0,0.0,0.0,0.0,0.0,0.0,0.0,0.0,0.0,0.0,0.0,0.0,0.0,0.0,0.0,0.0,0.0,0.0,0.0,0.0,0.0,0.0,0.0,0.0,0.0,0.0,0.0,0.0,0.0,2.5703,0.0,0.0,0.0,0.0,2.4531,2.4414,2.4551,2.5059,2.5681,2.5619,0.0,0.0,0.0,0.0,0.0,0.0,0.0,0.0,0.0,0.0,2.5468,2.4645,2.3759,2.2853,2.204,2.1124,2.0323,1.9998,1.9248,1.8151,1.6504,1.4662,1.2917,1.1581,1.1302,1.1148,1.0643,1.0556,1.0406,0.9981,1.0135,0.0,0.0,0.0,0.0,0.0,0.0,0.0,0.0,0.0,0.0,0.0,0.0,0.7238,0.6392,0.7231,0.7799,0.7952,0.8964,0.9795,1.039,1.0802,1.1057,1.1169,1.1778,1.2814,1.4241,1.4836,1.5368,1.5776,1.6281,1.6522,1.6479,1.5952,1.6051,1.6466,1.5964,1.5676,1.5676,1.6281,1.5788,1.5017,0.0,0.0,0.0,0.0,0.0,0.0,0.0,0.0,0.0,0.0,0.0,0.0,0.0,0.0,0.0,0.0,0.0,0.0,0.0,0.0,0.0,0.0,0.0,0.0,0.0,0.0,0.0,0.0,0.0,0.0,0.0,0.0,0.0,2.5683,0.0,0.0,0.0,0.0,2.5039,2.4473,2.5215,2.5605,2.5681,0.0,0.0,0.0,0.0,0.0,0.0,0.0,2.5552,0.0,0.0,0.0,2.5527,2.4647,2.3826,2.2995,2.212,2.1163,2.0348,2.0134,1.9291,1.7967,1.5887,1.4104,1.2327,1.0418,1.0083,1.0106,1.0018,1.0006,0.9981,0.9905,0.9944,0.0,0.0,0.0,0.0,0.0,0.0,0.0,0.0,0.0,0.0,0.0,0.6985,0.6556,0.6868,0.7036,0.7556,0.8464,0.9164,0.9942,1.0905,1.0981,1.1244,1.17,1.2663,1.3674,1.4799,1.5361,1.5911,1.638,1.6466,1.6522,1.6466,1.6423,1.6423,1.6479,1.6423,1.6051,1.5676,1.6281,1.6051,1.5588,0.0,0.0,0.0,0.0,0.0,0.0,0.0,0.0,0.0,0.0,0.0,0.0,0.0,0.0,0.0,0.0,0.0,0.0,0.0,0.0,0.0,0.0,0.0,0.0,0.0,0.0,0.0,0.0,0.0,0.0,0.0,2.4161,2.4786,0.0,0.0,0.0,0.0,0.0,0.0,0.0,0.0,0.0,0.0,0.0,0.0,0.0,0.0,0.0,0.0,0.0,2.5545,2.5608,2.5685,0.0,0.0,0.0,2.3477,2.2167,2.0759,2.0069,1.9569,1.8879,1.7987,1.683,1.5223,1.35,1.1737,1.0033,0.9277,0.9027,0.9239,0.9277,0.9357,0.9581,0.9607,0.0,0.0,0.0,0.0,0.0,0.0,0.0,0.0,0.0,0.0,0.0,0.6937,0.6894,0.7474,0.7799,0.8317,0.9076,0.9658,1.0302,1.0971,1.1319,1.1836,1.2579,1.3034,1.3816,1.4916,1.5128,1.5706,1.6522,1.6522,1.6522,1.6522,1.6522,1.6522,1.6522,1.6522,1.6151,1.5632,1.5908,1.582,1.5632,0.0,0.0,0.0,0.0,0.0,0.0,0.0,0.0,0.0,0.0,0.0,0.0,0.0,0.0,0.0,0.0,0.0,0.0,0.0,0.0,0.0,0.0,0.0,0.0,0.0,0.0,0.0,0.0,0.0,0.0,2.4297,2.4521,2.4968,0.0,2.551,2.5515,0.0,0.0,0.0,0.0,0.0,0.0,0.0,0.0,0.0,0.0,0.0,0.0,0.0,0.0,0.0,2.5609,2.5673,2.5254,0.0,0.0,0.0,2.1269,1.9879,1.9507,1.9291,1.844,1.7498,1.6338,1.4691,1.2932,1.1245,0.0,0.8601,0.8019,0.8322,0.8529,0.8778,0.9182,0.9343,0.0,0.0,0.0,0.0,0.0,0.0,0.0,0.0,0.0,0.0,0.0,0.7231,0.7489,0.8077,0.8594,0.9159,0.9686,1.0079,1.0446,1.0803,1.1439,1.226,1.3198,1.3348,1.3948,1.4916,1.5054,1.5605,1.6522,1.6522,1.6522,1.6522,1.6522,1.6522,1.6522,1.6522,1.6051,1.541,1.5732,1.5632,1.541,0.0,0.0,0.0,0.0,0.0,0.0,0.0,0.0,0.0,0.0,0.0,0.0,0.0,0.0,0.0,0.0,0.0,0.0,0.0,0.0,0.0,0.0,0.0,0.0,0.0,0.0,0.0,0.0,0.0,0.0,2.4316,2.5156,2.5563,2.5582,2.5457,2.5476,2.5592,0.0,0.0,0.0,0.0,0.0,0.0,0.0,0.0,0.0,0.0,0.0,0.0,0.0,0.0,0.0,0.0,0.0,2.5312,0.0,0.0,0.0,2.0402,2.0332,2.026,1.9944,1.8975,1.7335,1.4399,1.2486,1.0851,0.9118,0.7893,0.7168,0.7168,0.7762,0.8368,0.875,0.9155,0.0,0.0,0.0,0.0,0.0,0.0,0.0,0.0,0.0,0.0,0.0,0.7836,0.8077,0.8635,0.9159,0.9725,1.0244,1.0283,1.0268,1.0226,1.1206,1.2225,1.321,1.3795,1.4349,1.4928,1.5417,1.5969,1.6522,1.6522,1.6522,1.6522,1.6522,1.6522,1.6522,1.6522,1.5788,1.488,1.602,1.5744,1.4926,0.0,0.0,0.0,0.0,0.0,0.0,0.0,0.0,0.0,0.0,0.0,0.0,0.0,0.0,0.0,0.0,0.0,0.0,0.0,0.0,0.0,0.0,0.0,0.0,0.0,0.0,0.0,0.0,0.0,2.4645,2.513,2.4924,2.511,2.559,2.5464,2.5447,2.5524,2.5388,0.0,0.0,0.0,0.0,0.0,0.0,0.0,0.0,0.0,0.0,0.0,0.0,0.0,0.0,0.0,0.0,0.0,2.1953,2.1045,2.0404,1.9799,1.9502,1.9227,1.8603,1.7256,1.5654,1.3996,1.2057,1.0169,0.87,0.7694,0.7109,0.7109,0.753,0.8088,0.8706,0.8926,0.917,0.0,0.0,0.0,0.0,0.0,0.0,0.0,0.0,0.0,0.0,0.0,0.7832,0.8667,0.8924,0.9138,0.9328,0.9973,1.0616,1.1217,1.2188,1.2861,1.321,1.3821,1.4374,1.4928,1.5442,1.5994,1.6522,1.6522,1.6522,1.6522,1.6522,1.6522,1.6479,1.6051,1.5421,1.4744,1.5209,1.5062,1.4835,0.0,0.0,0.0,0.0,0.0,0.0,0.0,0.0,0.0,0.0,0.0,0.0,0.0,0.0,0.0,0.0,0.0,0.0,0.0,0.0,0.0,0.0,0.0,0.0,0.0,0.0,0.0,0.0,0.0,0.0,0.0,2.5077,2.5117,2.5625,2.5517,2.5499,0.0,0.0,0.0,2.5515,0.0,0.0,2.3227,0.0,0.0,0.0,0.0,0.0,0.0,0.0,0.0,0.0,0.0,0.0,0.0,0.0,2.0788,2.0369,1.9769,1.9428,1.9057,1.829,1.6759,1.5139,1.3972,1.1911,0.9902,0.8585,0.7782,0.7266,0.7118,0.7432,0.786,0.8354,0.8623,0.8981,0.0,0.0,0.0,0.0,0.0,0.0,0.0,0.0,0.0,0.0,0.0,0.0,0.8498,0.8606,0.8785,0.906,0.9866,1.0788,1.1774,1.2551,1.3023,1.321,1.3973,1.4563,1.4928,1.563,1.617,1.6522,1.6522,1.6522,1.6522,1.6522,1.6522,1.6423,1.582,1.5231,1.4698,1.4926,1.488,1.4835,0.0,0.0,0.0,0.0,0.0,0.0,0.0,0.0,0.0,0.0,0.0,0.0,0.0,0.0,0.0,0.0,0.0,0.0,0.0,0.0,0.0,0.0,0.0,0.0,0.0,0.0,0.0,0.0,0.0,0.0,0.0,0.0,2.5703,2.5703,2.5625,2.5593,2.5611,0.0,2.5572,2.5495,0.0,2.3174,2.3995,0.0,0.0,0.0,2.2386,2.2467,0.0,2.2471,0.0,0.0,0.0,0.0,0.0,0.0,0.0,2.0465,0.0,0.0,0.0,1.9239,1.7738,1.5997,1.4268,1.2074,1.0049,0.8783,0.8088,0.7579,0.7198,0.7423,0.7686,0.7725,0.8326,0.8789,0.0,0.0,0.0,0.0,0.0,0.0,0.0,0.0,0.0,0.0,0.7833,0.7763,0.8158,0.8341,0.877,0.9583,1.0065,1.0788,1.1763,1.2179,1.2672,1.3235,1.4362,1.4916,1.4966,1.6019,1.6522,1.6522,1.6522,1.6522,1.6522,1.6522,1.6522,1.6423,1.582,1.5231,1.4789,1.5365,1.5231,1.496,0.0,0.0,0.0,0.0,0.0,0.0,0.0,0.0,0.0,0.0,0.0,0.0,0.0,0.0,0.0,0.0,0.0,0.0,0.0,0.0,0.0,0.0,0.0,0.0,0.0,0.0,0.0,0.0,0.0,0.0,0.0,0.0,0.0,0.0,2.5684,2.568,2.5671,2.5551,0.0,2.5457,2.4192,2.348,0.0,0.0,0.0,0.0,0.0,2.1684,2.1748,0.0,2.2332,2.2021,0.0,0.0,0.0,0.0,0.0,0.0,2.0299,0.0,0.0,0.0,0.0,0.0,0.0,0.0,1.0328,0.9286,0.8301,0.7681,0.7923,0.7573,0.7456,0.8039,0.8308,0.8634,0.0,0.0,0.0,0.0,0.0,0.0,0.0,0.0,0.0,0.0,0.8002,0.773,0.8184,0.8227,0.8664,0.9583,1.0106,1.0645,1.1234,1.2059,1.2733,1.3301,1.4374,1.5117,1.5492,1.6195,1.6522,1.6522,1.6522,1.6522,1.6522,1.6522,1.6522,1.6423,1.582,1.5499,1.5365,1.5543,1.5499,1.5543,0.0,0.0,0.0,0.0,0.0,0.0,0.0,0.0,0.0,0.0,0.0,0.0,0.0,0.0,0.0,0.0,0.0,0.0,0.0,0.0,0.0,0.0,0.0,0.0,0.0,0.0,0.0,0.0,0.0,0.0,0.0,0.0,0.0,0.0,0.0,0.0,0.0,0.0,0.0,0.0,2.3732,0.0,0.0,2.1502,2.1004,0.0,0.0,0.0,2.1827,2.1534,2.117,0.0,0.0,0.0,0.0,0.0,0.0,0.0,2.0164,1.9362,1.8376,0.0,0.0,0.0,1.3976,1.2321,1.0644,0.0,0.8782,0.7962,0.7591,0.777,0.8074,0.8333,0.8449,0.8606,0.0,0.0,0.0,0.0,0.0,0.0,0.0,0.7778,0.7819,0.8415,0.7743,0.7525,0.7959,0.8164,0.8696,0.9573,1.0123,1.0593,1.1008,1.1982,1.277,1.3331,1.441,1.5205,1.5718,1.6271,1.6522,1.6522,1.6522,1.6522,1.6522,1.6522,1.6522,1.6423,1.582,1.5588,1.5588,1.5588,1.5752,1.6089,0.0,0.0,0.0,0.0,0.0,0.0,0.0,0.0,0.0,0.0,0.0,0.0,0.0,0.0,0.0,0.0,0.0,0.0,0.0,0.0,0.0,0.0,0.0,0.0,0.0,0.0,0.0,0.0,0.0,0.0,0.0,0.0,0.0,0.0,0.0,0.0,0.0,0.0,0.0,2.5216,2.2684,2.2628,0.0,0.0,2.1185,2.2502,2.165,2.1833,2.2191,2.0267,1.9341,0.0,0.0,0.0,0.0,0.0,1.9907,0.0,0.0,0.0,0.0,0.0,0.0,0.0,1.4395,1.2758,1.093,0.0,0.9377,0.8443,0.7112,0.8119,0.9047,0.8734,0.8745,0.8706,0.8393,0.0,0.0,0.0,0.0,0.0,0.7783,0.7754,0.7754,0.7754,0.7432,0.7421,0.7803,0.8271,0.8875,0.9563,1.0175,1.0646,1.1008,1.1945,1.2757,1.3402,1.4435,1.5191,1.5806,1.6296,1.6522,1.6522,1.6522,1.6522,1.6522,1.6522,1.6522,1.6436,1.5908,1.572,1.572,1.5764,1.6089,1.6634,0.0,0.0,0.0,0.0,0.0,0.0,0.0,0.0,0.0,0.0,0.0,0.0,0.0,0.0,0.0,0.0,0.0,0.0,0.0,0.0,0.0,0.0,0.0,0.0,0.0,0.0,0.0,0.0,0.0,0.0,0.0,0.0,0.0,0.0,0.0,0.0,0.0,0.0,0.0,2.436,2.3167,0.0,2.3009,2.1707,2.1045,2.0765,2.0421,2.0394,2.0327,1.8908,1.7969,1.7472,0.0,0.0,0.0,1.9513,0.0,0.0,0.0,0.0,0.0,0.0,0.0,0.0,1.2509,1.1657,1.0883,0.0,0.9819,0.9275,0.9773,0.9265,0.9034,0.9742,0.9271,0.8789,0.8706,0.0,0.0,0.0,0.0,0.0,0.8205,0.8176,0.8176,0.8176,0.8109,0.8235,0.8654,0.9148,0.9501,0.9609,1.0436,1.0924,1.1019,1.1616,1.2626,1.3954,1.4596,1.5392,1.6358,1.6471,1.6522,1.6522,1.6522,1.6522,1.6522,1.6522,1.6522,1.6479,1.638,1.6337,1.6367,1.6811,1.705,1.7299,0.0,0.0,0.0,0.0,0.0,0.0,0.0,0.0,0.0,0.0,0.0,0.0,2.5703,0.0,0.0,0.0,0.0,0.0,0.0,0.0,0.0,0.0,0.0,0.0,0.0,0.0,0.0,0.0,0.0,0.0,0.0,0.0,0.0,0.0,0.0,0.0,0.0,0.0,2.4439,2.4427,2.2931,0.0,2.2106,2.0762,2.0233,2.0183,2.0041,1.9598,1.9094,1.9355,1.8496,0.0,1.6911,1.7472,1.837,0.0,1.9167,1.9213,0.0,0.0,0.0,1.5747,0.0,0.0,0.0,1.2015,1.1427,1.1741,1.1103,1.0658,1.1166,1.1075,1.0893,1.0719,1.0643,1.0341,0.9635,0.912,0.0,0.0,0.0,0.0,0.8551,0.8551,0.8551,0.8551,0.8551,0.8728,0.9174,0.9489,0.9729,0.9898,1.0378,1.0764,1.1019,1.1542,1.2559,1.4098,1.4646,1.5442,1.6522,1.6522,1.6522,1.6466,1.6194,1.6238,1.6479,1.6194,1.6238,1.6522,1.6522,1.668,1.6909,1.7188,1.7626,1.8185,0.0,0.0,0.0,0.0,0.0,0.0,0.0,0.0,0.0,0.0,0.0,2.568,2.5636,2.4951,2.4495,2.4466,0.0,0.0,0.0,0.0,0.0,0.0,0.0,2.5558,0.0,0.0,0.0,0.0,0.0,0.0,0.0,0.0,0.0,0.0,0.0,0.0,0.0,0.0,0.0,2.4245,0.0,2.1924,2.179,2.0046,1.9745,2.0215,1.9798,1.8857,1.8019,1.9408,1.8679,1.7039,1.6161,1.7105,0.0,0.0,0.0,0.0,0.0,0.0,0.0,0.0,0.0,1.3811,0.0,0.0,0.0,0.0,0.0,0.0,0.0,0.0,0.0,0.0,0.0,0.0,0.0,0.9665,0.0,0.0,0.0,0.0,0.0,0.9093,0.9066,0.8985,0.8996,0.9248,0.9807,0.9861,1.0031,1.0334,1.0569,1.0878,1.1169,1.1653,1.271,1.4268,1.4697,1.5442,1.6522,1.6522,1.6522,1.6466,1.5996,1.5996,1.6281,1.5908,1.6008,1.6337,1.6552,1.6909,1.7353,1.7544,1.8185,1.8893,2.5703,2.5703,0.0,0.0,0.0,0.0,0.0,0.0,0.0,2.5703,2.5703,2.5604,2.538,2.5261,2.5161,2.5109,2.4251,0.0,2.5036,0.0,0.0,0.0,0.0,2.5187,2.4466,0.0,0.0,0.0,0.0,0.0,0.0,0.0,0.0,0.0,2.475,0.0,0.0,0.0,2.3561,0.0,2.2588,2.2904,0.0,2.145,2.0814,2.0671,1.8944,1.7652,1.6742,0.0,1.604,1.5617,0.0,1.7452,1.7858,1.8895,0.0,0.0,0.0,0.0,0.0,0.0,1.3169,0.0,0.0,0.0,1.2641,1.278,0.0,0.0,0.0,0.0,0.0,0.0,0.0,0.0,1.0249,1.0441,1.0519,0.0,0.0,0.0,0.0,1.0133,1.0008,0.9715,0.9689,1.0108,1.1057,1.0929,1.0843,1.0914,1.1766,1.2066,1.17,1.2174,1.3216,1.4826,1.4864,1.5442,1.6522,1.6522,1.6522,1.6522,1.6423,1.6139,1.5732,1.6194,1.6139,1.5808,1.6799,1.7229,1.7435,1.838,1.8817,1.8968,2.5703,2.5703,0.0,0.0,0.0,0.0,0.0,0.0,0.0,2.5703,2.5703,2.5605,2.5317,2.5371,2.5156,2.45,2.3923,2.3798,0.0,0.0,0.0,0.0,2.5136,2.5271,2.4764,0.0,0.0,0.0,2.5553,0.0,0.0,0.0,0.0,0.0,2.4426,0.0,2.3474,0.0,2.3037,0.0,0.0,0.0,0.0,2.1052,1.9882,1.921,1.8262,1.6828,1.5363,0.0,1.5262,0.0,0.0,0.0,0.0,1.7412,0.0,0.0,0.0,0.0,0.0,0.0,0.0,0.0,1.3779,0.0,1.3578,0.0,0.0,0.0,0.0,0.0,0.0,0.0,1.2816,0.0,0.0,0.0,1.1287,0.0,0.0,0.0,0.0,0.0,0.0,0.0,1.0772,1.0913,1.1438,1.102,1.0979,1.1385,1.1534,1.1971,1.2652,1.2886,1.3788,1.5341,1.5341,1.5756,1.6522,1.6522,1.6522,1.6466,1.6151,1.6051,1.6095,1.6008,1.6051,1.6225,1.7327,1.7747,1.7867,1.8612,1.9095,1.9406,2.5664,2.5684,0.0,0.0,0.0,0.0,0.0,0.0,0.0,0.0,0.0,2.554,2.5263,2.5333,2.5053,2.4208,2.3496,2.3243,0.0,0.0,2.3487,2.4001,2.4881,2.5143,0.0,0.0,0.0,0.0,0.0,0.0,0.0,0.0,0.0,0.0,0.0,2.3637,2.2697,0.0,2.248,2.235,2.1885,2.1803,2.1821,2.0447,1.9258,1.8273,1.772,1.6393,1.483,1.4289,1.4489,0.0,1.4718,0.0,0.0,0.0,0.0,0.0,1.5205,0.0,0.0,0.0,0.0,0.0,0.0,0.0,0.0,0.0,0.0,0.0,0.0,0.0,0.0,0.0,0.0,1.3282,0.0,0.0,0.0,0.0,0.0,0.0,0.0,0.0,0.0,1.1685,1.1711,1.177,1.1945,1.16,1.1551,1.1914,1.1716,1.2147,1.3281,1.3444,1.4244,1.5693,1.5693,1.5982,1.6522,1.6522,1.6522,1.6479,1.6051,1.6008,1.6238,1.5952,1.6008,1.6367,1.7612,1.8106,1.8185,1.8855,1.9369,1.969,2.5584,2.5664,2.5703,0.0,0.0,0.0,0.0,0.0,0.0,0.0,0.0,2.5395,2.5145,2.5101,2.5023,2.4799,0.0,2.2417,2.326,0.0,2.227,2.2095,2.396,2.4556,0.0,0.0,0.0,0.0,0.0,0.0,0.0,0.0,0.0,0.0,2.4466,2.3976,2.369,2.2931,2.194,2.0867,2.0854,2.0274,1.9476,0.0,1.9686,1.8786,1.7347,0.0,0.0,1.318,1.3161,0.0,0.0,0.0,0.0,0.0,0.0,0.0,0.0,0.0,0.0,1.252,0.0,0.0,0.0,0.0,1.5007,0.0,0.0,0.0,0.0,0.0,0.0,0.0,0.0,0.0,0.0,0.0,0.0,0.0,0.0,0.0,0.0,0.0,0.0,1.1721,1.2351,1.2784,1.2864,1.3192,1.3116,1.2496,1.2896,1.3165,1.3319,1.3816,1.4601,1.5693,1.5693,1.5982,1.6522,1.6522,1.6522,1.6522,1.6466,1.6139,1.5676,1.6238,1.6139,1.5796,1.7464,1.8106,1.8224,1.9281,1.969,1.969,2.5538,2.5552,2.5582,2.5628,2.5595,0.0,0.0,2.5556,0.0,0.0,2.5321,0.0,0.0,2.4864,2.4591,0.0,0.0,2.2967,2.3215,2.3048,2.3114,2.3436,2.4366,2.4653,0.0,0.0,0.0,0.0,0.0,0.0,0.0,0.0,0.0,0.0,0.0,2.3986,0.0,0.0,0.0,0.0,0.0,1.9668,1.8642,0.0,0.0,1.7629,1.7257,1.5687,0.0,1.2328,1.2222,1.2775,1.3462,1.4045,1.4485,1.4658,1.4335,0.0,0.0,0.0,1.1688,1.1884,0.0,0.0,0.0,0.0,0.0,0.0,0.0,0.0,0.0,0.0,0.0,0.0,0.0,0.0,0.0,0.0,0.0,0.0,0.0,0.0,0.0,0.0,0.0,1.3366,1.3606,1.3898,1.4276,1.3486,1.3335,1.3945,1.3531,1.3789,1.4878,1.5049,1.5505,1.6233,1.6233,1.6333,1.6522,1.6522,1.6522,1.6522,1.6522,1.638,1.6194,1.6423,1.638,1.6312,1.7612,1.8106,1.8224,1.9281,1.969,1.9782,2.536,2.5398,2.5464,2.5553,2.5534,0.0,0.0,0.0,0.0,0.0,2.5092,0.0,2.4703,0.0,2.4495,0.0,2.3452,2.3252,2.3135,2.3236,0.0,2.3346,2.3931,2.4045,0.0,0.0,0.0,0.0,0.0,2.468,0.0,0.0,0.0,0.0,0.0,2.4106,2.3638,2.2821,2.207,0.0,0.0,1.8761,0.0,0.0,1.7875,1.7069,0.0,1.5562,1.2865,1.1956,1.1727,1.192,1.2354,1.2774,1.3125,1.3162,1.2787,1.2236,1.1678,1.1132,0.0,1.156,1.183,0.0,1.2817,0.0,0.0,0.0,0.0,0.0,0.0,0.0,0.0,0.0,0.0,0.0,0.0,1.4171,0.0,0.0,0.0,0.0,0.0,0.0,1.2443,1.2479,1.3562,1.4405,0.0,0.0,1.3834,1.4396,1.3887,1.416,1.5392,1.5593,1.5969,1.6522,1.6522,1.6522,1.6522,1.6522,1.6522,1.6522,1.6522,1.6522,1.6522,1.6522,1.6522,1.6595,1.7666,1.8106,1.8224,1.9281,1.9782,2.0035,2.51,2.5207,2.5341,0.0,2.5486,0.0,0.0,0.0,2.5108,0.0,2.4912,2.4804,2.4775,2.4775,2.47,2.4512,2.3787,2.3277,2.3088,2.326,0.0,0.0,2.2778,2.2815,2.1804,0.0,0.0,0.0,0.0,0.0,0.0,0.0,0.0,0.0,2.4804,0.0,2.354,2.3041,2.1841,2.0149,1.8347,1.7513,1.7322,1.7429,1.7263,1.7042,1.7659,1.5951,1.3233,1.2018,1.1642,1.1737,1.2026,1.2098,1.2078,1.1905,1.1468,1.1019,1.1019,1.0649,1.0534,1.145,0.0,0.0,0.0,0.0,1.3654,0.0,0.0,0.0,0.0,0.0,0.0,0.0,0.0,0.0,0.0,0.0,0.0,0.0,0.0,0.0,1.1996,1.2193,1.1608,0.9645,1.2528,1.4433,0.0,0.0,1.4752,1.408,1.4178,1.4499,1.5056,1.5547,1.6036,1.6552,1.6522,1.6522,1.6522,1.6522,1.6522,1.6522,1.6522,1.6522,1.6522,1.6522,1.6522,1.6637,1.7706,1.8131,1.8327,1.9354,2.0,2.0449,2.5245,2.5284,2.5303,0.0,2.5341,2.5292,0.0,0.0,0.0,0.0,2.4842,2.479,2.441,2.4495,2.4495,2.4284,2.4223,0.0,0.0,0.0,0.0,2.2959,2.3156,2.2747,2.1534,2.2465,2.2718,2.2282,0.0,0.0,2.4082,0.0,0.0,0.0,0.0,2.4691,2.4417,2.3537,2.1571,1.8922,1.7415,1.6476,0.0,0.0,1.5343,1.5412,1.7991,1.538,1.0804,1.1399,1.1606,1.1724,1.2165,1.2314,1.2316,1.2307,1.1993,1.1505,1.1132,1.0649,1.0428,1.1046,1.1271,1.1562,0.0,0.0,0.0,0.0,0.0,0.0,0.0,0.0,0.0,0.0,0.0,0.0,0.0,0.0,0.0,1.4683,0.0,1.4012,1.2675,1.103,1.109,1.3552,1.4775,1.5528,1.5802,0.0,0.0,1.6135,1.6349,1.6729,1.7287,1.7008,1.6974,1.7076,1.668,1.6522,1.6522,1.6522,1.6522,1.6522,1.6522,1.6522,1.6522,1.6522,1.671,1.7146,1.7827,1.876,1.9763,2.0039,2.0416,2.0894,2.5152,2.5253,2.5303,2.5303,0.0,0.0,2.5022,2.5061,0.0,2.4543,2.4663,0.0,2.4228,2.4303,2.4357,2.4321,2.4357,0.0,2.4495,0.0,0.0,2.2996,2.2941,2.2227,2.0689,2.1599,0.0,2.1359,0.0,0.0,2.3648,0.0,0.0,0.0,0.0,2.4545,2.4418,2.2557,2.0582,1.8568,1.6611,0.0,0.0,1.464,1.4242,1.4137,1.5957,1.4145,1.1031,1.1987,1.2013,1.1743,1.2283,1.2319,1.2162,1.2165,1.1993,1.1737,1.1431,1.118,1.1029,1.1282,1.147,1.1812,1.2435,1.2541,1.2625,0.0,0.0,0.0,0.0,0.0,0.0,0.0,0.0,0.0,0.0,0.0,0.0,0.0,1.5192,0.0,1.3971,1.2368,1.2521,1.5316,1.543,1.5568,0.0,0.0,0.0,1.6556,1.6825,1.7106,1.7394,1.7111,1.6951,1.6951,1.6637,1.6522,1.6522,1.6522,1.6522,1.6522,1.6522,1.6522,1.6522,1.6522,1.6837,1.7394,1.8377,1.939,2.0348,2.0732,2.1039,2.1306,2.4974,2.5141,2.5264,0.0,0.0,0.0,0.0,2.485,0.0,2.4425,0.0,2.4373,2.4095,2.4095,2.4191,2.4373,0.0,2.4266,2.4495,2.408,2.3438,2.2596,2.254,2.1642,1.9691,2.0477,2.0714,0.0,2.1572,2.2513,2.3212,0.0,0.0,0.0,0.0,0.0,0.0,2.0854,1.9199,1.82,1.5816,1.4561,1.4132,1.4038,1.3648,1.3198,1.3198,1.2897,1.2592,1.3035,1.2636,1.1981,1.2436,1.2318,1.1993,1.1982,1.1909,1.1884,1.1872,1.1847,1.1811,1.1884,1.2208,1.2591,1.2853,1.2883,1.2901,1.3263,1.2799,1.2278,0.0,0.0,0.0,0.0,0.0,0.0,0.0,0.0,0.0,0.0,0.0,0.0,1.5418,1.4748,1.4694,1.5737,1.5274,1.5257,0.0,0.0,0.0,1.6398,1.6688,0.0,1.6717,0.0,1.6595,1.6595,1.6522,1.6522,1.6522,1.6522,1.6522,1.6522,1.6522,1.6522,1.6522,1.6522,1.6879,1.7544,1.9082,1.9974,2.0483,2.129,2.1658,2.1764,2.4998,2.5034,2.5099,0.0,0.0,2.4551,2.4439,2.464,2.457,2.3923,2.4137,2.4081,2.3441,2.352,2.3689,2.3821,2.3946,0.0,0.0,0.0,0.0,2.2795,2.274,2.1691,1.9417,2.0393,2.0625,2.006,2.1706,2.2747,2.3212,0.0,0.0,0.0,0.0,0.0,2.1448,1.9786,0.0,1.5761,1.4575,1.3596,1.2859,1.3207,1.3301,1.3198,1.3198,1.3135,1.3073,1.3173,1.3101,1.2958,1.3057,1.3012,1.2931,1.2891,1.2625,1.2354,1.2307,1.2031,1.1884,1.2282,1.2742,1.3388,1.4307,1.4829,1.4918,1.4101,1.4526,1.4369,1.2216,0.0,0.0,0.0,0.0,0.0,0.0,0.0,0.0,0.0,0.0,1.6318,0.0,1.5263,1.4986,1.5739,1.5694,1.6061,0.0,0.0,0.0,0.0,1.839,0.0,0.0,0.0,1.7146,1.7146,1.671,1.6522,1.6522,1.6522,1.6522,1.6522,1.6522,1.6522,1.6522,1.6522,1.7076,1.8131,1.9606,2.0483,2.0926,2.143,2.1853,2.218,2.4809,2.4911,2.4979,0.0,0.0,0.0,0.0,2.3914,2.3832,2.3504,2.3694,2.3719,2.3241,2.3293,2.3414,2.3584,2.3584,2.3769,2.421,2.3912,2.351,2.3022,2.2837,2.1794,1.9703,2.0721,2.0841,2.0002,2.1194,2.2159,2.2947,0.0,0.0,2.3419,0.0,2.1584,0.0,0.0,0.0,1.5636,1.4132,1.344,1.336,1.3493,1.3603,1.3657,1.3595,1.3425,1.3198,1.3198,1.321,1.3348,1.3881,1.3833,1.3702,1.4183,1.3817,1.3216,1.3191,1.2859,1.2651,1.3215,1.3509,1.3988,1.5064,1.5279,1.5151,1.4617,1.4947,1.4768,1.3131,1.3227,0.0,0.0,0.0,0.0,0.0,0.0,1.7883,0.0,0.0,0.0,0.0,0.0,0.0,0.0,0.0,1.6609,0.0,0.0,0.0,0.0,0.0,0.0,0.0,0.0,0.0,1.7312,1.6752,1.6522,1.6522,1.6522,1.6522,1.6522,1.6522,1.6522,1.6552,1.7118,1.7787,1.865,2.0112,2.0797,2.1071,2.1735,2.2106,2.231,2.461,2.4601,0.0,0.0,2.4099,0.0,2.3451,2.3234,2.3093,2.3093,2.3216,2.3262,2.3038,2.3014,2.31,2.3316,2.3182,2.3293,2.3792,2.3182,2.2923,2.3189,2.2873,2.1945,2.0365,2.1112,2.1037,2.0118,2.0728,2.154,0.0,0.0,0.0,0.0,0.0,0.0,0.0,0.0,1.5976,1.5685,1.4066,1.3722,1.4259,1.4271,1.4424,1.4585,1.4362,1.4033,1.3712,1.3619,1.3532,1.3643,1.4693,1.4706,1.4536,1.5408,1.5026,1.4271,1.4238,1.3908,1.3684,1.4148,1.4349,1.4664,1.5492,1.5442,1.523,1.5104,1.4962,1.4728,1.4204,1.4328,0.0,0.0,0.0,0.0,0.0,0.0,0.0,0.0,0.0,0.0,1.5766,0.0,0.0,0.0,0.0,1.7114,1.8554,1.8624,0.0,0.0,0.0,1.9259,1.8574,0.0,1.7312,0.0,1.6752,1.6522,1.6522,1.6522,1.6522,1.6522,1.6522,1.6522,1.6595,1.7666,1.8341,1.8878,2.04,2.0991,2.1103,2.1991,2.231,2.231,0.0,0.0,0.0,0.0,0.0,0.0,2.307,2.2877,2.2746,2.2746,2.2754,2.2686,2.2415,2.236,2.249,2.2754,2.2772,2.2898,2.3241,2.3189,2.3165,2.3189,2.2873,2.2314,2.1475,2.1302,2.0975,0.0,2.0814,2.1407,2.2163,0.0,0.0,0.0,0.0,0.0,0.0,1.6396,1.5518,1.4301,1.4076,1.4336,1.4891,1.5351,1.5852,1.6214,1.573,1.5498,1.5388,1.4891,1.4412,1.4197,1.5273,1.5578,1.5638,1.6072,1.5901,1.5498,1.5388,1.5042,1.4726,1.4815,1.5205,1.5567,1.5668,1.6045,1.622,1.5718,1.5196,1.4791,1.4712,1.4283,1.4086,0.0,0.0,0.0,0.0,0.0,1.6987,1.5759,0.0,0.0,0.0,1.5345,0.0,0.0,1.6982,1.7843,1.9323,1.9322,1.9329,1.9401,0.0,1.8896,1.7463,1.7353,0.0,1.7312,1.6752,1.6522,1.6522,1.6522,1.6522,1.6522,1.6522,1.6522,1.6595,1.7666,1.8145,1.8352,2.0268,2.0991,2.1103,2.1991,2.231,2.231,0.0,0.0,0.0,0.0,0.0,0.0,0.0,2.2608,2.2527,2.2669,2.2563,2.2426,2.231,2.231,2.2398,2.2669,2.2563,2.2747,2.3437,2.2958,2.2824,2.3165,2.2704,2.198,2.0952,2.1256,2.0697,0.0,0.0,2.0099,1.9988,2.0225,0.0,0.0,0.0,1.7609,1.6375,1.5708,1.5299,1.5051,1.4713,1.507,1.5879,1.5999,1.6459,1.6903,1.6291,1.5914,1.5673,1.5438,1.5255,1.526,1.6321,1.6364,1.6213,1.7018,1.6217,1.5132,1.5434,1.4955,1.4508,1.5199,1.553,1.5781,1.612,1.6358,1.6358,1.5806,1.5529,1.5241,1.4806,1.4518,1.4283,0.0,0.0,0.0,0.0,0.0,0.0,1.5951,0.0,1.5008,0.0,0.0,0.0,0.0,0.0,1.8129,1.9998,1.9463,1.9343,1.9856,0.0,1.9008,1.7787,1.7463,1.7312,1.7312,1.6752,1.6522,1.6522,1.6522,1.6522,1.6522,1.6522,1.668,1.7034,1.7787,1.8302,1.875,2.0351,2.0991,2.1103,2.1991,2.231,2.231,2.3129,0.0,2.3181,0.0,2.2795,2.2695,2.2695,2.2463,2.236,2.2563,2.2426,2.231,2.231,2.231,2.2398,2.2669,2.2527,2.2695,2.3369,2.2798,2.2607,2.3021,2.2251,0.0,2.086,2.073,1.9883,1.8299,1.8838,1.8882,1.841,0.0,0.0,0.0,1.7317,1.6811,1.622,1.5442,1.5429,1.5881,1.5515,1.5932,1.6771,1.6987,1.7246,1.7477,1.6987,1.6539,1.6164,1.5998,1.5932,1.6084,1.7007,1.6837,1.6479,1.7252,1.6244,1.495,1.5398,1.5024,1.4696,1.5707,1.5932,1.6032,1.6421,1.6522,1.6409,1.6019,1.5932,1.5738,1.5083,1.4835,1.4514,1.3909,0.0,0.0,0.0,0.0,0.0,1.6041,1.5438,1.5095,1.5463,1.5771,0.0,0.0,0.0,0.0,2.0583,1.9809,0.0,0.0,0.0,0.0,0.0,1.7706,1.7626,1.7747,1.7076,1.6752,1.671,1.6552,1.6522,1.6522,1.6522,1.671,1.7105,1.7827,1.8405,1.8999,2.0418,2.1055,2.1291,2.202,2.231,2.231,2.3135,2.2835,2.2721,2.2695,2.2695,2.2695,2.2695,2.2463,2.231,2.231,2.231,2.231,2.231,2.231,2.2398,2.2669,2.2695,2.2695,2.2721,2.2695,2.2695,0.0,0.0,2.0914,2.1586,1.9523,1.8374,1.8299,0.0,0.0,1.7919,0.0,1.8209,1.7135,1.7237,1.6723,1.5706,1.5693,1.6007,1.6502,1.6479,1.6824,1.7422,1.8482,1.8559,1.8092,1.8078,1.772,1.7216,1.6655,1.6509,1.6582,1.7146,1.6899,1.6421,1.6421,1.5997,1.5492,1.5596,1.5608,1.5708,1.6324,1.6509,1.6509,1.6522,1.6522,1.6522,1.6509,1.6509,1.6324,1.572,1.5096,1.4514,1.3909,0.0,0.0,0.0,0.0,0.0,1.5601,1.5012,1.4493,1.4164,1.5702,0.0,0.0,0.0,0.0,0.0,0.0,0.0,1.942,1.9009,0.0,1.8092,1.8106,1.838,1.8855,1.7787,1.7312,1.7271,1.6752,1.6522,1.6522,1.6522,1.6522,1.6595,1.7666,1.8377,1.8927,2.0436,2.1244,2.1658,2.2135,2.231,2.231,2.2598,2.2473,2.2426,2.2426,2.2426,2.2392,2.2307,2.2005,2.1895,2.2119,2.1731,2.1524,2.1794,2.1823,2.2051,0.0,2.2241,2.2252,0.0,2.2361,2.2046,2.2289,2.0675,1.9747,1.9623,1.8235,1.7177,1.6522,0.0,0.0,0.0,1.7152,1.7057,1.6682,1.6747,1.6579,1.6258,1.6258,1.6358,1.6509,1.6477,1.7031,1.7827,1.7827,1.8185,1.8535,1.7827,1.7422,1.7229,1.668,1.6522,1.6466,1.6201,1.6015,1.5928,1.6293,1.5407,1.4527,1.5353,1.532,1.5242,1.625,1.6522,1.6522,1.6522,1.6522,1.6522,1.6522,1.6194,1.5688,1.5096,1.4503,1.3873,1.3286,1.3862,0.0,0.0,0.0,0.0,1.4595,1.4565,1.452,0.0,1.5034,0.0,0.0,0.0,0.0,0.0,0.0,0.0,0.0,1.8702,0.0,1.7544,1.7907,1.8185,1.8341,1.7626,1.7118,1.6752,1.6595,1.6522,1.6522,1.6522,1.6522,1.6595,1.7666,1.8377,1.8927,2.0436,2.1244,2.1658,2.2135,2.231,2.2338,2.2321,2.2388,2.2409,2.2243,2.2226,2.2153,2.191,2.1592,2.1444,2.1652,2.129,2.1103,2.1337,2.1228,0.0,2.219,2.1811,2.184,2.2522,2.1687,2.1151,2.1085,1.9386,1.8268,1.7904,0.0,0.0,1.5501,1.5969,1.6273,1.6522,1.6522,1.6522,1.6522,1.6522,1.6522,1.6522,1.6522,1.6637,1.6837,1.7034,1.7504,1.8106,1.7947,1.8066,1.8224,1.7544,1.7146,1.6909,1.6355,1.6151,1.6051,1.5454,1.5096,1.4994,1.533,1.4653,1.4003,1.5005,1.5141,1.5287,1.625,1.6522,1.6522,1.6522,1.6522,1.6423,1.6194,1.5864,1.5365,1.4514,1.405,1.3589,1.3017,1.361,1.4128,1.4194,0.0,0.0,0.0,0.0,0.0,0.0,1.5397,0.0,0.0,0.0,0.0,0.0,0.0,0.0,1.9465,1.8579,0.0,1.7907,1.8224,1.8496,1.8688,1.7947,1.7188,1.6522,1.6522,1.6522,1.6522,1.6522,1.6595,1.6879,1.7747,1.8579,1.9439,2.0552,2.1354,2.1899,2.218,2.231,2.2321,2.2254,2.2456,0.0,0.0,2.2023,0.0,2.1483,2.1164,2.0959,2.0959,2.0926,2.0926,2.0959,2.055,2.0552,2.1315,0.0,0.0,0.0,2.0812,2.0111,1.9374,1.7699,1.6712,1.6532,1.5351,1.487,1.5223,1.5569,1.6019,1.6522,1.6522,1.6522,1.6522,1.6522,1.6522,1.6522,1.6522,1.6795,1.7353,1.7827,1.8106,1.8224,1.8612,1.8185,1.7353,1.7271,1.6909,1.6423,1.5864,1.5632,1.5499,1.488,1.4283,1.3815,1.3862,1.3815,1.3956,1.4606,1.5186,1.572,1.6337,1.6522,1.6522,1.6522,1.6522,1.6337,1.5776,1.5588,1.5174,1.405,1.3779,1.3552,1.3065,1.3931,1.4687,1.4744,0.0,0.0,0.0,0.0,0.0,0.0,1.6399,1.6245,0.0,0.0,0.0,0.0,0.0,1.9606,1.9606,1.866,1.8419,1.8893,1.893,1.9169,1.9566,1.8535,1.7504,1.6522,1.6522,1.6522,1.6522,1.6552,1.6837,1.7353,1.7907,1.8941,2.0239,2.0797,2.1524,2.231,2.231,2.231,2.231,0.0,0.0,2.1728,2.1336,2.1243,2.1118,2.0651,2.0534,2.0483,2.0483,2.0208,2.0104,2.0416,2.0104,1.9909,2.0108,2.04,2.0749,2.1086,2.0297,1.9523,1.887,1.7406,1.6373,1.5929,1.5225,1.5095,1.5581,1.6065,1.6384,1.6522,1.6522,1.6522,1.6522,1.6522,1.6522,1.6522,1.6522,1.6795,1.7312,1.7422,1.7987,1.865,1.7947,1.7787,1.7787,1.6993,1.6595,1.6466,1.6337,1.5964,1.5499,1.488,1.4283,1.3909,1.4329,1.4143,1.4039,1.5096,1.5499,1.572,1.6337,1.6522,1.6522,1.6522,1.6522,1.6479,1.6337,1.5555,1.4835,1.456,1.3742,1.3238,1.3552,1.419,1.4868,1.5314,1.603,0.0,0.0,1.5949,1.5719,1.5325,1.5636,1.5831,0.0,0.0,0.0,0.0,1.914,1.9666,1.9606,1.9014,1.8765,1.8893,1.9332,1.9169,1.8458,1.7827,1.7146,1.6522,1.6522,1.6522,1.6522,1.6909,1.7188,1.7394,1.8341,1.9302,2.0239,2.0797,2.1524,2.231,2.231,2.231,2.2377,2.1399,2.1337,2.1181,2.0764,2.0682,2.0516,2.0089,2.0035,2.0035,2.0035,1.9854,1.9782,2.0,1.9839,1.9603,1.9369,1.9752,1.9932,1.9697,1.8901,1.8109,1.7383,1.6273,1.5575,1.5335,1.5298,1.5517,1.607,1.6371,1.6522,1.6522,1.6522,1.6522,1.6522,1.6522,1.6522,1.6522,1.6752,1.7188,1.7706,1.7947,1.8535,1.9169,1.8066,1.7867,1.7947,1.6879,1.6522,1.6479,1.6194,1.5864,1.5499,1.488,1.4468,1.4329,1.4915,1.4687,1.4422,1.5365,1.582,1.6095,1.6423,1.6522,1.6522,1.6522,1.6522,1.6423,1.6151,1.5555,1.5017,1.4744,1.3931,1.342,1.3732,1.4527,1.518,1.5532,1.6462,0.0,1.6493,1.6375,1.6153,1.5658,1.5894,1.607,1.607,0.0,0.0,1.8106,1.9132,1.966,1.9666,1.9391,1.9281,1.9281,1.9566,1.9169,1.8106,1.7787,1.7271,1.6522,1.6522,1.6522,1.6522,1.7076,1.7422,1.7747,1.8574,1.957,2.0602,2.0878,2.1524,2.2293,2.2453,2.2473,2.2554,2.0991,2.0894,2.0764,2.028,2.0227,2.0089,1.9747,1.969,1.969,1.969,1.969,1.969,1.969,1.9639,1.9406,1.893,1.9156,1.895,1.8021,1.7383,1.6606,1.5731,1.5165,1.4898,1.5029,1.5542,1.6045,1.6522,1.6522,1.6522,1.6522,1.6522,1.6522,1.6522,1.6522,1.6552,1.6637,1.7118,1.7666,1.8263,1.8727,1.9169,1.9479,1.8496,1.8066,1.7867,1.6879,1.6522,1.6423,1.5908,1.5676,1.5499,1.5017,1.4789,1.4835,1.5531,1.5365,1.505,1.5588,1.6095,1.6522,1.6522,1.6522,1.6522,1.6522,1.6522,1.6337,1.582,1.5676,1.5454,1.4926,1.4329,1.3956,1.405,1.4959,1.568,1.5768,0.0,1.7827,1.7353,1.7229,1.6993,1.6552,1.6522,1.6522,1.6595,1.7544,1.8145,0.0,1.9169,1.969,1.969,1.969,1.969,1.969,1.9603,1.908,1.8106,1.8027,1.7463,1.6522,1.6522,1.6522,1.6522,1.7146,1.7666,1.8145,1.8841,1.9849,2.1007,2.1055,2.1584,2.2321,2.2599,2.2695,2.2772,2.0516,2.0416,2.0296,1.9874,1.9782,1.9782,1.9726,1.969,1.969,1.969,1.969,1.969,1.969,1.9281,1.9006,1.8893,1.8129,1.7604,1.7432,1.6886,1.6327,1.5721,1.5608,1.5547,1.5567,1.6107,1.6434,1.6522,1.6522,1.6522,1.6522,1.6522,1.6522,1.6522,1.6522,1.6752,1.7188,1.7271,1.7867,1.8779,1.8855,1.8968,1.8968,1.8341,1.7827,1.7353,1.671,1.6522,1.6479,1.638,1.6008,1.5588,1.5499,1.5096,1.4926,1.5959,1.6219,1.6176,1.6324,1.6423,1.6522,1.6522,1.6522,1.6522,1.6522,1.6522,1.6466,1.638,1.5952,1.5588,1.5499,1.496,1.4744,1.5231,1.5872,1.6421,1.6954,0.0,1.7394,1.7312,1.6909,1.6595,1.6522,1.6522,1.668,1.7146,1.7747,1.8302,1.8727,1.9369,1.969,1.969,1.969,1.969,1.969,1.9244,1.8688,1.8106,1.7626,1.7118,1.6522,1.6522,1.6522,1.6552,1.7544,1.8027,1.821,1.9534,2.0449,2.1023,2.1368,2.1823,2.2321,2.2599,2.2695,2.2797,2.007,1.9965,1.9909,1.9711,1.969,1.969,1.969,1.969,1.969,1.969,1.969,1.969,1.969,1.9207,1.8674,1.8106,1.7322,1.6617,1.6044,1.5726,1.5507,1.5272,1.5259,1.553,1.612,1.6384,1.6522,1.6522,1.6522,1.6522,1.6522,1.6522,1.6522,1.6522,1.6795,1.6909,1.6909,1.7787,1.8302,1.8496,1.8779,1.8893,1.8817,1.7987,1.7504,1.7229,1.668,1.6522,1.6522,1.6522,1.6337,1.6095,1.6095,1.6071,1.6219,1.6744,1.7107,1.7272,1.698,1.6909,1.6879,1.6552,1.6522,1.6522,1.6522,1.6522,1.6522,1.6522,1.6281,1.6095,1.6095,1.5599,1.5276,1.5543,1.6046,0.0,0.0,1.7092,1.7312,1.7312,1.6837,1.6522,1.6522,1.6752,1.7034,1.7271,1.8066,1.865,1.8893,1.9406,1.969,1.969,1.969,1.969,1.969,1.9442,1.9043,1.8535,1.7987,1.7463,1.6909,1.6637,1.6522,1.6552,1.7626,1.8235,1.8555,1.9798,2.0699,2.1337,2.1521,2.1899,2.2349,2.2789,2.2972,2.3069,1.9747,1.969,1.969,1.969,1.969,1.969,1.969,1.969,1.969,1.969,1.969,1.969,1.969,1.9207,1.8579,1.7759,1.6935,1.6153,1.5351,1.5011,1.4909,1.5079,1.523,1.5655,1.6497,1.6522,1.6522,1.6522,1.6522,1.6522,1.6522,1.6637,1.668,1.671,1.7229,1.7353,1.7105,1.8263,1.8612,1.8496,1.8779,1.8817,1.8612,1.7787,1.7353,1.7076,1.6637,1.6522,1.6522,1.6522,1.6522,1.6522,1.6637,1.6951,1.7353,1.7585,1.8066,1.8341,1.7666,1.7394,1.7146,1.6637,1.6522,1.6522,1.6522,1.6522,1.6522,1.6522,1.6522,1.6522,1.6522,1.6139,1.582,1.582,0.0,0.0,0.0,1.6925,1.7229,1.7105,1.6752,1.6522,1.6522,1.6993,1.7353,1.7463,1.838,1.8968,1.908,1.9479,1.969,1.969,1.969,1.969,1.969,1.969,1.9369,1.8688,1.8302,1.7747,1.7118,1.668,1.6552,1.6752,1.7706,1.8454,1.9053,2.0062,2.0894,2.1628,2.1718,2.1974,2.2377,2.2982,2.3189,2.33,1.9726,1.969,1.969,1.969,1.969,1.969,1.969,1.969,1.969,1.969,1.969,1.969,1.969,1.9207,1.8878,1.8783,1.7372,1.6467,1.6388,1.5453,1.5131,1.5618,1.612,1.6434,1.6522,1.6522,1.6522,1.6522,1.6522,1.6522,1.6522,1.6993,1.7229,1.7271,1.7787,1.8302,1.8688,1.8341,1.8688,1.953,1.908,1.8612,1.8145,1.8066,1.7435,1.6552,1.6522,1.6522,1.6522,1.6522,1.6522,1.6595,1.7076,1.7271,1.7504,1.8496,1.9169,1.9369,1.8341,1.7666,1.7146,1.6637,1.6522,1.6522,1.6522,1.6522,1.6522,1.6522,1.6522,1.6522,1.6522,1.6466,1.6423,1.6423,0.0,0.0,1.6552,1.6951,1.7105,1.6637,1.6522,1.6522,1.6522,1.6993,1.7504,1.7987,1.8574,1.9132,1.9603,1.969,1.969,1.969,1.969,1.969,1.969,1.969,1.9169,1.8185,1.8145,1.7544,1.6552,1.6522,1.6752,1.7271,1.7867,1.866,1.9606,2.0567,2.1213,2.1642,2.2077,2.2282,2.2377,2.2982,2.3189,2.33,1.969,1.969,1.969,1.969,1.969,1.969,1.969,1.969,1.969,1.969,1.969,1.969,1.969,1.9207,1.8622,1.796,1.7027,1.6376,1.6031,1.5613,1.548,1.568,1.622,1.6522,1.6522,1.6522,1.6522,1.6522,1.6522,1.668,1.6993,1.7188,1.7463,1.7827,1.838,1.8535,1.8419,1.8893,1.9132,1.9207,1.8968,1.8779,1.8574,1.8224,1.7867,1.7463,1.7105,1.6993,1.6951,1.6595,1.671,1.7034,1.7229,1.7747,1.838,1.8779,1.9043,1.8968,1.7907,1.7706,1.7585,1.671,1.6522,1.6522,1.6522,1.6522,1.6595,1.6909,1.671,1.6595,1.6909,1.671,1.6522,1.6522,0.0,1.671,1.6522,1.668,1.671,1.6522,1.6522,1.6637,1.6951,1.7463,1.8027,1.8574,1.9095,1.9479,1.969,1.969,1.969,1.969,1.969,1.969,1.969,1.969,1.9479,1.908,1.8419,1.7907,1.7463,1.6795,1.6795,1.7353,1.7867,1.8806,2.0032,2.0699,2.1415,2.2032,2.2237,2.231,2.2377,2.2982,2.3189,2.33,1.969,1.969,1.969,1.969,1.969,1.969,1.969,1.969,1.969,1.969,1.969,1.969,1.969,1.9369,1.8795,1.7866,1.7331,1.6758,1.622,1.6027,1.5957,1.5957,1.6308,1.6522,1.6522,1.6522,1.6522,1.6522,1.668,1.6951,1.7312,1.7626,1.7987,1.838,1.8893,1.8968,1.865,1.9207,1.9332,1.9132,1.8968,1.8893,1.8855,1.8496,1.8263,1.804,1.7731,1.747,1.7256,1.7085,1.7148,1.7353,1.7706,1.8302,1.8893,1.8893,1.8779,1.8458,1.7544,1.7585,1.7626,1.671,1.6637,1.671,1.6552,1.6522,1.6595,1.6951,1.6752,1.6595,1.6993,1.6752,1.6522,1.6522,1.6522,1.6522,1.6522,1.6522,1.6522,1.6522,1.6522,1.6637,1.6993,1.7706,1.8263,1.8612,1.9281,1.969,1.969,1.969,1.969,1.969,1.969,1.969,1.969,1.969,1.9603,1.9442,1.8535,1.8027,1.7827,1.6909,1.6879,1.7585,1.7947,1.8993,2.0471,2.0846,2.1552,2.2426,2.2426,2.2508,2.2651,2.3159,2.3369,2.3437,1.969,1.969,1.969,1.969,1.969,1.969,1.969,1.969,1.969,1.969,1.969,1.969,1.969,1.969,1.9479,1.893,1.8419,1.7867,1.7353,1.6795,1.6522,1.6522,1.6522,1.6522,1.6522,1.6522,1.6522,1.6522,1.7034,1.7312,1.7353,1.8419,1.8893,1.893,1.9442,1.969,1.969,1.9132,1.9207,1.9639,1.9132,1.8893,1.8893,1.8893,1.8574,1.8109,1.8211,1.7827,1.7404,1.8011,1.7813,1.7504,1.8574,1.8893,1.8893,1.8893,1.8496,1.7987,1.7422,1.7312,1.7146,1.6637,1.6909,1.7146,1.6637,1.6522,1.6522,1.6522,1.6522,1.6522,1.6522,1.6522,1.6522,1.6522,1.6522,1.6522,1.6522,1.6522,1.6522,1.6522,1.6522,1.6522,1.6522,1.7463,1.8106,1.8106,1.9095,1.969,1.969,1.969,1.969,1.9711,1.969,1.969,1.9711,1.969,1.9442,1.8893,1.838,1.7827,1.7312,1.6752,1.7076,1.8106,1.8106,1.9229,2.0991,2.0991,2.1681,2.2695,2.2695,2.2898,2.3236,2.3566,2.3692,2.3753,1.969,1.969,1.969,1.969,1.969,1.969,1.969,1.969,1.969,1.969,1.969,1.9566,1.9169,1.9132,1.8765,1.7867,1.7626,1.7312,1.6752,1.6595,1.6522,1.6522,1.6522,1.6522,1.6522,1.6522,1.668,1.7076,1.7229,1.7706,1.8419,1.8727,1.9095,1.9479,1.9639,1.969,1.969,1.953,1.9566,1.969,1.953,1.9442,1.9442,1.9442,1.9664,1.9861,1.9521,1.9262,1.9081,1.8921,1.8413,1.7907,1.8263,1.8341,1.8263,1.7907,1.7666,1.7435,1.6879,1.6993,1.7146,1.6637,1.6637,1.671,1.6552,1.6795,1.7146,1.7544,1.7626,1.7626,1.7626,1.7312,1.6951,1.6552,1.6522,1.6522,1.6522,1.6522,1.6522,1.6522,1.6522,1.6795,1.7544,1.7907,1.8419,1.9169,1.953,1.969,1.969,1.969,1.9854,2.0124,1.9839,1.9854,2.0124,1.9839,1.9603,1.9442,1.893,1.838,1.7867,1.7706,1.7787,1.8145,1.8496,1.9534,2.0991,2.0991,2.1681,2.2695,2.2695,2.2898,2.3236,2.3566,2.3692,2.3753,1.969,1.969,1.969,1.969,1.969,1.969,1.969,1.953,1.9369,1.9369,1.9207,1.893,1.8612,1.8574,1.8263,1.7394,1.7118,1.6837,1.6522,1.6522,1.6522,1.6522,1.6522,1.6522,1.6522,1.6522,1.6752,1.7312,1.7504,1.8066,1.8893,1.9132,1.9406,1.969,1.969,1.969,1.969,1.969,1.969,1.969,1.969,1.969,1.972,1.9989,2.0348,2.0661,2.032,2.0073,1.9792,1.9224,1.8603,1.8106,1.8106,1.7947,1.7706,1.7394,1.7146,1.6909,1.6595,1.6752,1.6909,1.6595,1.668,1.6837,1.6837,1.7076,1.7529,1.8329,1.8505,1.8574,1.8823,1.822,1.7613,1.7243,1.682,1.6522,1.6522,1.6522,1.6595,1.6795,1.6837,1.7146,1.8027,1.8302,1.8765,1.9639,1.969,1.969,1.969,1.969,1.9803,2.0054,1.9965,1.9965,2.0054,1.9965,1.9874,1.969,1.893,1.8535,1.8419,1.7987,1.785,1.8054,1.8355,1.9131,2.0175,2.0463,2.1154,2.2059,2.2653,2.2988,2.3174,2.3707,2.3896,2.3917,1.969,1.969,1.969,1.969,1.969,1.969,1.9639,1.9207,1.8893,1.8817,1.8419,1.8066,1.8027,1.8027,1.7827,1.7271,1.6795,1.6522,1.6522,1.6522,1.6522,1.6522,1.6552,1.6552,1.6552,1.6552,1.6879,1.7422,1.7947,1.8458,1.8968,1.9479,1.969,1.969,1.9639,1.9639,1.969,1.9639,1.9639,1.9726,1.975,1.9779,1.9854,2.0543,2.0797,2.0795,2.0796,2.039,1.9778,1.9031,1.844,1.8027,1.7987,1.7626,1.7229,1.7229,1.6879,1.6522,1.6522,1.6522,1.6522,1.6522,1.6879,1.7229,1.7312,1.7353,1.7718,1.892,1.921,1.9446,2.0047,1.9176,1.8385,1.8299,1.7282,1.6522,1.6522,1.6552,1.6752,1.7229,1.7353,1.7585,1.8145,1.865,1.9169,1.9639,1.969,1.969,1.969,1.969,1.9726,1.9747,2.0089,2.0124,1.9747,2.0124,2.0089,1.969,1.8688,1.843,1.8769,1.7865,1.7575,1.7799,1.787,1.8293,1.8956,1.9613,2.0307,2.105,2.2539,2.3067,2.3107,2.3896,2.419,2.419,1.969,1.969,1.969,1.969,1.969,1.9566,1.9132,1.8968,1.8727,1.8341,1.8185,1.7947,1.7504,1.7463,1.7271,1.671,1.6552,1.6522,1.6522,1.6522,1.6522,1.6522,1.6909,1.7105,1.7105,1.7105,1.7585,1.8535,1.865,1.9006,1.953,1.9639,1.969,1.969,1.9244,1.9332,1.969,1.9244,1.9332,1.9735,2.0273,2.0483,2.0572,2.1231,2.1485,2.15,2.1461,2.0797,1.9681,1.8153,1.7569,1.7394,1.6993,1.6752,1.668,1.668,1.6595,1.6522,1.6522,1.6522,1.6522,1.6522,1.6595,1.6795,1.7188,1.7626,1.8285,1.949,2.0084,2.0445,2.0707,1.9726,1.8795,1.8385,1.7282,1.6522,1.6522,1.6879,1.7146,1.7312,1.7666,1.8145,1.865,1.9207,1.9566,1.969,1.969,1.969,1.969,1.969,1.9839,2.0158,2.0246,2.0246,2.0193,2.0246,2.0089,1.969,1.9442,1.8907,1.8122,1.8303,1.7919,1.7139,1.7577,1.8189,1.8924,1.9084,1.9822,2.0997,2.1954,2.2602,2.3107,2.3896,2.419,2.419,1.969,1.969,1.9603,1.9369,1.9332,1.9132,1.8612,1.8302,1.7956,1.7407,1.7343,1.7124,1.6576,1.6754,1.6795,1.6522,1.6522,1.6522,1.6522,1.6522,1.6522,1.6522,1.6993,1.7435,1.7666,1.7947,1.8341,1.8893,1.8893,1.9169,1.969,1.969,1.969,1.969,1.9406,1.9442,1.969,1.9406,1.9442,1.972,2.0079,2.0423,2.0752,2.1096,2.1425,2.1665,2.1335,2.0289,1.8869,1.7692,1.7105,1.6879,1.6595,1.6522,1.6522,1.6522,1.6522,1.6522,1.6522,1.6522,1.6552,1.6837,1.6879,1.7099,1.7975,1.8371,1.9081,2.0878,2.1475,2.1579,2.1422,2.0585,1.9594,1.8465,1.7527,1.6923,1.6876,1.7105,1.7504,1.7987,1.8302,1.8688,1.9244,1.953,1.969,1.969,1.969,1.969,1.969,1.969,1.9782,2.0,2.0177,2.0227,2.0035,2.0212,2.0089,1.969,1.9442,1.8943,1.8291,1.8326,1.7763,1.6804,1.7092,1.7395,1.7697,1.8227,1.8792,1.9486,2.0828,2.1612,2.2108,2.2903,2.3529,2.3958,1.9566,1.9639,1.953,1.9006,1.8893,1.8688,1.8066,1.7585,1.71,1.6586,1.6514,1.6346,1.5881,1.6245,1.6522,1.6522,1.6522,1.6522,1.6522,1.6522,1.6552,1.6637,1.7146,1.7706,1.8224,1.865,1.893,1.9043,1.9043,1.9244,1.969,1.969,1.969,1.969,1.9603,1.9603,1.969,1.9603,1.9603,1.969,1.9809,2.0273,2.0887,2.0887,2.1216,2.1605,2.0831,1.9454,1.7867,1.7353,1.6879,1.6522,1.6522,1.6522,1.6522,1.6522,1.6522,1.6522,1.6522,1.6552,1.6752,1.7188,1.7394,1.7746,1.8947,1.9265,1.9875,2.207,2.2607,2.2572,2.2134,2.1419,2.0347,1.8705,1.7849,1.7384,1.7321,1.7394,1.7787,1.8779,1.8968,1.9207,1.9639,1.969,1.969,1.969,1.969,1.969,1.969,1.969,1.969,1.969,2.0089,2.0089,1.9711,2.0089,2.0089,1.969,1.9244,1.8848,1.8504,1.808,1.7393,1.6547,1.6547,1.6455,1.6359,1.7316,1.7716,1.7873,1.9648,2.0495,2.082,2.1763,2.2732,2.361,1.9095,1.9369,1.953,1.9006,1.8893,1.8574,1.7544,1.7353,1.712,1.6579,1.6514,1.6497,1.6409,1.6471,1.6522,1.6522,1.6522,1.6522,1.6522,1.6522,1.671,1.7146,1.7706,1.8263,1.8779,1.8855,1.9132,1.9603,1.9603,1.9639,1.969,1.969,1.969,1.969,1.9207,1.9281,1.969,1.9207,1.9281,1.9735,2.0333,2.0976,2.156,2.156,2.162,2.1565,2.041,1.8887,1.7353,1.6795,1.6552,1.6522,1.6522,1.6522,1.6522,1.6522,1.6522,1.6522,1.6522,1.6837,1.7188,1.7271,1.7666,1.8311,1.9515,1.9792,2.0168,2.1545,2.2278,2.2664,2.2613,2.1657,2.0484,1.9194,1.8106,1.7384,1.7321,1.7706,1.8224,1.8817,1.9332,1.9603,1.969,1.969,1.969,1.969,1.969,1.969,1.969,1.969,1.969,1.969,2.0089,2.0089,1.9711,2.0089,2.0089,1.969,1.9639,1.8962,1.7817,1.7751,1.7068,1.5933,1.5933,1.6074,1.6328,1.6755,1.7265,1.7822,1.9065,1.971,2.0114,2.1568,2.2597,2.3259,1.8893,1.9095,1.9169,1.893,1.865,1.8185,1.7435,1.7034,1.6638,1.6137,1.6321,1.6409,1.6095,1.6333,1.6637,1.6909,1.6951,1.6951,1.6951,1.6951,1.7034,1.7312,1.7827,1.8224,1.8458,1.8727,1.8855,1.8817,1.9132,1.9244,1.9244,1.9566,1.969,1.969,1.9442,1.9479,1.969,1.9442,1.9479,1.972,2.0019,2.0543,2.1111,2.0722,2.0644,2.0513,1.8985,1.7936,1.7229,1.668,1.6522,1.6522,1.6522,1.6522,1.6522,1.6522,1.6522,1.6552,1.6879,1.7105,1.7422,1.8027,1.838,1.886,2.0055,2.0855,2.1482,2.2139,2.2975,2.3179,2.1526,2.1083,2.0202,1.8026,1.7777,1.7839,1.7747,1.8224,1.8727,1.9281,1.9566,1.969,1.969,1.969,1.969,1.969,1.969,1.969,1.969,1.969,1.969,1.969,1.9874,1.9874,1.969,1.9874,1.9874,1.969,1.9406,1.8691,1.7697,1.7697,1.7012,1.5799,1.5799,1.587,1.6067,1.6367,1.6799,1.7272,1.796,1.8927,2.0102,2.1658,2.2528,2.2923]},{"header":{"parameterUnit":"m.s-1","parameterCategory":1,"la1":30.6,"la2":28.766,"lo1":-90.7593,"lo2":-88.6598,"dx":0.0162,"dy":0.0183,"nx":116,"ny":114,"refTime":"2023-01-31T06:00:00:Z","depth":0,"parameterNumber":3,"parameterNumberName":"V-component_of_WINDS"},"data":[0.0,0.0,0.0,0.0,0.0,0.0,0.0,0.0,0.0,0.0,0.0,0.0,0.0,0.0,0.0,0.0,0.0,0.0,0.0,0.0,0.0,0.0,0.0,0.0,0.0,0.0,0.0,0.0,0.0,0.0,0.0,0.0,0.0,0.0,0.0,0.0,0.0,0.0,0.0,0.0,0.0,0.0,0.0,0.0,0.0,0.0,0.0,0.0,0.0,0.0,0.0,0.0,0.0,0.0,0.0,0.0,0.0,0.0,0.0,0.0,0.0,0.0,0.0,0.0,0.0,0.0,0.0,0.0,0.0,0.0,0.0,0.0,0.0,0.0,0.0,0.0,0.0,0.0,0.0,0.0,0.0,0.0,0.0,0.0,0.0,0.0,0.0,0.0,0.0,0.0,0.0,0.0,0.0,0.0,0.0,0.0,0.0,0.0,0.0,0.0,0.0,0.0,0.0,0.0,0.0,0.0,0.0,0.0,0.0,0.0,0.0,0.0,0.0,0.0,0.0,0.0,0.0,0.0,0.0,0.0,0.0,0.0,0.0,0.0,0.0,0.0,0.0,0.0,0.0,0.0,0.0,0.0,0.0,0.0,0.0,0.0,0.0,0.0,0.0,0.0,0.0,0.0,0.0,0.0,0.0,0.0,0.0,0.0,0.0,0.0,0.0,0.0,0.0,0.0,0.0,0.0,0.0,0.0,0.0,0.0,0.0,0.0,0.0,0.0,0.0,0.0,0.0,0.0,0.0,0.0,0.0,0.0,0.0,0.0,0.0,0.0,0.0,0.0,0.0,0.0,0.0,0.0,0.0,0.0,0.0,0.0,0.0,0.0,0.0,0.0,0.0,0.0,0.0,0.0,0.0,0.0,0.0,0.0,0.0,0.0,0.0,0.0,0.0,0.0,0.0,0.0,0.0,0.0,0.0,0.0,0.0,0.0,0.0,0.0,0.0,0.0,0.0,0.0,0.0,0.0,0.0,0.0,0.0,0.0,0.0,0.0,0.0,0.0,0.0,0.0,0.0,0.0,0.0,0.0,0.0,0.0,0.0,0.0,0.0,0.0,0.0,0.0,0.0,0.0,0.0,0.0,0.0,0.0,0.0,0.0,0.0,0.0,0.0,0.0,0.0,0.0,0.0,0.0,0.0,0.0,0.0,0.0,0.0,0.0,0.0,0.0,0.0,0.0,0.0,0.0,0.0,0.0,0.0,0.0,0.0,0.0,0.0,0.0,0.0,0.0,0.0,0.0,0.0,0.0,0.0,0.0,0.0,0.0,0.0,0.0,0.0,0.0,0.0,0.0,0.0,0.0,0.0,0.0,0.0,0.0,0.0,0.0,0.0,0.0,0.0,0.0,0.0,0.0,0.0,0.0,0.0,0.0,0.0,0.0,0.0,0.0,0.0,0.0,0.0,0.0,0.0,0.0,0.0,0.0,0.0,0.0,0.0,0.0,0.0,0.0,0.0,0.0,0.0,0.0,0.0,0.0,0.0,0.0,0.0,0.0,0.0,0.0,0.0,0.0,0.0,0.0,0.0,0.0,0.0,0.0,0.0,0.0,0.0,0.0,0.0,0.0,0.0,0.0,0.0,0.0,0.0,0.0,0.0,0.0,0.0,0.0,0.0,0.0,0.0,0.0,0.0,0.0,0.0,0.0,0.0,0.0,0.0,0.0,0.0,0.0,0.0,0.0,0.0,0.0,0.0,0.0,0.0,0.0,0.0,0.0,0.0,0.0,0.0,0.0,0.0,0.0,0.0,0.0,0.0,0.0,0.0,0.0,0.0,0.0,0.0,0.0,0.0,0.0,0.0,0.0,0.0,0.0,0.0,0.0,0.0,0.0,0.0,0.0,0.0,0.0,0.0,0.0,0.0,0.0,0.0,0.0,0.0,0.0,0.0,0.0,0.0,0.0,0.0,0.0,0.0,0.0,0.0,0.0,0.0,0.0,0.0,0.0,0.0,0.0,0.0,0.0,0.0,0.0,0.0,0.0,0.0,0.0,0.0,0.0,0.0,0.0,0.0,0.0,0.0,0.0,0.0,0.0,0.0,0.0,0.0,0.0,0.0,0.0,0.0,0.0,0.0,0.0,0.0,0.0,0.0,0.0,0.0,0.0,0.0,0.0,0.0,0.0,0.0,0.0,0.0,0.0,0.0,0.0,0.0,0.0,0.0,0.0,0.0,0.0,0.0,0.0,0.0,0.0,0.0,0.0,0.0,0.0,0.0,0.0,0.0,0.0,0.0,0.0,0.0,0.0,0.0,0.0,0.0,0.0,0.0,0.0,0.0,0.0,0.0,0.0,0.0,0.0,0.0,0.0,0.0,0.0,0.0,0.0,0.0,0.0,0.0,0.0,0.0,0.0,0.0,0.0,0.0,0.0,0.0,0.0,0.0,0.0,0.0,0.0,0.0,0.0,0.0,0.0,0.0,0.0,0.0,0.0,0.0,0.0,0.0,0.0,0.0,0.0,0.0,0.0,0.0,0.0,0.0,0.0,0.0,0.0,0.0,0.0,0.0,0.0,0.0,0.0,0.0,0.0,0.0,0.0,0.0,0.0,0.0,0.0,0.0,0.0,0.0,0.0,0.0,0.0,0.0,0.0,0.0,0.0,0.0,0.0,0.0,0.0,0.0,0.0,0.0,0.0,0.0,0.0,0.0,0.0,0.0,0.0,0.0,0.0,0.0,0.0,0.0,0.0,0.0,0.0,0.0,0.0,0.0,0.0,0.0,0.0,0.0,0.0,0.0,0.0,0.0,0.0,0.0,0.0,0.0,0.0,0.0,0.0,0.0,0.0,0.0,0.0,0.0,0.0,0.0,0.0,0.0,0.0,0.0,0.0,0.0,0.0,0.0,0.0,0.0,0.0,0.0,0.0,0.0,0.0,0.0,0.0,0.0,0.0,0.0,0.0,0.0,0.0,0.0,0.0,0.0,0.0,0.0,0.0,0.0,0.0,0.0,0.0,0.0,0.0,0.0,0.0,0.0,0.0,0.0,0.0,0.0,0.0,0.0,0.0,0.0,0.0,0.0,0.0,0.0,0.0,0.0,0.0,0.0,0.0,0.0,0.0,0.0,0.0,0.0,0.0,0.0,0.0,0.0,0.0,0.0,0.0,0.0,0.0,0.0,0.0,0.0,0.0,0.0,0.0,0.0,0.0,0.0,0.0,0.0,0.0,0.0,0.0,0.0,0.0,0.0,0.0,0.0,0.0,0.0,0.0,0.0,0.0,0.0,0.0,0.0,0.0,0.0,0.0,0.0,0.0,0.0,0.0,0.0,0.0,0.0,0.0,0.0,0.0,0.0,0.0,0.0,0.0,0.0,0.0,0.0,0.0,0.0,0.0,0.0,0.0,0.0,0.0,0.0,0.0,0.0,0.0,0.0,0.0,0.0,0.0,0.0,0.0,0.0,0.0,0.0,0.0,0.0,0.0,0.0,0.0,0.0,0.0,0.0,0.0,0.0,0.0,0.0,0.0,0.0,0.0,0.0,0.0,0.0,0.0,0.0,0.0,0.0,0.0,0.0,0.0,0.0,0.0,0.0,0.0,0.0,0.0,0.0,0.0,0.0,0.0,0.0,0.0,0.0,0.0,0.0,0.0,0.0,0.0,0.0,0.0,0.0,0.0,0.0,0.0,0.0,0.0,0.0,0.0,0.0,0.0,0.0,0.0,0.0,0.0,0.0,0.0,0.0,0.0,0.0,0.0,0.0,0.0,0.0,0.0,0.0,0.0,0.0,0.0,0.0,0.0,0.0,0.0,0.0,0.0,0.0,0.0,0.0,0.0,0.0,0.0,0.0,0.0,0.0,0.0,0.0,0.0,0.0,0.0,0.0,0.0,0.0,0.0,0.0,0.0,0.0,0.0,0.0,0.0,0.0,0.0,0.0,0.0,0.0,0.0,0.0,0.0,0.0,0.0,0.0,0.0,0.0,0.0,0.0,0.0,0.0,0.0,0.0,0.0,0.0,0.0,0.0,0.0,0.0,0.0,0.0,0.0,0.0,0.0,0.0,0.0,0.0,0.0,0.0,0.0,0.0,0.0,0.0,0.0,0.0,0.0,0.0,0.0,0.0,0.0,0.0,0.0,0.0,0.0,0.0,0.0,0.0,0.0,0.0,0.0,0.0,0.0,0.0,0.0,0.0,0.0,0.0,0.0,0.0,0.0,0.0,0.0,0.0,0.0,0.0,0.0,0.0,0.0,0.0,0.0,0.0,0.0,0.0,0.0,0.0,0.0,0.0,0.0,0.0,0.0,0.0,0.0,0.0,0.0,0.0,0.0,0.0,0.0,0.0,0.0,0.0,0.0,0.0,0.0,0.0,0.0,0.0,0.0,0.0,0.0,0.0,0.0,0.0,0.0,0.0,0.0,0.0,0.0,0.0,0.0,0.0,0.0,0.0,0.0,0.0,0.0,0.0,0.0,0.0,0.0,0.0,0.0,0.0,0.0,0.0,0.0,0.0,0.0,0.0,0.0,0.0,0.0,0.0,0.0,0.0,0.0,0.0,0.0,0.0,0.0,0.0,0.0,0.0,0.0,0.0,0.0,0.0,0.0,0.0,0.0,0.0,0.0,0.0,0.0,0.0,0.0,0.0,0.0,0.0,0.0,0.0,0.0,0.0,0.0,0.0,0.0,0.0,0.0,0.0,0.0,0.0,0.0,0.0,0.0,0.0,0.0,0.0,0.0,0.0,0.0,0.0,0.0,0.0,0.0,0.0,0.0,0.0,0.0,0.0,0.0,0.0,0.0,0.0,0.0,0.0,0.0,0.0,0.0,0.0,0.0,0.0,0.0,0.0,0.0,0.0,0.0,0.0,0.0,0.0,0.0,0.0,0.0,0.0,0.0,0.0,0.0,0.0,0.0,0.0,0.0,0.0,0.0,0.0,0.0,0.0,0.0,0.0,0.0,0.0,0.0,0.0,0.0,0.0,0.0,0.0,0.0,0.0,0.0,0.0,0.0,0.0,0.0,0.0,0.0,0.0,0.0,0.0,0.0,0.0,0.0,0.0,0.0,0.0,0.0,0.0,0.0,0.0,0.0,0.0,0.0,0.0,0.0,0.0,0.0,0.0,0.0,0.0,0.0,0.0,0.0,0.0,0.0,0.0,0.0,0.0,0.0,0.0,0.0,0.0,0.0,0.0,0.0,0.0,0.0,0.0,0.0,0.0,0.0,0.0,0.0,0.0,0.0,0.0,0.0,0.0,0.0,0.0,0.0,0.0,0.0,0.0,0.0,0.0,0.0,0.0,0.0,0.0,0.0,0.0,0.0,0.0,0.0,0.0,0.0,0.0,0.0,0.0,0.0,0.0,0.0,0.0,0.0,0.0,0.0,0.0,0.0,0.0,0.0,0.0,0.0,0.0,0.0,0.0,0.0,0.0,0.0,0.0,0.0,0.0,0.0,0.0,0.0,0.0,0.0,0.0,0.0,0.0,0.0,0.0,0.0,0.0,0.0,0.0,0.0,0.0,0.0,0.0,0.0,0.0,0.0,0.0,0.0,0.0,0.0,0.0,0.0,0.0,0.0,0.0,0.0,0.0,0.0,0.0,0.0,0.0,0.0,0.0,0.0,0.0,0.0,0.0,0.0,0.0,0.0,0.0,0.0,0.0,0.0,0.0,0.0,0.0,0.0,0.0,0.0,0.0,0.0,0.0,0.0,0.0,0.0,0.0,0.0,0.0,0.0,0.0,0.0,0.0,0.0,0.0,0.0,0.0,0.0,0.0,0.0,0.0,0.0,0.0,0.0,0.0,0.0,0.0,0.0,0.0,0.0,0.0,0.0,0.0,0.0,0.0,0.0,0.0,0.0,0.0,0.0,0.0,0.0,0.0,0.0,0.0,0.0,0.0,0.0,0.0,0.0,0.0,0.0,0.0,0.0,0.0,0.0,0.0,0.0,0.0,0.0,0.0,0.0,0.0,0.0,0.0,0.0,0.0,0.0,0.0,0.0,0.0,0.0,0.0,0.0,0.0,0.0,0.0,0.0,0.0,0.0,0.0,0.0,0.0,0.0,0.0,0.0,0.0,0.0,0.0,0.0,0.0,0.0,0.0,0.0,0.0,0.0,0.0,0.0,0.0,0.0,0.0,0.0,0.0,0.0,0.4552,0.0,0.0,0.0,0.0,0.0,0.0,0.0,0.0,0.0,0.0,0.0,0.0,0.0,0.0,0.0,0.0,0.0,0.0,0.0,0.0,0.0,0.0,0.0,0.0,0.0,0.0,0.0,0.0,0.0,0.0,0.0,0.0,0.0,0.0,0.0,0.0,0.0,0.0,0.0,0.0,0.0,0.0,0.0,0.0,0.0,0.0,0.0,0.0,0.0,0.0,0.0,0.0,0.0,0.0,0.0,0.0,0.0,0.0,0.0,0.0,0.0,0.0,0.0,0.0,0.0,0.0,0.0,0.0,0.0,0.0,0.0,0.0,0.0,0.0,0.0,0.0,0.0,0.0,0.0,0.0,0.0,0.0,0.0,0.0,0.0,0.0,0.0,0.0,0.0,0.0,0.0,0.0,0.0,0.0,0.0,0.0,0.0,0.0,0.0,0.0,0.0,0.0,0.0,0.0,0.0,0.0,0.0,0.0,0.0,0.0,0.0,0.0,0.0,0.0,0.0,0.0,0.5327,0.0,0.0,0.0,0.0,0.0,0.0,0.0,0.0,0.0,0.0,0.0,0.0,0.0,0.0,0.0,0.0,0.0,0.0,0.0,0.0,0.0,0.0,0.0,0.0,0.0,0.0,0.0,0.0,0.0,0.0,0.0,0.0,0.0,0.0,0.0,0.0,0.0,0.0,0.0,0.0,0.0,0.0,0.0,0.0,0.0,0.0,0.0,0.0,0.0,0.0,0.0,0.0,0.0,0.0,0.0,0.0,0.0,0.0,0.0,0.0,0.0,0.0,0.0,0.0,0.0,0.0,0.0,0.0,0.0,0.0,0.0,0.0,0.0,0.0,0.0,0.0,0.0,0.0,0.0,0.0,0.0,0.0,0.0,0.0,0.0,0.0,0.0,0.0,0.0,0.0,0.0,0.0,0.0,0.0,0.0,0.0,0.0,0.0,0.0,0.0,0.0,0.0,0.0,0.0,0.0,0.0,0.0,0.0,0.123,0.2452,0.4252,0.5032,0.5617,0.6021,0.6231,0.6344,0.6311,0.6253,0.0,0.0,0.0,0.0,0.0,0.0,0.0,0.0,0.0,0.0,0.0,0.0,0.0,0.0,0.0,0.0,0.0,0.0,0.0,0.0,0.0,0.0,0.0,0.0,0.0,0.0,0.0,0.0,0.0,0.0,0.0,0.0,0.0,0.0,0.0,0.0,0.0,0.0,0.0,0.0,0.0,0.0146,0.0,0.0,0.0,0.0,0.0,0.0,0.0,0.0,0.0,0.0,0.0,0.0,0.0,0.0,0.0,0.0,0.0,0.0,0.0,0.0,0.0,0.0,0.0,0.0,0.0,0.0,0.0,0.0,0.0,0.0,0.0,0.0,0.0,0.0,0.0,0.0,0.0,0.0,0.0,0.0,0.0,0.0,0.0,0.0,0.4237,0.4114,0.0,0.0,0.0,0.0,0.0,0.0,0.0,0.0,0.0,0.0,0.0,0.0,0.0,0.3149,0.3341,0.246,0.2259,0.2673,0.2502,0.3344,0.5067,0.5529,0.5989,0.6427,0.6445,0.0,0.6431,0.6098,0.0,0.0,0.0,0.0,0.0,0.0,0.0,0.0,0.0,0.0,0.0,0.0,0.0,0.0,0.0,0.0,0.0,0.0,0.0,0.0,0.0,0.0,0.0,0.0,0.0,0.0,0.0,0.0,0.0,0.0,0.0,0.0,0.0,0.0,0.0,0.0,-0.1484,0.0,0.0,0.0,0.0,0.0164,0.4464,0.5085,0.3066,0.3394,0.0,0.0,0.0,0.0,0.0,0.0,0.0,0.0,0.0,0.0,0.0,0.0,0.0,0.0,0.0,0.0,0.0,0.0,0.0,0.0,0.0,0.0,0.0,0.0,0.0,0.0,0.0,0.0,0.0,0.0,0.0,0.0,0.0,0.0,0.0,0.0,0.0,0.0,0.0,0.4227,0.4492,0.426,0.4487,0.4652,0.0,0.0,0.0,0.0,0.0,0.0,0.0,0.0,0.0,0.3095,0.3126,0.3085,0.2961,0.2184,0.2652,0.4341,0.3859,0.435,0.5719,0.6029,0.6425,0.6811,0.6601,0.6617,0.6777,0.616,0.6238,0.6734,0.0,0.0,0.0,0.0,0.5424,0.5582,0.0,0.0,0.0,0.0,0.0,0.0,0.0,0.0,0.0,0.0,0.0,0.0,0.0,0.0,0.0,0.0,0.0,0.0,0.0,0.0,0.0,0.0,0.0,0.0,0.0,0.0,0.0,0.0,-0.1508,0.0,0.0,0.0,0.0,0.0178,0.3708,0.5471,0.5867,0.6033,0.5698,0.0,0.0,0.0,0.0,0.0,0.0,0.0,0.0,0.0,0.0,0.0,0.0,0.0,0.0,0.0,0.0,0.0,0.0,0.0,0.0,0.0,0.0,0.0,0.0,0.0,0.0,0.0,0.0,0.0,0.0,0.0,0.0,0.0,0.0,0.0,0.0,0.0,0.0,0.4262,0.4587,0.4477,0.4374,0.4563,0.0,0.0,0.0,0.0,0.0,0.0,0.3583,0.3534,0.3371,0.3166,0.3232,0.3142,0.2845,0.232,0.2999,0.4923,0.4851,0.5319,0.622,0.6645,0.7103,0.755,0.7021,0.6935,0.7164,0.6269,0.6068,0.6366,0.6457,0.6045,0.5425,0.5845,0.5939,0.5897,0.0,0.0,0.0,0.0,0.0,0.0,0.0,0.0,0.0,0.0,0.0,0.0,0.0,0.0,0.0,0.0,0.0,0.0,0.0,0.0,0.0,0.0,0.0,0.0,0.0,0.0,0.0,-0.4465,-0.1511,0.0,0.0,0.0,0.0,0.0,0.029,0.2821,0.6987,0.5858,0.5399,0.531,0.0,0.0,0.0,0.0,0.0,0.0,0.0,0.0,0.0,0.0,0.0,0.0,0.0,0.0,0.0,0.0,0.0,0.0,0.0,0.0,0.0,0.0,0.0,0.0,0.0,0.0,0.0,0.0,0.0,0.0,0.0,0.0,0.0,0.0,0.0,0.0,0.0,0.0,0.0,0.4595,0.4374,0.0,0.0,0.0,0.0,0.3615,0.3619,0.3594,0.3618,0.3309,0.3195,0.3285,0.3289,0.3288,0.3271,0.2854,0.3074,0.3885,0.5335,0.6178,0.6515,0.7343,0.8155,0.8868,0.793,0.7544,0.7495,0.637,0.5913,0.5975,0.6366,0.6244,0.5913,0.6328,0.6466,0.6452,0.0,0.0,0.0,0.0,0.0,0.0,0.0,0.0,0.0,0.0,0.0,0.0,0.0,0.0,0.0,0.0,0.0,0.0,0.0,0.0,0.0,0.0,0.0,0.0,0.0,0.0,-0.2464,-0.1575,-0.0552,0.0,0.0,0.0,0.0,0.0,0.0,0.098,0.2734,0.5355,0.6035,0.5346,0.5088,0.477,0.0,0.0,0.0,0.0,0.0,0.0,0.0,0.0,0.0,0.0,0.0,0.0,0.0,0.0,0.0,0.0,0.0,0.0,0.0,0.0,0.0,0.0,0.0,0.0,0.0,0.0,0.0,0.0,0.0,0.0,0.0,0.0,0.0,0.0,0.0,0.0,0.0,0.4481,0.4061,0.0,0.3863,0.3713,0.3614,0.3622,0.3619,0.3584,0.361,0.3479,0.3454,0.3479,0.3493,0.3701,0.4195,0.3668,0.4159,0.5689,0.6129,0.6698,0.7369,0.8205,0.8723,0.897,0.8376,0.8123,0.807,0.7382,0.6927,0.6681,0.7433,0.7466,0.7172,0.7466,0.7433,0.7131,0.0,0.0,0.0,0.0,0.0,0.0,0.0,0.0,0.0,0.0,0.0,0.0,0.0,0.0,0.0,0.0,0.0,0.0,0.0,0.0,0.0,0.0,0.0,0.0,0.0,-0.1929,-0.1978,0.0,0.0,0.0,0.0,0.0,0.0,0.0,0.0,0.0,0.0197,0.3386,0.5215,0.5878,0.4735,0.4404,0.4373,0.0,0.0,0.0,0.0,0.0,0.0,0.0,0.0,0.0,0.0,0.0,0.0,0.0,0.0,0.0,0.0,0.0,0.0,0.0,0.0,0.0,0.0,0.0,0.0,0.0,0.0,0.0,0.0,0.0,0.0,0.0,0.0,0.0,0.0,0.0,0.4706,0.4925,0.4252,0.3791,0.3848,0.3676,0.3628,0.3678,0.3726,0.3759,0.3803,0.3759,0.3714,0.3721,0.3674,0.4014,0.4696,0.4536,0.5176,0.6628,0.697,0.7509,0.8228,0.891,0.9297,0.9398,0.8957,0.8776,0.8739,0.8483,0.8171,0.7879,0.8042,0.7956,0.7744,0.7886,0.7665,0.7217,0.0,0.0,0.0,0.0,0.0,0.0,0.0,0.0,0.0,0.0,0.0,0.0,0.0,0.0,0.0,0.0,0.0,0.0,0.0,0.0,0.0,0.0,0.0,0.0,-0.0,0.0,0.0,0.0,0.0,0.0,0.0,0.0,0.0,0.0,0.0,0.0,0.0,0.0,0.269,0.6652,0.3882,0.3358,0.44,0.0,0.0,0.0,0.0,0.0,0.0,0.0,0.0,0.0,0.0,0.0,0.0,0.0,0.0,0.0,0.0,0.0,0.0,0.0,0.0,0.0,0.0,0.0,0.0,0.0,0.0,0.0,0.0,0.0,0.0,0.0,0.0,0.0,0.5764,0.537,0.5321,0.5876,0.4859,0.4282,0.4824,0.412,0.3713,0.3906,0.3969,0.4072,0.4175,0.4072,0.3973,0.3883,0.3832,0.408,0.4739,0.5392,0.5988,0.6579,0.7823,0.8629,0.9069,0.9456,0.992,1.0322,0.9795,0.9558,0.9558,0.9518,0.9518,0.9397,0.8166,0.7671,0.7671,0.7512,0.7165,0.6766,0.0,0.0,0.0,0.0,0.0,0.0,0.0,0.0,0.0,0.0,0.0,0.0,0.0,0.0,0.0,0.0,0.0,0.0,0.0,0.0,0.0,0.0,0.0,0.0,-0.0089,0.0,0.0,0.0,0.0,0.0,0.0,0.0,0.0,0.0,0.0,0.0,0.0,0.0,0.0783,0.2055,0.2953,0.2507,0.1483,0.0,0.0,0.0,0.0,0.0,0.0,0.0,0.0,0.0,0.0,0.0,0.0,0.0,0.0,0.0,0.0,0.0,0.0,0.0,0.0,0.0,0.0,0.0,0.0,0.0,0.0,0.0,0.0,0.0,0.0,0.0,0.0,0.5462,0.5045,0.54,0.5605,0.5233,0.4525,0.4073,0.4257,0.4028,0.3922,0.3966,0.3969,0.4019,0.4072,0.3976,0.3933,0.3883,0.3334,0.3784,0.5474,0.5712,0.6612,0.8173,0.8619,0.9249,1.0026,1.0426,1.0903,1.1367,1.0829,1.0591,1.0562,1.0225,1.0079,1.006,0.9706,0.9545,0.9469,0.8681,0.7742,0.6854,0.0,0.0,0.0,0.0,0.0,0.0,0.0,0.0,0.0,0.0,0.0,0.0,0.0,0.0,0.0,0.0,0.0,0.0,0.0,0.0,0.0,0.0,0.0,-0.2486,-0.0092,0.0,0.0,0.0,0.0,0.0,0.0,0.0,0.0,0.0,0.0,0.0,0.0,0.0,0.0,0.0099,0.1569,0.1217,0.0164,0.1944,0.1499,0.0,0.0,0.0,0.0,0.0,0.0,0.0,0.0,0.0,0.0,0.0,0.0,0.0,0.0,0.0,0.0,0.0,0.0,0.0,0.0,0.0,0.0,0.0,0.0,0.0,0.0,0.0,0.0,0.0,0.5088,0.511,0.4549,0.5147,0.5494,0.5169,0.4617,0.4206,0.4206,0.4206,0.4206,0.4206,0.4206,0.4206,0.4212,0.4167,0.4174,0.4131,0.3679,0.4596,0.6996,0.6931,0.7685,0.9331,0.9696,1.0133,1.0667,1.1126,1.1505,0.0,1.1244,1.1019,1.0943,1.0505,1.0283,0.0,0.0,0.0,0.0,0.0,0.7803,0.695,0.0,0.0,0.0,0.0,0.0,0.0,0.0,0.0,0.0,0.0,0.0,0.0,0.0,0.0,-0.0211,-0.0724,-0.0796,-0.0552,0.0,0.0,0.0,0.0,0.0,0.0,0.0,0.0,0.0,0.0,0.0,0.0,0.0,0.0,0.0,0.0,0.0,0.0,0.0,0.0,0.0,0.0,0.0,0.0,0.0,0.0,0.0,0.0,0.0,0.0,0.0,0.0,0.0,0.0,0.0,0.0,0.0,0.0,0.0,0.0,0.0,0.0,0.0,0.0,0.0,0.0,0.0,0.0,0.0,0.0,0.0,0.0,0.0,0.0,0.0,0.0,0.4797,0.5008,0.4347,0.4692,0.5096,0.5362,0.4842,0.4519,0.4519,0.4519,0.4519,0.4519,0.4519,0.4522,0.448,0.0,0.0,0.0,0.0,0.5972,0.8839,0.857,0.9093,1.0382,1.088,1.1132,1.1207,1.1653,1.192,1.192,1.1394,1.1169,1.1132,1.0611,1.0331,1.0128,0.9254,0.9083,0.9274,0.8358,0.7632,0.7145,0.0,0.0,0.0,0.0,0.0,0.0,0.0,0.0,0.0,0.0,0.0,0.0,0.0,0.0,-0.1521,-0.5395,-0.569,-0.4096,0.0,0.0,0.0,0.0,0.0,0.0,0.0,0.0,0.0,0.0,0.0,0.0,0.0,0.0,0.0,0.0,0.0,0.0,0.0,0.0,0.0,0.0,0.0,0.0,0.0,0.0,0.0,0.0,0.0,0.0,0.0,0.0,0.0,0.0,0.0,0.0,0.0,0.0,0.0,0.0,0.0,0.0,0.0,0.0,0.0,0.0,0.0,0.0,0.0,0.0,0.0,0.0,0.0,0.0,0.0,0.4426,0.4583,0.4625,0.4585,0.4608,0.4645,0.4673,0.457,0.4519,0.4519,0.4519,0.4519,0.4519,0.4519,0.4522,0.448,0.3294,0.3241,0.4442,0.5471,0.7304,1.0059,0.9881,1.0596,1.2127,0.0,0.0,1.221,1.2318,1.2579,1.2908,1.2425,1.221,1.2126,1.1244,1.0436,0.9709,0.9512,0.9092,0.8598,0.838,0.8209,0.8047,0.0,0.0,0.0,0.0,0.0,0.0,0.0,0.0,0.0,0.0,0.0,0.0,0.0,0.0,-0.1555,-0.5429,-0.6612,0.0,0.0,-0.1167,0.0,0.0,0.0,0.0,0.0,0.0,0.0,0.0,0.0,0.0,0.0,0.0,0.0,0.0,0.0,0.0,0.0,0.0,0.0,0.0,0.0,0.0,0.0,0.0,0.0,0.0,0.0,0.0,0.0,0.0,0.0,0.0,0.0,0.0,0.0314,0.0,0.0,0.0,0.0,0.0,0.0,0.0,0.0,0.0,0.0,0.0,0.0,0.0,0.0,0.4477,0.4473,0.0,0.4525,0.4519,0.4519,0.4543,0.4565,0.4575,0.4575,0.4575,0.4567,0.4519,0.4519,0.4519,0.4519,0.4519,0.4522,0.4477,0.4487,0.3752,0.4376,0.6568,0.7253,0.8835,1.15,1.1269,1.187,1.3324,1.2812,1.2668,1.2889,1.2889,1.2978,1.3163,1.2685,1.2508,1.2425,1.142,1.045,0.9592,0.9592,0.9121,0.843,0.8613,0.852,0.8308,0.0,0.0,0.0,0.0,0.0,0.0,0.0,0.0,0.0,0.0,0.0,-0.0221,-0.0782,-0.0887,-0.1934,0.0,0.0,0.0,0.0,-0.3059,-0.0716,-0.0,0.0,0.0,0.0,0.0,0.0,0.0,0.0,0.0,0.0,0.0,0.0,0.0,0.0,0.0,0.0,0.0,0.0,0.0,0.0,0.0,0.0,0.0,0.0,0.0,0.0,0.0,0.0,0.0,0.0,0.0,0.0,0.0403,0.137,0.3788,0.4511,0.0,0.0,0.0,0.0,0.0,0.0,0.0,0.0,0.3304,0.3014,0.4252,0.4525,0.4519,0.4519,0.4519,0.4519,0.4519,0.4519,0.4529,0.456,0.4585,0.4657,0.4687,0.4582,0.4553,0.4522,0.4519,0.4519,0.4519,0.4473,0.4425,0.4206,0.4661,0.6027,0.8428,0.9159,1.049,1.2681,1.2656,1.3169,1.4263,1.3694,1.3383,1.3275,1.321,1.3198,1.3163,1.2803,1.2544,1.2282,1.1505,1.0576,0.9719,0.9719,0.9297,0.8675,0.8908,0.8776,0.8578,0.0,0.0,0.0,0.0,0.0,0.0,0.0,0.0,0.0,0.0,0.0,0.0,0.0,0.0,0.0,0.0,0.0,0.0,-0.7243,-0.554,-0.3131,-0.0102,0.0,0.0,0.0,0.0,0.0,0.0,0.0,0.0,0.0,0.0,0.0,0.0,0.0,0.0,0.0,0.0,0.0,0.0,0.0,0.0,0.0,0.0,0.0,0.0,0.0,0.0,0.0,0.0,0.0,0.0,0.0,0.1849,0.4087,0.4395,0.4522,0.4513,0.4482,0.4383,0.3869,0.2345,0.1952,0.2065,0.0,0.3408,0.4307,0.4477,0.4525,0.4519,0.4519,0.4519,0.4519,0.4519,0.4519,0.4567,0.4646,0.4562,0.4594,0.4674,0.4674,0.4613,0.4532,0.4519,0.4519,0.4519,0.4473,0.4135,0.3231,0.5203,0.6723,0.7458,1.0566,1.2358,1.2608,1.3872,1.4601,1.4796,1.4262,1.3725,1.3216,1.3188,1.3198,1.3198,1.3129,1.265,1.1884,1.1774,1.1111,1.0215,1.0215,0.9922,0.9404,0.904,0.9095,0.9363,0.0,0.0,0.0,0.0,0.0,0.0,0.0,0.0,0.0,0.0,0.0,0.0,0.0,0.0,0.0,0.0,0.0,0.0,-0.7042,-0.6898,-0.627,-0.5272,-0.1893,0.0,0.0,0.0,0.0,0.0,0.0,0.0,0.0,0.0,0.0,0.0,0.0,0.0,0.0,0.0,0.0,0.0,0.0,0.0,0.0,0.0,0.0,0.0,0.0,0.0,0.0,0.0,0.0,0.0,0.0,0.1438,0.3131,0.3185,0.3782,0.451,0.4521,0.448,0.4392,0.3838,0.3746,0.3768,0.3893,0.4323,0.467,0.4606,0.4528,0.4519,0.4519,0.4519,0.4519,0.4519,0.4519,0.4539,0.4548,0.4579,0.4585,0.4562,0.4636,0.4629,0.4532,0.4519,0.4522,0.4473,0.4477,0.4702,0.5089,0.6306,0.7818,0.962,1.1267,1.2628,1.3729,1.4786,1.5441,1.5819,1.5306,1.4726,1.4174,1.386,1.3534,1.3198,1.3198,1.2838,1.221,1.221,1.1616,1.0725,1.1067,1.0866,1.0358,0.9932,0.9853,0.999,0.0,0.0,0.0,0.0,0.0,0.0,0.0,0.0,0.0,0.0,0.0,0.0,0.0,0.0,0.0,0.0,0.0,0.0,0.0,-0.7378,-0.8122,-0.8663,-0.4746,-0.2043,-0.1307,-0.1207,-0.0884,0.0,0.0,0.0,0.0,0.0,0.0,0.0,0.0,0.0,0.0,0.0,0.0,0.0,0.0,0.0,0.0,0.0,0.0,0.0,0.0,0.0542,0.0,0.0,0.0,0.0132,0.0997,0.1972,0.2764,0.2296,0.329,0.4508,0.4497,0.4525,0.4567,0.4725,0.4831,0.4876,0.5022,0.4876,0.4762,0.4694,0.4568,0.4519,0.4519,0.4519,0.4519,0.4519,0.4519,0.4519,0.4519,0.4558,0.4585,0.4532,0.4562,0.4582,0.4529,0.4519,0.4522,0.4473,0.447,0.5077,0.6534,0.7555,0.9088,1.1184,1.1917,1.2962,1.438,1.5342,1.5891,1.6028,1.5649,1.5218,1.4664,1.411,1.3609,1.3198,1.3198,1.2943,1.2508,1.2508,1.1982,1.1244,1.1664,1.1542,1.1201,1.105,1.0854,1.0745,0.0,0.0,0.0,0.0,0.0,0.0,0.0,0.0,0.0,0.0,0.0,0.0,0.0,0.0,0.0,0.0,0.0,0.0,0.0,-0.7024,-0.7849,-0.8275,-0.8506,-0.7308,-0.4466,-0.4319,-0.2881,0.0,0.0,0.0,0.0,0.0,0.0,0.0,0.0,0.0,0.0,0.0,0.0,0.0,0.0,0.0,0.0,0.0,0.0,0.0,0.0,0.0,0.0,0.0,0.0,0.0496,0.3409,0.442,0.4121,0.2669,0.329,0.4525,0.4519,0.4519,0.4556,0.4653,0.4691,0.4731,0.4884,0.4802,0.4691,0.4691,0.4568,0.4519,0.4519,0.4519,0.4519,0.4519,0.4519,0.4519,0.4519,0.4522,0.4522,0.4519,0.4522,0.4522,0.0,0.4519,0.4519,0.4519,0.444,0.5023,0.6543,0.8844,1.0335,1.0806,1.2667,1.3716,1.3815,1.5599,1.5948,1.4832,1.4915,1.4639,1.4085,1.3509,1.3223,1.3198,1.3198,1.2943,1.2508,1.2508,1.221,1.1774,1.1774,1.1774,1.1847,1.227,1.2117,1.1661,0.0,0.0,0.0,0.0,0.0,0.0,0.0,0.0,0.0,0.0,0.0,0.0,0.0,0.0,0.0,0.0,0.0,0.0,0.0,-0.6627,-0.7292,-0.7691,-0.8254,-0.8131,-0.7282,-0.72,-0.6703,-0.569,-0.3642,-0.2677,-0.2572,-0.0853,0.0,0.0,0.0,0.0,0.0,0.0,0.0,0.0,0.0,0.0,0.0,0.0,0.0,0.0283,0.0,0.0,0.0,0.0,0.0,0.0,0.3536,0.4507,0.437,0.3892,0.4091,0.4539,0.4585,0.4613,0.4674,0.4921,0.4982,0.5023,0.5179,0.502,0.4959,0.5489,0.498,0.4625,0.5058,0.4787,0.4519,0.4519,0.4519,0.4519,0.4519,0.4519,0.4519,0.4519,0.4519,0.0,0.0,0.0,0.0,0.5407,0.5697,0.6768,0.8897,0.9999,1.1065,1.2104,1.3195,1.3993,1.4376,1.5421,1.5524,1.4808,1.452,1.4396,1.4479,1.361,1.3357,1.3648,1.3323,1.3129,1.2943,1.2943,1.2685,1.2294,1.2615,1.2758,1.2871,1.3362,1.3655,1.3716,0.0,0.0,0.0,0.0,0.0,0.0,0.0,0.0,0.0,0.0,0.0,0.0,0.0,0.0,0.0,0.0,0.0,0.0,0.0,0.0,-0.6607,-0.6959,-0.7407,-0.7773,-0.7928,-0.7838,-0.8017,-0.8185,-0.6259,-0.5295,-0.5065,-0.3522,-0.1812,0.0,0.0,0.0,0.0,0.0,0.0,0.0,0.0,0.0,0.0,0.0,0.0,0.0,0.0,0.0,0.0,0.0,0.0,0.0,0.0,0.4511,0.4504,0.448,0.4563,0.4565,0.4663,0.4731,0.483,0.507,0.5091,0.5094,0.5243,0.5234,0.5351,0.5693,0.5494,0.5261,0.535,0.507,0.4787,0.4519,0.4519,0.4519,0.4519,0.4519,0.4519,0.4519,0.4736,0.5109,0.0,0.0,0.0,0.6475,0.7036,0.8271,1.0311,1.0756,1.1474,1.2568,1.3191,1.3747,1.4113,1.5093,1.5329,1.4812,1.4324,1.4326,1.4713,1.3839,1.3819,1.4459,1.3894,1.3581,1.3459,1.3615,1.331,1.2815,1.3468,1.3686,1.3643,1.4188,1.4601,1.4777,0.0,0.0,0.0,0.0,0.0,0.0,0.0,0.0,0.0,0.0,0.0,0.0,0.0,0.0,0.0,0.0,0.0,0.0,0.0,0.0,0.0,-0.6273,-0.6366,-0.6519,-0.6664,-0.6675,-0.7014,-0.7621,-0.7621,-0.7435,-0.7096,-0.7613,-0.5145,-0.0183,-0.009,0.0,0.0,0.0,0.0,0.0,0.0,0.0,0.0,0.0,0.0,0.0,0.0,0.0,0.0,0.0,0.4487,0.4484,0.4333,0.4389,0.449,0.4525,0.4572,0.4694,0.4701,0.4813,0.4962,0.5098,0.503,0.4962,0.5091,0.5427,0.5709,0.5436,0.6041,0.6294,0.5366,0.537,0.5273,0.4625,0.4519,0.4519,0.4519,0.4515,0.457,0.457,0.5164,0.591,0.6645,0.7334,0.0,0.7759,0.0,0.9334,1.0697,1.105,1.1518,1.2163,1.2812,1.3152,1.3197,1.4785,1.5344,1.4891,1.4411,1.442,1.4852,1.4286,1.4606,1.5547,1.4911,1.4378,1.4007,1.4424,1.4099,1.3424,1.4415,1.4556,1.426,1.479,1.4966,1.4916,0.0,0.0,0.0,0.0,0.0,0.0,0.0,0.0,0.0,0.0,0.0,0.0,0.0,0.0,0.0,0.0,0.0,0.0,0.0,0.0,0.0,0.0,0.0,0.0,0.0,0.0,0.0,0.0,0.0,-0.6642,-0.6478,-0.6697,-0.5381,-0.2861,-0.0895,0.0,0.0,0.0,0.0,0.0,0.0,0.0,0.0,0.0,0.0,0.0,0.0,0.0,0.0,0.449,0.4487,0.4095,0.1845,0.2685,0.4494,0.448,0.4579,0.4714,0.483,0.4965,0.5084,0.5121,0.5104,0.5057,0.4989,0.5199,0.5648,0.6351,0.6396,0.6258,0.6212,0.5837,0.5273,0.4625,0.4519,0.4519,0.4519,0.4948,0.5218,0.5218,0.6333,0.734,0.8088,0.8756,0.0,0.0,0.9644,0.96,1.0049,1.1072,1.1719,1.1923,1.3017,1.379,1.4192,1.5032,1.5385,1.5184,1.5175,1.5365,1.5778,1.5819,1.6131,1.6661,1.6185,1.5646,1.5139,1.5729,1.5578,1.4999,1.5772,1.5991,1.5917,1.6023,1.6083,1.6061,0.0,0.0,0.0,0.0,0.0,0.0,0.0,0.0,0.0,0.0,0.0,0.0,0.0,0.0,0.0,0.0,0.0,0.0,0.0,0.0,0.0,0.0,0.0,0.0,0.0,0.0,0.0,0.0,0.0,0.0,0.0,-0.5801,-0.5365,-0.4481,-0.1394,0.0,0.0,0.0,0.0,0.0,0.0,0.0,0.0,0.0,0.0,0.0,0.0,0.0,0.4525,0.4511,0.4487,0.408,0.1712,0.2247,0.3801,0.4445,0.4775,0.4901,0.4989,0.5121,0.5216,0.5148,0.5084,0.4999,0.4853,0.5083,0.555,0.6009,0.6231,0.6297,0.6009,0.5637,0.5238,0.4615,0.4409,0.4497,0.4886,0.5273,0.5751,0.6338,0.7399,0.8502,0.9533,0.9951,1.0477,0.0,1.0881,1.0527,1.0261,1.1317,1.1873,1.1574,1.2756,1.4027,1.5271,1.5906,1.62,1.6186,1.6028,1.6315,1.6973,1.6827,1.713,1.7768,0.0,1.6704,1.6236,1.6795,1.6587,1.6027,1.6817,1.7015,1.6894,1.7112,1.7035,1.6912,0.0,0.0,0.0,0.0,0.0,0.0,0.0,0.0,0.0,0.0,0.0,0.0,0.0,0.0,0.0,0.0,0.0,0.0,0.0,0.0,0.0,0.0,0.0,0.0,0.0,0.0,0.0,0.0,0.0,0.0,0.0,0.0,0.0,0.0,0.0,0.0,0.0,0.0,0.0,0.0,0.0,0.0,0.0,0.0,0.0,0.0,0.0,0.0,0.0,0.4389,0.449,0.4197,0.2466,0.2092,0.2692,0.4372,0.4954,0.5111,0.5125,0.5243,0.5321,0.5145,0.5009,0.4874,0.4701,0.5091,0.5412,0.5173,0.5894,0.6275,0.5331,0.5257,0.5145,0.4685,0.4435,0.4654,0.5586,0.582,0.6357,0.77,0.8606,0.9592,1.0797,1.104,1.1266,1.1765,1.1873,1.1566,1.0712,1.1517,1.1953,1.187,1.2971,1.4505,1.6489,1.7214,1.7523,1.7438,1.7043,1.7375,1.8262,1.7812,1.8085,1.8895,0.0,0.0,1.7253,1.7774,1.7461,1.6761,1.7756,1.789,1.7576,1.8015,1.7867,1.7544,0.0,0.0,0.0,0.0,0.0,0.0,0.0,0.0,0.0,0.0,0.0,0.0,0.0,0.0,0.0,0.0,0.0,0.0,0.0,0.0,0.0,0.0,0.0,0.0,0.0,0.0,0.0,0.0,0.0,0.0,0.0,0.0,0.0,0.0,0.0,0.0,0.0,0.0,0.0,0.0,0.0,0.0,0.0,0.0,0.0,0.0,0.0,0.0,0.0,0.0,0.4497,0.4021,0.1235,0.0413,0.113,0.4354,0.5214,0.5119,0.5101,0.5243,0.5298,0.5023,0.4938,0.4847,0.4565,0.4865,0.5246,0.5412,0.5871,0.6082,0.5524,0.5441,0.535,0.5023,0.498,0.5427,0.6729,0.7455,0.8197,0.9233,1.046,1.1349,1.1598,1.2187,0.0,0.0,1.2344,1.19,1.0064,1.0663,1.2205,1.4695,1.6114,1.7277,1.8174,1.8763,1.8753,1.8204,1.8679,1.8987,1.919,1.9969,2.0219,2.0008,1.9885,0.0,1.7827,1.893,1.867,1.777,1.8941,1.9082,1.8622,1.8736,1.8419,1.8066,0.0,0.0,0.0,0.0,0.0,0.0,0.0,0.0,0.0,0.0,0.0,0.0,0.0,0.0,0.0,0.0,0.0,0.0,0.0,0.0,0.0,0.0,0.0,0.0,0.0,0.0,-0.4082,-0.3294,0.0,0.0,0.0,-0.3572,-0.3974,0.0,0.0,0.0,0.0,0.0,0.0,0.0,0.0,0.0,0.0,0.0,0.0,0.0,0.0,0.0,0.0,0.0,0.2181,0.1915,0.0466,0.0,0.0483,0.3005,0.4426,0.5251,0.5114,0.5186,0.5189,0.4972,0.486,0.4741,0.457,0.4674,0.48,0.4933,0.5151,0.5226,0.5042,0.488,0.4931,0.5251,0.5151,0.5608,0.7422,0.8047,0.8841,1.0327,1.093,1.1575,1.2295,1.2049,1.208,1.2793,1.2502,1.1706,1.0415,1.1526,1.3618,1.6533,1.7654,1.8575,1.934,1.9924,2.0051,1.9767,2.0067,2.0225,2.0241,2.0783,2.0862,2.0649,2.0416,0.0,1.9166,1.954,1.9337,1.8891,1.9483,1.953,1.9332,1.9332,1.8968,1.8598,0.0,0.0,0.0,0.0,0.0,0.0,0.0,0.0,0.0,0.0,0.0,0.0,0.0,0.0,0.0,0.0,0.0,0.0,0.0,0.0,0.0,0.0,0.0,0.0,0.0,0.0,0.0,-0.1729,-0.2965,0.0,0.0,0.0,0.0,0.0,-0.3246,0.0,0.0,0.0,0.0,0.0,0.0,0.0,0.0,0.0,0.0,0.0,0.0,0.0,0.0,0.0,0.0,0.0,0.0,0.0471,0.1148,0.1943,0.3653,0.5258,0.5118,0.5131,0.5098,0.4955,0.483,0.4691,0.456,0.4519,0.4519,0.4522,0.4519,0.4519,0.4522,0.4476,0.474,0.552,0.5649,0.6269,0.8183,0.8749,0.9568,1.1237,1.119,1.1525,1.2774,1.1882,0.0,1.3674,1.3087,1.2359,1.1746,1.3311,1.5396,1.7963,1.8721,1.9499,2.0328,2.0876,2.1118,2.1118,2.1118,2.1118,2.1118,2.1229,2.1213,2.1086,2.0649,0.0,0.0,1.9839,1.9639,1.953,1.9639,1.969,1.969,1.969,1.9442,1.9192,0.0,0.0,0.0,0.0,0.0,0.0,0.0,0.0,0.0,0.0,0.0,0.0,0.0,0.0,0.0,0.0,0.0,0.0,0.0,0.0,0.0,0.0,0.0,0.0,0.0,0.0,0.0,-0.0223,-0.0336,0.0,0.0,0.0,0.0,0.0,0.0,-0.2692,0.0,0.0,0.0,0.0,0.0,0.0,0.0,0.0,0.0,0.0,0.0,0.0,0.0,0.0,0.0,0.0,0.0,0.1872,0.3826,0.2572,0.3485,0.4865,0.506,0.5131,0.5098,0.4955,0.4908,0.4819,0.4584,0.4519,0.4522,0.4477,0.4525,0.4522,0.4477,0.4999,0.552,0.6038,0.7188,0.8365,0.9399,1.0437,1.1378,1.2032,1.1888,1.203,1.2822,1.2716,1.2966,1.3721,1.4989,1.5428,1.4737,1.5748,1.7166,1.9081,1.9971,2.075,2.1453,2.1519,2.1552,2.1552,2.1552,2.1552,2.1552,2.1974,2.1945,2.1521,2.1118,0.0,0.0,1.9696,1.9406,1.9006,1.953,1.969,1.969,1.969,1.969,1.9711,0.0,0.0,0.0,0.0,0.0,0.0,0.0,0.0,0.0,0.0,0.0,0.0,0.0,0.0,0.0,0.0,0.0,0.0,0.0,0.0,0.0,0.0,0.0,0.0,0.0,0.0,0.0,0.0,0.0,0.0,0.0,0.0,0.0,0.0,0.0,-0.3511,-0.2283,0.0,0.0,0.0,0.0,0.0,0.0,0.0,0.0,0.0,0.0,0.0,0.0,0.0,0.0,0.0,0.0,0.0805,0.2013,0.3254,0.4054,0.468,0.4813,0.4867,0.4853,0.4796,0.4711,0.4613,0.4546,0.4519,0.4519,0.4522,0.4522,0.4519,0.4522,0.4736,0.5253,0.625,0.0,0.8194,0.9795,1.0609,1.1258,1.1781,1.1612,1.1854,1.2909,0.0,1.4169,1.6335,1.7965,1.8956,1.9128,1.8755,1.9192,2.0655,2.1399,2.1939,2.2252,2.2468,2.2556,2.2556,2.2361,2.2269,2.2269,2.2287,2.2209,2.1974,2.1291,0.0,0.0,1.9788,1.9369,1.8968,1.9479,1.969,1.969,1.969,1.9839,2.0089,0.0,0.0,0.0,0.0,0.0,0.0,0.0,0.0,0.0,0.0,0.0,0.0,0.0,0.0,0.0,0.0,0.0,0.0,0.0,0.0,0.0,0.0,0.0,0.0,0.0,0.0,0.0,0.0,0.0,0.0,0.0,0.0,0.0,-0.011,0.0,0.0,0.0,0.0,0.0,0.0,0.0,0.0,0.0,0.0,0.0,0.0,0.0,0.0,0.0,0.0,0.0,0.0,0.0,0.0,0.0477,0.2992,0.4066,0.4511,0.4599,0.4657,0.4691,0.4691,0.4609,0.4573,0.4529,0.4519,0.4519,0.4522,0.4519,0.4519,0.4522,0.468,0.5167,0.0,0.0,0.8437,0.9811,1.0807,1.1386,1.1318,1.1509,1.2006,1.2935,1.4083,1.5857,1.8564,2.016,2.1275,2.1863,2.1362,2.1366,2.204,2.2522,2.282,2.2848,2.3069,2.3189,2.3189,2.2873,2.2695,2.2695,2.2426,2.2209,2.2032,2.1323,0.0,0.0,1.9859,1.9551,1.9361,1.9717,1.9874,1.9874,1.9874,1.9965,2.0158,0.0,0.0,0.0,0.0,0.0,0.0,0.0,0.0,0.0,0.0,0.0,0.0,0.0,0.0,0.0,0.0,0.0,0.0,0.0,0.0,0.0,0.0,0.0,0.0,0.0,0.0,0.0,0.0,0.0,0.0,0.0,0.0,0.0,-0.0106,0.0,0.0,0.0,0.0,0.0,0.0,0.0,0.0,0.0,0.0,0.0,0.0,0.0,0.0,0.0,0.0,0.0,0.0,0.0,0.0,0.0,0.0,0.3074,0.4477,0.4522,0.4575,0.4691,0.4691,0.4691,0.465,0.4553,0.4519,0.4522,0.4477,0.4525,0.4522,0.4477,0.5066,0.5706,0.6475,0.8344,0.0,0.9516,1.144,1.2301,1.0795,1.1883,1.2812,1.2812,1.5629,1.8133,1.9762,2.1075,0.0,2.2081,2.3289,2.3712,2.3189,2.3189,2.3189,2.3189,2.3189,2.3189,2.3189,2.2873,2.2695,2.2695,2.2426,2.2049,0.0,0.0,0.0,0.0,1.9874,1.9929,2.028,2.028,2.028,2.028,2.028,2.0019,1.9747,0.0,0.0,0.0,0.0,0.0,0.0,0.0,0.0,0.0,0.0,0.0,0.0,0.0,0.0,0.0,0.0,0.0,0.0,0.0,0.0,0.0,0.0,0.0,0.0,0.0,0.0,0.0,0.0,0.0,0.0,0.0,0.0,0.0,0.0,-0.0985,0.0,0.0,0.0,0.0,0.0,0.0,0.0,0.0,0.0,0.0,0.0,0.0,0.0,0.0,0.0,0.0,0.0,0.0,0.0,0.0,0.0,0.0,0.3961,0.4412,0.4351,0.4256,0.4362,0.4334,0.4321,0.4328,0.4392,0.4519,0.4522,0.4519,0.4519,0.4522,0.468,0.5128,0.6163,0.7252,0.0,0.9898,1.0623,1.1153,1.1655,1.3022,1.4492,0.0,0.0,2.0013,2.1625,2.2705,0.0,2.3515,2.4044,2.4044,2.3422,2.385,2.3925,2.3544,2.3774,2.3774,2.3544,2.3189,2.2923,2.2695,2.2426,2.2209,0.0,0.0,0.0,0.0,2.0483,2.028,1.9904,2.055,2.0583,2.0314,2.0314,2.0212,2.0089,0.0,0.0,0.0,0.0,0.0,0.0,0.0,0.0,0.0,0.0,0.0,0.0,0.0,0.0,0.0,0.0,0.0,0.0,0.0,0.0,0.0,0.0,0.0,0.0,0.0,0.0,0.0,0.0,0.0,0.0,0.0,0.0,0.0,0.0,0.0,0.0,0.0,0.0,0.0,0.0,0.0,0.0,0.0,0.0,0.0,0.0,0.0,0.0,0.0,0.0,0.0,0.0,0.0,0.0,0.0,0.0,0.2186,0.3267,0.4055,0.4157,0.4097,0.4297,0.4241,0.4217,0.4324,0.4406,0.4522,0.4519,0.468,0.4787,0.4574,0.516,0.582,0.6288,0.7372,0.8607,0.9874,1.048,1.1456,1.3247,1.4046,0.0,0.0,1.965,2.0979,2.2863,2.3687,0.0,2.4284,2.4426,2.4318,2.3892,2.4211,2.4229,2.3896,2.3976,2.3917,2.3692,2.3369,2.3021,2.2695,2.2527,2.2298,0.0,0.0,0.0,0.0,2.099,2.0863,2.0403,2.1007,2.0959,2.055,2.055,2.0364,2.0035,0.0,0.0,0.0,0.0,0.0,0.0,0.0,0.0,0.0,0.0,0.0,0.0,0.0,0.0,0.0,0.0,0.0,0.0,0.0,0.0,0.0,0.0,0.0,0.0,0.0,0.0,0.0,0.0,-0.5027,-0.3353,-0.0352,0.0,0.0,0.0,0.0,0.0,0.0,0.0,0.0,0.0,0.0,0.0,0.0,0.0,0.0,0.0,0.0,0.0,0.0,0.0,0.0,0.0,0.0,0.0,0.0,0.0,0.0,0.0,0.0,0.4039,0.4217,0.4426,0.4247,0.4071,0.432,0.4415,0.0,0.4519,0.5058,0.5328,0.4677,0.6279,0.7446,0.6773,0.8365,0.9692,0.9632,1.1031,1.2937,1.5215,1.4988,0.0,2.0226,2.048,2.125,2.3448,0.0,0.0,2.4386,2.4458,2.4495,2.4478,2.4303,2.419,2.419,2.3896,2.3714,2.3692,2.3392,2.3069,2.2746,2.2746,2.2361,0.0,0.0,0.0,0.0,2.1409,2.1562,2.1582,2.1658,2.1368,2.0991,2.0991,2.0481,1.9747,0.0,0.0,0.0,0.0,0.0,0.0,0.0,0.0,0.0,0.0,0.0,0.0,0.0,0.0,0.0,0.0,0.0,0.0,0.0,0.0,0.0,0.0,0.0,0.0,0.0,0.0,0.0,-0.4713,-0.4952,-0.4598,-0.3712,-0.1203,0.0,0.0,0.0,0.0,0.0,0.0,0.0,0.0,0.0,0.0,0.0,0.0,0.0,0.0,0.0,0.0,0.0,0.0,0.0,0.0,0.0,0.0,0.0,0.0,0.1038,0.0,0.0,0.0,0.4031,0.4197,0.3302,0.2519,0.0,0.3842,0.4477,0.4519,0.5058,0.5433,0.5269,0.6982,0.8113,0.7287,0.8806,1.0283,1.0778,1.2705,1.4087,1.4207,1.586,1.7726,1.9584,2.1153,2.2253,2.2731,0.0,2.4097,2.3381,2.4075,2.4445,2.4284,2.4228,2.419,2.419,2.4113,2.3937,2.3692,2.361,2.3414,2.3069,2.3069,2.2996,0.0,0.0,0.0,2.1857,2.2056,2.1911,2.1658,2.2003,2.1675,2.0991,2.0991,2.0616,2.0124,0.0,0.0,0.0,0.0,0.0,0.0,0.0,0.0,0.0,0.0,0.0,0.0,0.0,0.0,0.0,0.0,0.0,0.0,0.0,0.0,0.0,0.0,0.0,0.0,0.0,0.0,0.0,0.0,0.0,-0.4963,0.0,0.0,0.0,0.0,0.0,0.0,0.0,0.0,0.0,0.0,-0.0449,0.0,0.0,0.0,0.0,0.0,0.0,0.0,0.0,0.0,0.0,0.0,0.0,0.0,0.0,0.0,0.2652,0.0,0.0,0.4365,0.4188,0.4321,0.3292,0.2238,0.2424,0.3528,0.4584,0.4897,0.5492,0.6086,0.6392,0.8229,0.9574,0.9247,1.0842,1.2331,1.3106,1.4619,1.5607,1.5571,1.6949,1.8625,0.0,2.1196,2.1903,0.0,0.0,2.3583,2.3033,2.3878,2.4321,2.419,2.4284,2.4284,2.419,2.4054,2.3939,2.3846,2.3846,2.3666,2.3348,2.3498,2.3428,0.0,0.0,0.0,2.2361,2.2248,2.2084,2.1957,2.2209,2.1886,2.1244,2.1055,2.0829,2.055,0.0,0.0,0.0,0.0,0.0,0.0,0.0,0.0,0.0,0.0,0.0,0.0,0.0,0.0,0.0,0.0,0.0,0.0,0.0,0.0,0.0,0.0,0.0,0.0,0.0,0.0,0.0,0.0,0.0,0.0,0.0,0.0,0.0,0.0,0.0,0.0,0.0,0.0,0.0,0.0,-0.0988,0.0,0.0,0.0,0.0,0.0,0.0,0.0,0.0,0.0,0.0,0.0,0.0,0.0,0.0,0.0,0.0,0.0,0.4484,0.4494,0.4485,0.447,0.3553,0.2622,0.2546,0.3685,0.486,0.5382,0.6249,0.7095,0.7658,0.9774,1.1398,1.1498,1.3205,1.4784,1.555,1.6488,1.7144,1.7277,1.8069,0.0,2.1319,2.1036,0.0,0.0,0.0,2.296,2.2832,2.3694,2.4154,2.4044,2.4336,2.4371,2.41,2.3946,2.3946,2.4118,2.4118,2.3969,2.3658,2.3949,2.381,2.3346,0.0,0.0,2.2746,2.2307,2.2181,2.2282,2.2209,2.1957,2.1552,2.115,2.1023,2.1023,0.0,0.0,0.0,0.0,0.0,0.0,0.0,0.0,0.0,0.0,0.0,0.0,0.0,0.0,0.0,0.0,0.0,0.0,0.0,0.0,0.0,0.0,0.0,0.0,0.0,0.0,0.0,0.0,0.0,0.0,-0.5088,-0.3459,-0.1717,0.0,0.0,0.0,0.0,0.0,0.0,0.0,0.0,0.0,0.0,0.0,0.0,0.0,0.0,0.0,0.0,0.0,0.0,0.0,0.0,0.0,0.0,0.0,0.0,0.0,0.4497,0.4382,0.4304,0.445,0.3377,0.262,0.3883,0.4971,0.5626,0.5546,0.7036,0.8436,0.8607,1.1305,1.3107,1.1787,1.3819,1.574,0.0,0.0,1.8231,1.6159,0.0,2.0517,1.9768,0.0,0.0,0.0,0.0,2.2703,2.2006,2.3382,2.3934,2.3371,2.4089,2.4206,2.3618,2.4294,2.4648,2.4678,2.4678,2.457,2.4336,2.4389,2.4284,0.0,0.0,2.31,2.3069,2.2517,2.2293,2.2254,2.1853,2.1658,2.1552,2.115,2.1213,2.146,0.0,0.0,0.0,0.0,0.0,0.0,0.0,0.0,0.0,0.0,0.0,0.0,0.0,0.0,0.0,0.0,0.0,0.0,0.0,0.0,0.0,0.0,0.0,0.0,0.0,0.0,0.0,0.0,0.0,-0.5226,-0.5403,-0.2562,-0.0822,0.0,0.0,0.0,0.0,0.0,0.0,0.0,0.0,0.0,0.0,0.0,0.0,0.0,0.0,0.0,0.0,0.0,0.0,0.0,0.0,0.0,0.0,0.0,0.0,0.0,0.4487,0.4433,0.4419,0.4724,0.4219,0.3971,0.5147,0.6059,0.689,0.7754,0.9328,1.09,1.1866,1.3417,1.4626,1.4849,0.0,1.8389,1.8587,1.9637,1.9709,0.0,0.0,2.0336,0.0,0.0,0.0,0.0,0.0,0.0,2.0952,2.2045,2.2648,2.255,2.306,2.3206,2.295,2.3926,2.4593,2.4917,2.4917,2.4809,2.4654,2.4654,2.4389,2.3896,0.0,2.2753,2.2539,2.1878,2.1584,2.1584,2.1598,2.1582,2.1628,2.1675,2.1675,2.1582,0.0,0.0,0.0,0.0,0.0,0.0,0.0,0.0,0.0,0.0,0.0,0.0,0.0,0.0,0.0,0.0,0.0,0.0,0.0,0.0,0.0,0.0,0.0,0.0,0.0,0.0,0.0,-0.4969,-0.5182,-0.5246,-0.5133,-0.2613,-0.0951,0.0,0.0,0.0,0.0,0.0,0.0,0.0,0.0,0.0,0.0,0.0,0.0,0.0,0.0,0.0,0.0,0.0,0.0,0.0,0.0,0.0,0.0,0.0,0.2174,0.4027,0.4418,0.4529,0.4702,0.5135,0.5166,0.5262,0.6119,0.7194,0.8482,1.001,1.1699,1.3401,1.4947,1.5309,1.6013,1.7807,1.9029,1.9827,1.9921,2.0433,2.0298,1.8968,1.951,0.0,0.0,0.0,0.0,0.0,0.0,0.0,2.0264,2.1062,2.1586,2.1753,2.2111,2.2293,2.2265,2.3285,2.413,2.479,2.4927,2.4943,2.4804,2.4663,2.4281,2.3671,2.2926,2.2426,2.2068,2.1535,2.126,2.1181,2.1491,2.1582,2.1658,2.2135,2.2061,2.1764,0.0,0.0,0.0,0.0,0.0,0.0,0.0,0.0,0.0,0.0,0.0,0.0,0.0,0.0,0.0,0.0,0.0,0.0,0.0,0.0,0.0,0.0,0.0,0.0,0.0,-0.4657,-0.4819,-0.5114,-0.5542,-0.492,-0.3355,-0.502,-0.3766,0.0,0.0,0.0,0.0,0.0,0.0,0.0,0.0,0.0,0.0,0.0,0.0,0.0,0.0,0.0,0.0,0.0,0.0,0.0,0.0,0.0,0.0,0.0,0.2174,0.2676,0.4125,0.4681,0.4989,0.5604,0.5616,0.5672,0.639,0.8442,1.0398,1.1207,1.3347,1.5349,1.6298,1.6593,1.7257,1.9001,1.8358,1.7852,1.8452,0.0,1.8956,1.7213,1.8775,0.0,0.0,0.0,0.0,0.0,0.0,0.0,2.047,2.131,2.1546,2.1098,2.1871,2.2068,2.1583,2.2447,2.3312,2.4168,2.4736,2.4943,2.479,2.4279,2.3928,2.3671,2.2996,2.2468,2.2096,2.2175,2.1945,2.1552,2.1582,2.1582,2.1658,2.2135,2.2282,2.218,0.0,0.0,0.0,0.0,0.0,0.0,0.0,0.0,0.0,0.0,0.0,0.0,0.0,0.0,0.0,0.0,0.0,0.0,0.0,0.0,0.0,0.0,0.0,-0.4684,-0.4755,-0.4874,-0.5067,-0.5274,-0.5809,-0.51,-0.3059,-0.2634,0.0,0.0,0.0,0.0,0.0,0.0,0.0,0.0,0.0,0.0,0.0,0.0,0.0,0.0,0.0,0.0,0.0,0.0,0.0,0.0,0.0,0.0,0.0,0.0,0.0,0.3752,0.4363,0.474,0.514,0.5658,0.6328,0.6919,0.7327,0.9548,1.1784,1.267,1.5297,1.7533,1.7951,1.7713,1.7543,1.7967,1.8021,1.8117,1.8293,1.8821,1.8762,1.762,0.0,0.0,0.0,0.0,0.0,0.0,0.0,0.0,1.9556,1.988,2.0123,2.0238,2.0582,2.075,2.0746,2.1492,2.2278,2.311,2.3896,2.4384,2.4607,2.4192,2.379,2.3346,2.2635,2.1984,2.1428,2.1477,2.1213,2.083,2.1383,2.1794,2.2061,2.2237,2.231,2.2265,0.0,0.0,0.0,0.0,0.0,0.0,0.0,0.0,0.0,0.0,0.0,0.0,0.0,0.0,0.0,0.0,0.0,0.0,0.0,0.0,0.0,0.0,0.0,-0.4555,-0.469,-0.4817,-0.5031,-0.5287,-0.5855,-0.5424,-0.4066,0.0,0.0,0.0,0.0,0.0,0.0,0.0,0.0,0.0,0.0,0.0,0.0,0.0,0.0,0.0,0.0,0.0,0.0,0.0,0.0,0.0,0.0,0.0,0.0,0.0,0.0,0.4368,0.4409,0.467,0.5114,0.5562,0.6607,0.7647,0.8067,1.0644,1.3277,1.432,1.7078,1.9218,1.9094,1.8388,0.0,0.0,1.7255,1.7255,1.72,1.738,1.7306,0.0,0.0,0.0,0.0,0.0,0.0,0.0,0.0,0.0,0.0,1.9069,1.9316,1.9797,1.9762,1.9888,2.0197,2.0623,2.1335,2.2344,2.2854,2.3529,2.4336,2.3929,2.3498,2.2996,2.2262,2.1562,2.1007,2.115,2.1086,2.0975,2.1598,2.2032,2.231,2.231,2.231,2.231,0.0,0.0,0.0,0.0,0.0,0.0,0.0,0.0,0.0,0.0,0.0,0.0,0.0,0.0,0.0,0.0,0.0,0.0,0.0,0.0,0.0,0.0,0.0,-0.4509,-0.4525,-0.4458,-0.4667,-0.5128,-0.5545,-0.598,-0.6199,0.0,0.0,0.0,0.0,0.0,0.0,0.0,0.0,0.0,0.0,0.0,0.0,0.0,0.0,0.0,0.0,0.0,0.0,0.0,0.0,0.0,0.0,0.0,0.0,0.0,0.3061,0.4009,0.4151,0.4469,0.4815,0.537,0.6446,0.7605,0.8503,1.1747,1.4943,1.618,1.8563,2.0249,1.9504,1.8551,0.0,1.7346,1.5879,1.4806,1.4781,1.4489,0.0,0.0,0.0,0.0,0.0,0.0,0.0,0.0,0.0,0.0,0.0,1.9198,1.9462,1.9797,1.9669,1.9726,2.0003,1.9869,2.0527,2.199,2.1654,2.2374,2.3988,2.3428,2.3021,2.2626,2.1903,2.1368,2.1023,2.143,2.1869,2.231,2.231,2.231,2.231,2.231,2.231,2.231,0.0,0.0,0.0,0.0,0.0,0.0,0.0,0.0,0.0,0.0,0.0,0.0,0.0,0.0,0.0,0.0,0.0,0.0,0.0,0.0,0.0,0.0,0.0,0.0,0.0,0.0,-0.349,-0.534,-0.5424,-0.5562,0.0,0.0,0.0,0.0,0.0,0.0,0.0,0.0,0.0,0.0,0.0,0.0,0.0,0.0,0.0,0.0,0.0,0.0,0.0,0.0,0.0,0.0,0.0,0.0,0.0,0.2402,0.3219,0.4361,0.4402,0.4643,0.4965,0.5582,0.644,0.7469,0.8893,1.1646,1.4561,1.6838,1.7619,1.7904,1.7915,1.7491,0.0,1.6041,1.5278,1.4554,1.3841,1.3464,0.0,0.0,0.0,0.0,0.0,0.0,0.0,0.0,0.0,0.0,0.0,1.9259,1.9409,1.9643,1.9623,1.9682,1.9858,1.9744,2.0085,2.0857,2.0677,2.1443,2.3004,2.29,2.2358,2.1496,2.1259,2.091,2.055,2.0975,2.1615,2.231,2.231,2.231,2.231,2.231,2.231,2.2237,0.0,0.0,0.0,0.0,0.0,0.0,0.0,0.0,0.0,0.0,0.0,0.0,0.0,0.0,0.0,0.0,0.0,0.0,0.0,0.0,0.0,0.0,0.0,0.0,0.0,-0.343,-0.3687,0.0,0.0,0.0,0.0,0.0,0.0,0.0,0.0,0.0,0.0,0.0,0.0,0.0,0.0,0.0,0.0,0.0,0.0,0.0,0.0,0.0,0.0,0.0,0.0,0.0,0.0,0.0,0.0,0.3254,0.3531,0.4287,0.4275,0.4324,0.4455,0.4815,0.5747,0.7272,0.9925,1.2335,1.4715,1.7195,1.7315,1.7038,1.7109,1.6628,0.0,1.5043,1.4283,1.3546,1.2836,0.0,0.0,0.0,0.0,0.0,0.0,0.0,0.0,0.0,0.0,0.0,0.0,1.9289,1.9361,1.9521,1.9423,1.9372,1.9393,1.928,1.9529,2.0155,1.9934,2.0354,2.1358,2.1995,2.1713,2.0816,2.0749,2.055,2.0348,2.0797,2.1323,2.1781,2.1974,2.2032,2.2003,2.184,2.202,2.2209,0.0,0.0,0.0,0.0,0.0,0.0,0.0,0.0,0.0,0.0,0.0,0.0,0.0,0.0,0.0,0.0,0.0,0.0,0.0,0.0,0.0,0.0,0.0,0.0,0.0,0.0,0.0,0.0,0.0,0.0,0.0,0.0,0.0,0.0,0.0,0.0,0.0,0.0,0.0,0.0,0.0,0.0,0.0,0.0,0.0,0.0,0.0,0.0,0.0,0.0,0.0,0.0,0.0,0.1906,0.4086,0.4069,0.3975,0.3926,0.389,0.3681,0.3462,0.3493,0.4856,0.7161,1.1003,1.3257,1.508,1.705,1.7181,1.6899,1.6668,1.582,1.4928,1.4264,1.3121,1.2181,0.0,0.0,0.0,0.0,0.0,0.0,0.0,0.0,0.0,0.0,0.0,0.0,0.0,1.9283,1.9339,1.9383,1.9125,1.8912,1.8734,1.8644,1.8939,0.0,1.9299,1.9203,1.9347,2.0846,2.1128,2.0466,2.03,2.028,2.0348,2.0764,2.0959,2.1039,2.1399,2.1552,2.1491,2.1118,2.1493,2.2049,0.0,0.0,0.0,0.0,0.0,0.0,0.0,0.0,0.0,0.0,0.0,0.0,0.0,0.0,0.0,0.0,0.0,0.0,0.0,0.0,0.0,0.0,0.0,0.0,0.0,0.0,0.0,0.0,0.0,0.0,0.0,0.0,0.0,0.0,0.0,0.0,0.0,0.0,0.0,0.0,0.0,0.0,0.0,0.0,0.1448,0.0,0.0,0.0,0.0,0.0,0.0,0.0,0.0,0.0448,0.1396,0.3735,0.4183,0.3997,0.3965,0.3268,0.2574,0.2835,0.5453,0.8222,0.9368,1.1464,1.3628,1.5123,1.4968,1.455,1.4476,1.4273,1.3905,1.3234,1.2647,1.2023,0.0,0.0,0.0,0.0,0.0,0.0,0.0,0.0,0.0,0.0,0.0,0.0,1.9495,1.9527,1.9448,1.9239,1.9081,1.8771,1.8251,1.8475,1.8443,0.0,1.808,1.8221,1.8585,2.0067,2.0584,2.0315,1.9974,2.0,2.0314,2.0416,2.0665,2.1007,2.1103,2.1118,2.1118,2.1023,2.1134,2.1197,0.0,0.0,0.0,0.0,0.0,0.0,0.0,0.0,0.0,0.0,0.0,0.0,0.0,0.0,0.0,0.0,0.0,0.0,0.0,0.0,0.0,0.0,0.0,0.0,0.0,0.0,0.0,0.0,0.0,0.0,0.0,0.0,0.0,0.0,0.0,0.0,0.0,0.0,0.0,0.0,0.0,0.0,0.0168,0.1625,0.3147,0.0,0.0,0.0,0.0,0.0,0.0,0.0,0.0,0.0,0.0446,0.2754,0.326,0.3257,0.3669,0.3351,0.3092,0.3987,0.6496,0.881,0.9076,1.0795,1.2518,1.3211,1.3616,1.3705,1.3376,1.3316,1.3092,1.2418,1.2033,0.0,0.0,0.0,0.0,0.0,0.0,0.0,0.0,0.0,0.0,0.0,0.0,1.9256,1.9582,1.9413,1.9225,1.9004,1.8753,1.8413,1.7967,1.7967,1.7815,1.7522,1.7342,1.7606,1.8282,1.9379,2.002,2.028,1.9874,1.9818,2.0035,2.0212,2.0314,2.0413,2.0599,2.0649,2.0616,2.0447,2.0632,2.091,0.0,0.0,0.0,0.0,0.0,0.0,0.0,0.0,0.0,0.0,0.0,0.0,0.0,0.0,0.0,0.0,0.0,0.0,0.0,0.0,0.0,0.0,0.0,0.0,0.0,0.0,0.0,0.0,0.0,0.0,0.0,0.0,0.0,0.0,0.0,0.0,0.0,0.0,0.0,0.0,0.0,0.0,0.0336,0.3373,0.0,0.0,0.0,0.0,0.0,0.0,0.0,0.0,0.0,0.0,0.0222,0.1453,0.1818,0.21,0.3294,0.3582,0.395,0.5358,0.7245,0.8853,0.9102,1.0555,1.1836,1.1785,1.2663,1.3286,1.2741,1.2636,1.2456,1.1895,1.1557,0.0,0.0,0.0,0.0,0.0,0.0,0.0,0.0,0.0,0.0,0.0,0.0,1.923,1.9527,1.9212,1.8946,1.8734,1.838,1.804,1.7726,1.7455,1.7272,1.7199,1.6979,1.7317,1.8146,1.882,1.9495,2.0193,1.9839,1.969,1.9726,2.0054,2.0,1.9711,2.007,2.0246,2.0246,1.9839,2.0208,2.0764,0.0,0.0,0.0,0.0,0.0,0.0,0.0,0.0,0.0,0.0,0.0,0.0,0.0,0.0,0.0,0.0,0.0,0.0,0.0,0.0,0.0,0.0,0.0,0.0,0.0,0.0,0.0,0.0,0.0,0.0,0.0,0.0,0.0,0.0056,0.0,0.0,0.0,0.0,0.0,0.0,0.0,0.0,0.0336,0.0,0.0,0.0,0.0,0.0,0.0,0.0,0.4219,0.0,0.0,0.0,0.0056,0.0215,0.0312,0.0753,0.301,0.3589,0.3817,0.4648,0.6361,0.7953,0.8226,1.0294,1.2061,1.1776,1.1911,1.2044,1.1939,1.1925,1.1895,1.1805,1.1747,0.0,0.0,0.0,0.0,0.0,0.0,0.0,0.0,0.0,0.0,0.0,1.9323,1.9452,1.9261,1.9201,1.8939,1.8465,1.8281,1.7936,1.7368,1.732,1.715,1.6866,1.7113,1.7423,1.7794,1.847,1.9131,1.9782,1.9711,1.969,1.9711,1.9747,1.9747,1.9726,1.9747,2.0,2.0246,1.9839,2.0,2.0314,0.0,0.0,0.0,0.0,0.0,0.0,0.0,0.0,0.0,0.0,0.0,0.0,0.0,0.0,0.0,0.0,0.0,0.0,0.0,0.0,0.0,0.0,0.0,0.0,0.0,0.0,0.0,0.0,0.0,0.0,0.0,0.3074,0.3815,0.0,0.0,0.0,0.0,0.0,0.0,0.0,0.0,0.0,0.0,0.0,0.0,0.0,0.0,0.0,0.0,0.0,0.3761,0.3999,0.0953,0.0,0.0,0.0,0.0,0.0242,0.1315,0.242,0.3407,0.3798,0.5499,0.7187,0.7549,0.9763,1.1686,1.1593,1.2035,1.2368,1.226,1.2256,1.2195,1.2045,1.2024,0.0,0.0,0.0,0.0,0.0,0.0,0.0,0.0,0.0,0.0,0.0,1.932,1.9335,1.9097,1.8946,1.8681,1.8303,1.8069,1.7755,1.7304,1.7101,1.6747,1.6246,1.6386,1.691,1.7697,1.8029,1.8717,1.969,1.969,1.969,1.969,1.969,1.969,1.969,1.969,1.9945,2.028,2.0089,2.0158,2.028,0.0,0.0,0.0,0.0,0.0,0.0,0.0,0.0,0.0,0.0,0.0,0.0,0.0,0.0,0.0,0.0,0.0,0.0,0.0,0.0,0.0,0.0,0.0,0.0,0.0,0.0,0.0,0.0,0.0,0.0,0.0053,0.2307,0.3787,0.0,0.3302,0.3416,0.0,0.0,0.0,0.0,0.0,0.0,0.0,0.0,0.0,0.0,0.0,0.0,0.0,0.0,0.0,0.2974,0.0728,0.0,0.0,0.0,0.0,0.0046,0.039,0.1578,0.2926,0.3501,0.5017,0.6642,0.7648,0.9613,1.1294,0.0,1.2456,1.3022,1.2877,1.2764,1.2594,1.2352,1.2231,0.0,0.0,0.0,0.0,0.0,0.0,0.0,0.0,0.0,0.0,0.0,1.9212,1.9134,1.8914,1.8642,1.8371,1.8121,1.7905,1.7557,1.704,1.6643,1.6196,1.5799,1.5978,1.6623,1.7697,1.7861,1.8597,1.969,1.969,1.969,1.969,1.969,1.969,1.969,1.969,2.0,2.0449,2.0227,2.028,2.0449,0.0,0.0,0.0,0.0,0.0,0.0,0.0,0.0,0.0,0.0,0.0,0.0,0.0,0.0,0.0,0.0,0.0,0.0,0.0,0.0,0.0,0.0,0.0,0.0,0.0,0.0,0.0,0.0,0.0,0.0,0.0,0.0165,0.1788,0.4511,0.4432,0.4435,0.4455,0.0,0.0,0.0,0.0,0.0,0.0,0.0,0.0,0.0,0.0,0.0,0.0,0.0,0.0,0.0,0.0,0.0,0.0,0.0,0.0,0.0,0.1382,0.1779,0.2308,0.4148,0.5173,0.6395,0.8911,1.0247,1.1188,1.2155,1.3007,1.3553,1.3553,1.3177,1.2824,1.2614,1.2372,0.0,0.0,0.0,0.0,0.0,0.0,0.0,0.0,0.0,0.0,0.0,1.9036,1.8914,1.8623,1.8371,1.81,1.7833,1.7811,1.7345,1.6365,1.571,1.5507,1.5814,1.6368,1.7025,1.7712,1.8373,1.9031,1.969,1.969,1.969,1.969,1.969,1.969,1.969,1.969,2.0208,2.0862,2.005,2.0243,2.0829,0.0,0.0,0.0,0.0,0.0,0.0,0.0,0.0,0.0,0.0,0.0,0.0,0.0,0.0,0.0,0.0,0.0,0.0,0.0,0.0,0.0,0.0,0.0,0.0,0.0,0.0,0.0,0.0,0.0,-0.3959,-0.2863,-0.0925,0.0603,0.1677,0.3635,0.4487,0.4501,0.4135,0.0,0.0,0.0,0.0,0.0,0.0,0.0,0.0,0.0,0.0,0.0,0.0,0.0,0.0,0.0,0.0,0.0,0.0,0.1103,0.2415,0.2827,0.322,0.365,0.4338,0.5482,0.6807,0.841,0.9939,1.1344,1.2482,1.3194,1.3584,1.3584,1.3378,1.3071,1.2668,1.2514,1.2336,0.0,0.0,0.0,0.0,0.0,0.0,0.0,0.0,0.0,0.0,0.0,1.8339,1.8586,1.7899,1.746,1.736,1.7628,1.7409,1.6629,1.5956,1.5672,1.5814,1.6398,1.7055,1.7712,1.8403,1.9061,1.969,1.969,1.969,1.969,1.969,1.969,1.9726,2.0,2.0465,2.0959,2.0648,2.0731,2.0894,0.0,0.0,0.0,0.0,0.0,0.0,0.0,0.0,0.0,0.0,0.0,0.0,0.0,0.0,0.0,0.0,0.0,0.0,0.0,0.0,0.0,0.0,0.0,0.0,0.0,0.0,0.0,0.0,0.0,0.0,0.0,-0.1424,0.0,0.0112,0.212,0.3527,0.0,0.0,0.0,0.4442,0.0,0.0,0.5899,0.0,0.0,0.0,0.0,0.0,0.0,0.0,0.0,0.0,0.0,0.0,0.0,0.0,0.1727,0.3592,0.3619,0.4041,0.4619,0.5158,0.5976,0.714,0.8858,1.0083,1.1241,1.2609,1.321,1.3523,1.3601,1.3477,1.3278,1.2926,1.2724,1.2475,0.0,0.0,0.0,0.0,0.0,0.0,0.0,0.0,0.0,0.0,0.0,0.0,1.7716,1.7075,1.6786,1.6949,1.6833,1.6771,1.6815,1.5921,1.5589,1.5814,1.6652,1.7279,1.7712,1.8627,1.9271,1.969,1.969,1.969,1.969,1.969,1.969,1.9747,2.0158,2.0583,2.0991,2.0829,2.0862,2.0894,0.0,0.0,0.0,0.0,0.0,0.0,0.0,0.0,0.0,0.0,0.0,0.0,0.0,0.0,0.0,0.0,0.0,0.0,0.0,0.0,0.0,0.0,0.0,0.0,0.0,0.0,0.0,0.0,0.0,0.0,0.0,0.0,0.0,0.0,0.0,0.1621,0.4343,0.0,0.4452,0.4438,0.0,0.3878,0.4177,0.0,0.0,0.0,0.5478,0.5135,0.0,0.7193,0.0,0.0,0.0,0.0,0.0,0.0,0.0,0.3609,0.0,0.0,0.0,0.6577,0.6765,0.7333,1.0367,1.0729,1.0871,1.2543,1.3071,1.3328,1.3537,1.346,1.3379,1.3379,1.2944,1.261,0.0,0.0,0.0,0.0,0.0,0.0,0.0,0.0,0.0,0.0,1.615,1.6184,1.601,1.5938,1.6152,1.6682,1.5425,1.5407,1.6799,1.5518,1.5169,1.5844,1.7116,1.7697,1.7757,1.9091,1.969,1.969,1.969,1.969,1.969,1.969,1.969,1.9747,2.0158,2.0583,2.0926,2.0483,2.0583,2.0781,0.0,0.0,0.0,0.0,0.0,0.0,0.0,0.0,0.0,0.0,0.0,0.0,0.0,0.0,0.0,0.0,0.0,0.0,0.0,0.0,0.0,0.0,0.0,0.0,0.0,0.0,0.0,0.0,0.0,0.0,0.0,0.0,0.0,0.0,0.0,0.0448,0.1289,0.2404,0.0,0.4432,0.3562,0.3824,0.0,0.0,0.0,0.0,0.0,0.451,0.4772,0.0,0.6298,0.6733,0.0,0.0,0.0,0.0,0.0,0.0,0.3762,0.0,0.0,0.0,0.0,0.0,0.0,0.0,1.0931,1.2102,1.2306,1.2473,1.3057,1.2857,1.2722,1.3055,1.2979,1.2741,0.0,0.0,0.0,0.0,0.0,0.0,0.0,0.0,0.0,0.0,1.5454,1.5504,1.5975,1.5974,1.6209,1.6682,1.6094,1.6236,1.7134,1.6297,1.6225,1.6872,1.7437,1.7936,1.8463,1.9301,1.969,1.969,1.969,1.969,1.969,1.969,1.969,1.9747,2.0158,2.0382,2.0483,2.0348,2.0382,2.0348,0.0,0.0,0.0,0.0,0.0,0.0,0.0,0.0,0.0,0.0,0.0,0.0,0.0,0.0,0.0,0.0,0.0,0.0,0.0,0.0,0.0,0.0,0.0,0.0,0.0,0.0,0.0,0.0,0.0,0.0,0.0,0.0,0.0,0.0,0.0,0.0,0.0,0.0,0.0,0.0,0.36,0.0,0.0,0.4228,0.413,0.0,0.0,0.0,0.459,0.4922,0.617,0.0,0.0,0.0,0.0,0.0,0.0,0.0,0.424,0.4604,0.5356,0.0,0.0,0.0,0.9561,1.0293,1.0926,0.0,1.2088,1.2202,1.2207,1.2256,1.2433,1.2893,1.2887,1.2759,0.0,0.0,0.0,0.0,0.0,0.0,0.0,1.4178,1.4401,1.4649,1.4486,1.4689,1.5454,1.5435,1.5769,1.6665,1.6359,1.6548,1.728,1.6644,1.6642,1.7295,1.7559,1.8041,1.8732,1.939,1.969,1.969,1.969,1.969,1.969,1.969,1.969,1.9747,2.0158,2.0314,2.0314,2.0314,2.0162,1.9869,0.0,0.0,0.0,0.0,0.0,0.0,0.0,0.0,0.0,0.0,0.0,0.0,0.0,0.0,0.0,0.0,0.0,0.0,0.0,0.0,0.0,0.0,0.0,0.0,0.0,0.0,0.0,0.0,0.0,0.0,0.0,0.0,0.0,0.0,0.0,0.0,0.0,0.0,0.0,0.4446,0.3847,0.3939,0.0,0.0,0.4118,0.3867,0.3866,0.3948,0.4163,0.51,0.6518,0.0,0.0,0.0,0.0,0.0,0.5614,0.0,0.0,0.0,0.0,0.0,0.0,0.0,0.9848,1.0377,1.0835,0.0,1.2056,1.2114,1.1217,1.1649,1.2282,1.2649,1.2665,1.2668,1.2924,0.0,0.0,0.0,0.0,0.0,1.3346,1.3363,1.3363,1.3363,1.3477,1.3883,1.4676,1.4619,1.5218,1.6648,1.6442,1.663,1.728,1.667,1.6701,1.7387,1.7589,1.8104,1.8837,1.942,1.969,1.969,1.969,1.969,1.969,1.969,1.969,1.9762,2.0089,2.0212,2.0212,2.0177,1.9869,1.939,0.0,0.0,0.0,0.0,0.0,0.0,0.0,0.0,0.0,0.0,0.0,0.0,0.0,0.0,0.0,0.0,0.0,0.0,0.0,0.0,0.0,0.0,0.0,0.0,0.0,0.0,0.0,0.0,0.0,0.0,0.0,0.0,0.0,0.0,0.0,0.0,0.0,0.0,0.0,0.4241,0.4033,0.0,0.3799,0.3876,0.3806,0.3708,0.4155,0.4288,0.4506,0.5691,0.6187,0.6359,0.0,0.0,0.0,0.5641,0.0,0.0,0.0,0.0,0.0,0.0,0.0,0.0,0.9685,1.0404,1.0883,0.0,1.1001,1.0957,1.0807,1.1042,1.1307,1.1508,1.2137,1.261,1.2668,0.0,0.0,0.0,0.0,0.0,1.3067,1.3085,1.3085,1.3085,1.3104,1.3439,1.4191,1.4712,1.5504,1.6644,1.6947,1.7148,1.7296,1.6901,1.7141,1.8022,1.7785,1.8343,1.9495,1.963,1.969,1.969,1.969,1.969,1.969,1.969,1.969,1.9726,1.9782,1.9818,1.9767,1.9339,1.9103,1.8878,0.0,0.0,0.0,0.0,0.0,0.0,0.0,0.0,0.0,0.0,0.0,0.0,0.0,0.0,0.0,0.0,0.0,0.0,0.0,0.0,0.0,0.0,0.0,0.0,0.0,0.0,0.0,0.0,0.0,0.0,0.0,0.0,0.0,0.0,0.0,0.0,0.0,0.0,0.2893,0.4197,0.3274,0.0,0.3749,0.3614,0.3796,0.4152,0.4351,0.4795,0.5475,0.6476,0.6686,0.0,0.6576,0.7015,0.719,0.0,0.6043,0.6945,0.0,0.0,0.0,0.8285,0.0,0.0,0.0,1.0262,1.0656,1.1487,1.0911,1.0247,1.0277,1.0602,1.0845,1.0908,1.1413,1.1843,1.1951,1.2325,0.0,0.0,0.0,0.0,1.2797,1.2797,1.2797,1.2797,1.2797,1.3124,1.386,1.4681,1.557,1.6474,1.7188,1.7479,1.7296,1.6952,1.7286,1.8207,1.7846,1.8403,1.969,1.969,1.969,1.9711,1.9909,1.9874,1.9726,1.9909,1.9874,1.969,1.969,1.953,1.9281,1.9006,1.8574,1.8027,0.0,0.0,0.0,0.0,0.0,0.0,0.0,0.0,0.0,0.0,0.0,0.0448,0.1568,0.3896,0.5095,0.4535,0.0,0.0,0.0,0.0,0.0,0.0,0.0,0.1563,0.0,0.0,0.0,0.0,0.0,0.0,0.0,0.0,0.0,0.0,0.0,0.0,0.0,0.0,0.0,0.4548,0.0,0.3277,0.4483,0.3942,0.4242,0.49,0.4799,0.5452,0.6514,0.7208,0.7311,0.7145,0.7111,0.7438,0.0,0.0,0.0,0.0,0.0,0.0,0.0,0.0,0.0,1.0937,0.0,0.0,0.0,0.0,0.0,0.0,0.0,0.0,0.0,0.0,0.0,0.0,0.0,1.1725,0.0,0.0,0.0,0.0,0.0,1.2345,1.2364,1.2423,1.2439,1.2787,1.3685,1.4551,1.5447,1.6458,1.7163,1.7408,1.7199,1.6876,1.7176,1.8099,1.7829,1.8403,1.969,1.969,1.969,1.9711,2.0019,2.0019,1.9839,2.0089,2.0035,1.9818,1.9639,1.9281,1.8855,1.865,1.8027,1.7312,0.0,0.0,0.0,0.0,0.0,0.0,0.0,0.0,0.0,0.0,0.0,0.2015,0.7218,0.8086,0.7274,0.471,0.521,0.0,0.7954,0.0,0.0,0.0,0.0,0.2093,0.2464,0.0,0.0,0.0,0.0,0.0,0.0,0.0,0.0,0.0,0.392,0.0,0.0,0.0,0.6093,0.0,0.4956,0.5499,0.0,0.5748,0.548,0.5636,0.5973,0.6381,0.6892,0.0,0.7565,0.7035,0.0,0.7908,0.7811,0.7018,0.0,0.0,0.0,0.0,0.0,0.0,1.0953,0.0,0.0,0.0,1.2101,1.1109,0.0,0.0,0.0,0.0,0.0,0.0,0.0,0.0,0.994,1.0578,1.1182,0.0,0.0,0.0,0.0,1.1454,1.1564,1.1785,1.1806,1.2372,1.3715,1.4115,1.5201,1.7131,1.6725,1.6607,1.6866,1.6528,1.684,1.7747,1.7715,1.8403,1.969,1.969,1.969,1.969,1.9747,1.9929,2.0227,1.9909,1.9929,2.0143,1.9325,1.8968,1.8779,1.7827,1.7394,1.7229,0.0,0.0,0.0,0.0,0.0,0.0,0.0,0.0,0.0,0.0,0.0,0.224,0.8165,0.806,0.6858,0.5263,0.5688,0.6266,0.0,0.0,0.0,0.0,0.3589,0.3608,0.4311,0.0,0.0,0.0,0.0837,0.0,0.0,0.0,0.0,0.0,0.4087,0.0,0.5962,0.0,0.6389,0.0,0.0,0.0,0.0,0.6086,0.5701,0.6103,0.6647,0.7143,0.7618,0.0,0.8072,0.0,0.0,0.0,0.0,0.8587,0.0,0.0,0.0,0.0,0.0,0.0,0.0,0.0,1.2571,0.0,1.2065,0.0,0.0,0.0,0.0,0.0,0.0,0.0,0.9702,0.0,0.0,0.0,1.0434,0.0,0.0,0.0,0.0,0.0,0.0,0.0,1.0772,1.14,1.2592,1.367,1.4837,1.6109,1.6625,1.6939,1.7098,1.6946,1.7334,1.8283,1.8283,1.8777,1.969,1.969,1.969,1.9711,1.9945,2.0,1.9965,2.0035,2.0,1.9859,1.8826,1.8458,1.8341,1.7585,1.7118,1.6795,0.0056,0.0,0.0,0.0,0.0,0.0,0.0,0.0,0.0,0.0,0.0,0.2516,0.7483,0.7025,0.6246,0.5924,0.6186,0.6228,0.0,0.0,0.6735,0.6263,0.5062,0.4944,0.0,0.0,0.0,0.0,0.0,0.0,0.0,0.0,0.0,0.0,0.0,0.4809,0.5764,0.0,0.6129,0.786,0.7164,0.7348,0.7888,0.6594,0.6397,0.6786,0.734,0.7732,0.8094,0.8375,0.8535,0.0,0.9064,0.0,0.0,0.0,0.0,0.0,1.2258,0.0,0.0,0.0,0.0,0.0,0.0,0.0,0.0,0.0,0.0,0.0,0.0,0.0,0.0,0.0,0.0,0.943,0.0,0.0,0.0,0.0,0.0,0.0,0.0,0.0,0.0,0.9805,1.0136,1.0832,1.1893,1.3285,1.4521,1.5526,1.6425,1.703,1.7308,1.7207,1.7669,1.8702,1.8702,1.9046,1.969,1.969,1.969,1.9726,2.0,2.0035,1.9874,2.0054,2.0035,1.9767,1.8559,1.8106,1.8027,1.7353,1.6837,1.6522,0.0279,0.0,0.0,0.0,0.0,0.0,0.0,0.0,0.0,0.0,0.0,0.3118,0.569,0.5968,0.6123,0.6529,0.0,0.6907,0.7222,0.0,0.6228,0.702,0.6029,0.5726,0.0,0.0,0.0,0.0,0.0,0.0,0.0,0.0,0.0,0.0,0.4314,0.4606,0.5306,0.5031,0.5572,0.6629,0.6475,0.6685,0.7137,0.0,0.8054,0.7878,0.8181,0.0,0.0,0.889,0.8919,0.0,0.0,0.0,0.0,0.0,0.0,0.0,0.0,0.0,0.0,1.3905,0.0,0.0,0.0,0.0,1.3572,0.0,0.0,0.0,0.0,0.0,0.0,0.0,0.0,0.0,0.0,0.0,0.0,0.0,0.0,0.0,0.0,0.0,0.0,0.9792,1.0227,1.1015,1.2208,1.302,1.4314,1.6212,1.5996,1.6331,1.7279,1.691,1.7401,1.8702,1.8702,1.9046,1.969,1.969,1.969,1.969,1.9711,1.9929,2.0246,1.9874,1.9929,2.0128,1.8646,1.8106,1.7987,1.6909,1.6522,1.6522,0.3079,0.2179,0.1789,0.2807,0.2127,0.0,0.0,0.2348,0.0,0.0,0.544,0.0,0.0,0.7247,0.6993,0.0,0.0,0.7242,0.7431,0.7047,0.7232,0.8184,0.6929,0.6548,0.0,0.0,0.0,0.0,0.0,0.0,0.0,0.0,0.0,0.0,0.0,0.4554,0.0,0.0,0.0,0.0,0.0,0.8046,0.8594,0.0,0.0,0.8408,0.7865,0.8562,0.0,0.9632,1.0075,1.0815,1.1754,1.2155,1.2481,1.3549,1.4087,0.0,0.0,0.0,1.5867,1.5843,0.0,0.0,0.0,0.0,0.0,0.0,0.0,0.0,0.0,0.0,0.0,0.0,0.0,0.0,0.0,0.0,0.0,0.0,0.0,0.0,0.0,0.0,0.0,0.9446,0.975,1.0473,1.1821,1.3195,1.4616,1.6112,1.6562,1.7258,1.821,1.8095,1.8478,1.9346,1.9346,1.9465,1.969,1.969,1.969,1.969,1.969,1.9782,1.9909,1.9747,1.9782,1.9788,1.8559,1.8106,1.7987,1.6909,1.6522,1.638,0.4529,0.3683,0.3352,0.4333,0.3702,0.0,0.0,0.0,0.0,0.0,0.6489,0.0,0.7907,0.0,0.7256,0.0,0.7394,0.7443,0.7797,0.7494,0.0,0.8439,0.7431,0.7123,0.0,0.0,0.0,0.0,0.0,0.6211,0.0,0.0,0.0,0.0,0.0,0.5234,0.562,0.6436,0.6906,0.0,0.0,0.9252,0.0,0.0,0.9059,0.9413,0.0,0.9443,1.0891,1.1149,1.1474,1.1972,1.3075,1.3699,1.4199,1.5343,1.5933,1.6311,1.6834,1.7224,0.0,1.6821,1.6895,0.0,1.5758,0.0,0.0,0.0,0.0,0.0,0.0,0.0,0.0,0.0,0.0,0.0,0.0,1.1425,0.0,0.0,0.0,0.0,0.0,0.0,0.8958,0.8738,0.9541,1.061,0.0,0.0,1.4578,1.571,1.6623,1.7486,1.8343,1.8583,1.9031,1.969,1.969,1.969,1.969,1.969,1.969,1.969,1.969,1.969,1.969,1.969,1.969,1.9603,1.8535,1.8106,1.7987,1.6909,1.638,1.6008,0.4652,0.4501,0.4525,0.0,0.4494,0.0,0.0,0.0,0.5854,0.0,0.6327,0.6588,0.6696,0.6696,0.6966,0.767,0.75,0.7619,0.8346,0.767,0.0,0.0,0.7511,0.7523,0.7936,0.0,0.0,0.0,0.0,0.0,0.0,0.0,0.0,0.0,0.6588,0.0,0.6473,0.7709,0.8004,0.7734,0.9551,1.0213,1.0153,1.0318,1.0631,1.0909,1.035,1.0508,1.1302,1.3173,1.2987,1.2314,1.4206,1.4807,1.5049,1.6386,1.7002,1.7296,1.7296,1.7549,1.7618,1.6896,0.0,0.0,0.0,0.0,1.6638,0.0,0.0,0.0,0.0,0.0,0.0,0.0,0.0,0.0,0.0,0.0,0.0,0.0,0.0,0.0,0.9889,0.923,0.8512,0.7951,0.9788,1.1378,0.0,0.0,1.4246,1.5098,1.6167,1.7052,1.7706,1.8365,1.9026,1.9639,1.969,1.969,1.969,1.969,1.969,1.969,1.969,1.969,1.969,1.969,1.969,1.9566,1.8496,1.8052,1.7854,1.6824,1.6051,1.541,0.4508,0.4515,0.4519,0.0,0.4525,0.4688,0.0,0.0,0.0,0.0,0.6367,0.6411,0.8049,0.7723,0.7723,0.848,0.7929,0.0,0.0,0.0,0.0,0.746,0.7357,0.7666,0.8482,0.8399,0.8834,0.9688,0.0,0.0,0.841,0.0,0.0,0.0,0.0,0.6558,0.66,0.7252,0.8388,0.9798,1.0829,1.1644,0.0,0.0,1.3162,1.299,0.9217,0.879,1.0433,1.2941,1.3589,1.3487,1.4498,1.4806,1.5007,1.6111,1.6659,1.6977,1.7224,1.7549,1.7704,1.7256,1.7273,1.7385,0.0,0.0,0.0,0.0,0.0,0.0,0.0,0.0,0.0,0.0,0.0,0.0,0.0,0.0,0.0,1.1471,0.0,1.0087,1.0448,0.8972,0.8742,1.054,1.1858,1.2574,1.2513,0.0,0.0,1.5513,1.6492,1.7323,1.7979,1.8561,1.8935,1.9132,1.953,1.969,1.969,1.969,1.969,1.969,1.969,1.969,1.969,1.969,1.9479,1.9043,1.838,1.7341,1.6219,1.594,1.5454,1.4835,0.5003,0.468,0.4519,0.4519,0.0,0.0,0.5433,0.5441,0.0,0.7503,0.6956,0.0,0.8639,0.8427,0.8209,0.8315,0.8209,0.0,0.7723,0.0,0.0,0.82,0.8237,0.8477,0.8942,0.8947,0.0,1.0475,0.0,0.0,0.9614,0.0,0.0,0.0,0.0,0.7563,0.7641,0.849,0.9928,1.1602,1.2291,0.0,0.0,1.4137,1.462,1.464,1.1862,1.1302,1.2197,1.4035,1.4573,1.4567,1.5236,1.5557,1.5779,1.6365,1.6659,1.6841,1.7027,1.7216,1.7313,1.7126,1.7329,1.7594,1.7759,1.7828,1.7864,0.0,0.0,0.0,0.0,0.0,0.0,0.0,0.0,0.0,0.0,0.0,0.0,0.0,1.1089,0.0,1.1113,0.9927,1.0049,1.2183,1.2663,1.2833,0.0,0.0,0.0,1.5237,1.6679,1.7637,1.8012,1.8838,1.9244,1.9244,1.9566,1.969,1.969,1.969,1.969,1.969,1.969,1.969,1.969,1.969,1.9369,1.8817,1.7746,1.6634,1.5543,1.4994,1.4595,1.4236,0.5651,0.5058,0.4625,0.0,0.0,0.0,0.0,0.6253,0.0,0.7877,0.0,0.8037,0.8949,0.8949,0.8685,0.8037,0.0,0.8474,0.7723,0.8764,0.9351,0.9244,0.9279,0.9298,0.9392,0.9603,1.0103,0.0,1.0347,1.0319,1.0762,0.0,0.0,0.0,0.0,0.0,0.0,1.0568,1.1881,1.3163,1.3749,1.4247,1.4699,1.4923,1.5359,1.5799,1.5799,1.5439,1.5007,1.5604,1.5604,1.5474,1.6061,1.6421,1.6659,1.6644,1.6696,1.6738,1.6722,1.6763,1.6789,1.6738,1.7274,1.7816,1.7773,1.7896,1.8171,1.868,1.786,1.7535,0.0,0.0,0.0,0.0,0.0,0.0,0.0,0.0,0.0,0.0,0.0,0.0,1.183,1.1419,1.1741,1.3088,1.276,1.2689,0.0,0.0,0.0,1.483,1.6761,0.0,1.7927,0.0,1.9603,1.9603,1.969,1.969,1.969,1.969,1.969,1.969,1.969,1.969,1.969,1.969,1.9332,1.865,1.6957,1.5959,1.5365,1.4226,1.3732,1.36,0.5542,0.5378,0.5164,0.0,0.0,0.7272,0.7239,0.6891,0.7278,0.9183,0.837,0.8351,1.0254,0.9923,0.9511,0.9444,0.9013,0.0,0.0,0.0,0.0,0.8466,0.8502,0.8929,0.9947,0.9781,1.0283,1.1465,1.0064,0.9891,1.0762,0.0,0.0,0.0,0.0,0.0,1.1165,1.2007,0.0,1.4253,1.4703,1.5301,1.595,1.574,1.5712,1.5799,1.5799,1.5724,1.5649,1.5769,1.5752,1.5719,1.5839,1.5926,1.5968,1.5849,1.6087,1.6394,1.6331,1.656,1.6738,1.6448,1.6909,1.7448,1.7668,1.815,1.8505,1.8377,1.8343,1.8392,1.8545,0.0,0.0,0.0,0.0,0.0,0.0,0.0,0.0,0.0,0.0,1.3273,0.0,1.2249,1.2464,1.3148,1.311,1.3064,0.0,0.0,0.0,0.0,1.6704,0.0,0.0,0.0,1.9043,1.9043,1.9479,1.969,1.969,1.969,1.969,1.969,1.969,1.969,1.969,1.969,1.9132,1.8052,1.6378,1.5365,1.4789,1.405,1.3457,1.3065,0.6013,0.5751,0.5538,0.0,0.0,0.0,0.0,0.8763,0.9148,1.0159,0.9393,0.9224,1.0653,1.0493,1.012,0.9769,0.9769,0.9363,0.8277,0.8881,0.938,0.9595,0.993,1.0337,1.0865,1.0615,1.0849,1.1606,1.0974,1.0928,1.1316,0.0,0.0,1.0305,0.0,1.178,0.0,0.0,0.0,1.5298,1.5422,1.5876,1.6424,1.5728,1.5788,1.6204,1.564,1.558,1.5799,1.5799,1.6168,1.6484,1.6038,1.6054,1.6114,1.5614,1.5549,1.5681,1.5651,1.595,1.6339,1.6466,1.6756,1.7197,1.8032,1.8208,1.8137,1.797,1.8052,1.84,1.9106,1.9796,0.0,0.0,0.0,0.0,0.0,0.0,1.3232,0.0,0.0,0.0,0.0,0.0,0.0,0.0,0.0,1.3035,0.0,0.0,0.0,0.0,0.0,0.0,0.0,0.0,0.0,1.8893,1.9442,1.969,1.969,1.969,1.969,1.969,1.969,1.969,1.9639,1.9095,1.8419,1.7544,1.5784,1.4971,1.4617,1.3647,1.3152,1.2881,0.6709,0.6592,0.0,0.0,0.8239,0.0,0.9834,1.0527,1.1015,1.1015,1.0519,1.0418,1.1174,1.1225,1.0956,1.0199,1.0687,1.0493,0.9252,1.0687,1.1366,1.0813,1.1466,1.173,1.1522,1.1463,1.1601,1.191,1.2028,1.2063,0.0,0.0,0.0,0.0,0.0,0.0,0.0,0.0,1.5227,1.6457,1.611,1.6353,1.6769,1.585,1.5949,1.6486,1.5742,1.5723,1.6055,1.6159,1.6637,1.7075,1.639,1.6404,1.6503,1.5747,1.5492,1.5506,1.5538,1.5859,1.6308,1.6786,1.7025,1.7399,1.8463,1.8403,1.8071,1.7921,1.799,1.8433,1.964,2.0558,0.0,0.0,0.0,0.0,0.0,0.0,0.0,0.0,0.0,0.0,1.3054,0.0,0.0,0.0,0.0,1.2955,1.3605,1.397,0.0,0.0,0.0,1.6815,1.7626,0.0,1.8893,0.0,1.9442,1.969,1.969,1.969,1.969,1.969,1.969,1.969,1.9603,1.8535,1.7867,1.7299,1.5443,1.4698,1.4571,1.3344,1.2881,1.2881,0.0,0.0,0.0,0.0,0.0,0.0,1.0697,1.1282,1.1715,1.1715,1.1657,1.1873,1.2618,1.2715,1.2403,1.1657,1.1665,1.1416,1.0653,1.0813,1.0864,1.0813,1.1466,1.1616,1.1239,1.1808,1.2417,0.0,1.2383,1.2297,1.2667,0.0,0.0,0.0,0.0,0.0,0.0,1.5833,1.6641,1.7898,1.6999,1.6934,1.7359,1.6901,1.6487,1.6214,1.6576,1.6766,1.6867,1.7359,1.7176,1.677,1.6814,1.6852,1.677,1.6355,1.6466,1.6766,1.6867,1.7228,1.755,1.7578,1.8041,1.8553,1.8672,1.9121,1.9331,1.8732,1.8933,1.9276,1.9435,2.0589,2.1383,0.0,0.0,0.0,0.0,0.0,1.612,1.5086,0.0,0.0,0.0,1.3339,0.0,0.0,1.3508,1.3023,1.2489,1.391,1.5169,1.6136,0.0,1.7164,1.8727,1.8855,0.0,1.8893,1.9442,1.969,1.969,1.969,1.969,1.969,1.969,1.969,1.9603,1.8535,1.8066,1.78,1.5552,1.4698,1.4571,1.3344,1.2881,1.2881,0.0,0.0,0.0,0.0,0.0,0.0,0.0,1.2021,1.2295,1.1864,1.2187,1.2559,1.2881,1.2881,1.2608,1.1864,1.2187,1.1841,1.0312,1.1384,1.1692,1.0864,1.1882,1.2436,1.2341,1.2898,1.3313,0.0,0.0,1.4536,1.4323,1.4762,0.0,0.0,0.0,1.7079,1.8187,1.7369,1.76,1.8422,1.7612,1.7489,1.7635,1.6859,1.6603,1.6683,1.6577,1.6697,1.703,1.7996,1.81,1.7789,1.7199,1.732,1.7462,1.6651,1.6867,1.7331,1.7142,1.7587,1.8158,1.8275,1.8508,1.8807,1.9211,1.9495,1.9495,1.8837,1.8838,1.9247,2.0193,2.083,2.1275,0.0,0.0,0.0,0.0,0.0,0.0,1.5951,0.0,1.4684,0.0,0.0,0.0,0.0,0.0,1.2171,1.274,1.3439,1.4444,1.5794,0.0,1.704,1.8419,1.8727,1.8893,1.8893,1.9442,1.969,1.969,1.969,1.969,1.969,1.969,1.953,1.9169,1.8419,1.7907,1.7409,1.5475,1.4698,1.4571,1.3344,1.2881,1.2881,1.0663,0.0,1.0503,0.0,1.149,1.1814,1.1814,1.2452,1.2715,1.2187,1.2559,1.2881,1.2881,1.2881,1.2608,1.1864,1.2295,1.194,1.0466,1.1742,1.2147,1.1166,1.2271,0.0,1.2534,1.3334,1.3793,1.3915,1.5529,1.6055,1.5585,0.0,0.0,0.0,1.7622,1.8266,1.9331,1.8403,1.8388,1.8927,1.8085,1.7928,1.8063,1.6987,1.6948,1.7325,1.6987,1.7126,1.764,1.8649,1.8986,1.8832,1.7922,1.8055,1.8382,1.7632,1.7884,1.8379,1.8108,1.847,1.898,1.897,1.8986,1.9106,1.957,1.969,1.9555,1.9091,1.8986,1.9349,2.0571,2.0894,2.1118,2.1521,0.0,0.0,0.0,0.0,0.0,1.6467,1.5304,1.4705,1.5195,1.4388,0.0,0.0,0.0,0.0,1.2799,1.3488,0.0,0.0,0.0,0.0,0.0,1.8496,1.8574,1.8458,1.9132,1.9442,1.9479,1.9639,1.969,1.969,1.969,1.9479,1.908,1.838,1.7773,1.7107,1.5386,1.4606,1.4294,1.3296,1.2881,1.2881,1.0973,1.1323,1.1765,1.1814,1.1814,1.1814,1.1814,1.2452,1.2881,1.2881,1.2881,1.2881,1.2881,1.2881,1.2608,1.1864,1.1814,1.1814,1.1765,1.1814,1.1814,0.0,0.0,1.2443,1.1237,1.2861,1.3783,1.3915,0.0,0.0,1.6205,0.0,1.713,1.706,1.8323,1.8819,1.8717,1.8702,1.9076,1.9579,1.8382,1.828,1.8765,1.7693,1.7612,1.8092,1.8078,1.843,1.8954,1.95,1.9675,1.9588,1.9043,1.9185,1.957,1.957,1.9843,2.019,2.0234,2.0249,2.0196,1.9803,1.9675,1.9675,1.969,1.969,1.969,1.9675,1.9675,1.9803,2.0212,2.0682,2.1118,2.1521,0.0,0.0,0.0,0.0,0.0,1.6804,1.6311,1.6097,1.6439,1.5978,0.0,0.0,0.0,0.0,0.0,0.0,0.0,1.6296,1.6892,0.0,1.8092,1.8106,1.7827,1.7353,1.8419,1.8893,1.893,1.9442,1.969,1.969,1.969,1.969,1.9603,1.8535,1.7746,1.7042,1.533,1.4329,1.3732,1.3104,1.2881,1.2881,1.2206,1.2393,1.2559,1.2559,1.2559,1.254,1.2492,1.3092,1.3351,1.2899,1.3579,1.3978,1.3552,1.3505,1.3054,0.0,1.2648,1.2589,0.0,1.2395,1.2986,1.2483,1.3491,1.4021,1.4061,1.4505,1.513,1.5955,0.0,0.0,0.0,1.8801,1.8861,1.8856,1.9266,1.9411,1.9375,1.9375,1.9495,1.9675,1.9292,1.8832,1.838,1.838,1.8027,1.7666,1.838,1.8765,1.8968,1.953,1.969,1.9711,1.9829,1.9954,2.0024,1.9677,2.0353,2.1038,2.0467,2.0516,2.0599,1.9889,1.969,1.969,1.969,1.969,1.969,1.969,1.9909,2.0261,2.0682,2.1102,2.1568,2.2003,2.1552,0.0,0.0,0.0,0.0,1.6789,1.5687,1.5301,0.0,1.6051,0.0,0.0,0.0,0.0,0.0,0.0,0.0,0.0,1.7288,0.0,1.865,1.8302,1.8027,1.7867,1.8574,1.9095,1.9442,1.9603,1.969,1.969,1.969,1.969,1.9603,1.8535,1.7746,1.7042,1.533,1.4329,1.3732,1.3104,1.2881,1.2832,1.2822,1.2666,1.255,1.2842,1.2832,1.2919,1.31,1.369,1.3993,1.3595,1.4226,1.4571,1.419,1.4318,0.0,1.2619,1.3301,1.3253,1.1975,1.2902,1.3474,1.3432,1.3956,1.4401,1.4759,0.0,0.0,1.6335,1.758,1.872,1.969,1.969,1.969,1.969,1.969,1.969,1.969,1.969,1.9566,1.9369,1.9169,1.8688,1.8106,1.8263,1.8145,1.7987,1.865,1.9043,1.9281,1.9752,1.9945,2.0,2.0416,2.0682,2.0732,2.0436,2.0927,2.146,2.0748,2.0649,2.0565,1.9889,1.969,1.969,1.969,1.969,1.9747,1.9909,2.0124,2.0483,2.1118,2.143,2.1748,2.2209,2.1781,2.1144,2.0461,0.0,0.0,0.0,0.0,0.0,0.0,1.7175,0.0,0.0,0.0,0.0,0.0,0.0,0.0,1.6333,1.7477,0.0,1.8302,1.7987,1.7706,1.7504,1.8263,1.9006,1.969,1.969,1.969,1.969,1.969,1.9603,1.9332,1.8458,1.7477,1.6456,1.5207,1.4201,1.342,1.3065,1.2881,1.2822,1.2978,1.2384,0.0,0.0,1.2908,0.0,1.3752,1.4343,1.4744,1.4744,1.4789,1.4789,1.4744,1.5276,1.5207,1.3975,0.0,0.0,0.0,1.3387,1.3565,1.4533,1.4269,1.4023,1.3934,1.5419,1.6017,1.5627,1.7753,1.9091,1.969,1.969,1.969,1.969,1.969,1.969,1.969,1.969,1.9406,1.8855,1.838,1.8106,1.7987,1.7585,1.8027,1.8855,1.893,1.9281,1.9747,2.0124,2.028,2.0382,2.0862,2.1275,2.1582,2.1552,2.1582,2.1491,2.1055,2.0616,2.0212,1.9818,1.969,1.969,1.969,1.969,1.9818,2.0193,2.0314,2.0601,2.143,2.1628,2.1794,2.218,2.1554,2.0975,2.0863,0.0,0.0,0.0,0.0,0.0,0.0,1.8948,1.9361,0.0,0.0,0.0,0.0,0.0,1.6378,1.6378,1.7477,1.7787,1.7312,1.7271,1.7034,1.6637,1.7666,1.8688,1.969,1.969,1.969,1.969,1.9639,1.9369,1.8855,1.8302,1.7055,1.546,1.4903,1.3978,1.2881,1.2881,1.2881,1.2881,0.0,0.0,1.3511,1.4122,1.4261,1.4446,1.5073,1.5264,1.5365,1.5365,1.5788,1.592,1.5454,1.592,1.6194,1.5852,1.5443,1.4937,1.4492,1.5157,1.5459,1.5212,1.6302,1.6661,1.6139,1.6909,1.7519,1.7924,1.8976,1.9525,1.969,1.969,1.969,1.969,1.969,1.969,1.969,1.969,1.9406,1.8893,1.8765,1.8224,1.7544,1.8263,1.8419,1.8419,1.9207,1.9603,1.9711,1.9818,2.007,2.0382,2.0862,2.1275,2.1521,2.1244,2.1368,2.1413,2.0682,2.0382,2.0212,1.9818,1.969,1.969,1.969,1.969,1.9726,1.9818,2.0364,2.0894,2.1086,2.1675,2.2032,2.1794,2.1337,2.0558,1.9339,1.844,0.0,0.0,1.7254,1.7305,1.7707,1.847,1.8867,0.0,0.0,0.0,0.0,1.7008,1.6429,1.6378,1.712,1.7422,1.7312,1.6879,1.7034,1.7747,1.838,1.9043,1.969,1.969,1.969,1.969,1.9281,1.9006,1.8817,1.7867,1.6705,1.546,1.4903,1.3978,1.2881,1.2881,1.2881,1.2725,1.4097,1.419,1.4422,1.5017,1.5096,1.532,1.5908,1.6008,1.6008,1.6008,1.6293,1.638,1.6051,1.6281,1.6595,1.6837,1.6355,1.5855,1.5459,1.579,1.6022,1.6068,1.6704,1.7146,1.7257,1.7833,1.8493,1.9151,1.951,1.969,1.969,1.969,1.969,1.969,1.969,1.969,1.969,1.9442,1.9006,1.8496,1.8263,1.7666,1.7034,1.8145,1.8341,1.8263,1.9332,1.969,1.9726,1.9909,2.0124,2.0382,2.0862,2.115,2.1244,2.0813,2.0975,2.1181,2.0483,2.0158,1.9965,1.9747,1.969,1.969,1.969,1.969,1.9747,1.9945,2.0364,2.0764,2.0959,2.1554,2.1899,2.1658,2.1038,2.0329,1.944,1.8607,0.0,1.7842,1.787,1.8098,1.8578,1.8942,1.9151,1.9151,0.0,0.0,1.8106,1.7076,1.6497,1.6429,1.6782,1.6909,1.6909,1.6637,1.7034,1.8106,1.8419,1.893,1.969,1.969,1.969,1.969,1.9132,1.8765,1.8458,1.7626,1.6421,1.5106,1.4824,1.3978,1.2871,1.251,1.2393,1.2246,1.4698,1.4835,1.5017,1.5632,1.5732,1.5908,1.6423,1.6522,1.6522,1.6522,1.6522,1.6522,1.6522,1.6552,1.6795,1.7271,1.6873,1.6545,1.6441,1.6068,1.6177,1.687,1.6622,1.6913,1.7832,1.8523,1.9121,1.969,1.969,1.969,1.969,1.969,1.969,1.969,1.969,1.9639,1.9566,1.9095,1.8535,1.7947,1.7463,1.7034,1.671,1.7706,1.8145,1.8341,1.9332,1.969,1.9747,2.0089,2.0246,2.0382,2.0764,2.0926,2.0894,2.0333,2.0483,2.0715,2.0314,1.9965,1.969,1.969,1.969,1.969,1.969,1.969,1.9818,2.0158,2.0246,2.0416,2.0829,2.1244,2.1491,2.143,2.0685,2.007,2.0001,0.0,1.838,1.8855,1.8968,1.9207,1.9639,1.969,1.969,1.9603,1.865,1.8066,0.0,1.7034,1.6522,1.6522,1.6522,1.6522,1.6522,1.6595,1.7105,1.8106,1.8185,1.8727,1.969,1.969,1.969,1.969,1.9043,1.8535,1.8066,1.734,1.6145,1.4709,1.4606,1.3884,1.2822,1.208,1.1814,1.1665,1.532,1.5454,1.5644,1.6238,1.638,1.638,1.6479,1.6522,1.6522,1.6522,1.6522,1.6522,1.6522,1.6909,1.7188,1.7312,1.7129,1.7,1.6981,1.7334,1.7356,1.6933,1.7797,1.8365,1.8553,1.9196,1.9585,1.969,1.969,1.969,1.969,1.969,1.969,1.969,1.969,1.9442,1.9006,1.893,1.8341,1.7435,1.7353,1.7229,1.7229,1.7867,1.838,1.8855,1.9479,1.969,1.9726,1.9782,2.0035,2.0314,2.0382,2.0682,2.0829,1.9974,1.9763,1.9798,1.9803,1.9747,1.969,1.969,1.969,1.969,1.969,1.969,1.9711,1.9782,2.0054,2.0314,2.0382,2.0781,2.0959,2.0583,2.0043,1.957,1.9163,0.0,1.8817,1.8893,1.9281,1.9603,1.969,1.969,1.953,1.9043,1.8458,1.7907,1.7463,1.6837,1.6522,1.6522,1.6522,1.6522,1.6522,1.6951,1.7504,1.8106,1.8574,1.9095,1.969,1.969,1.969,1.9639,1.865,1.8185,1.7973,1.6464,1.541,1.4652,1.4143,1.3505,1.2822,1.208,1.1814,1.1616,1.5964,1.6095,1.6194,1.6466,1.6522,1.6522,1.6522,1.6522,1.6522,1.6522,1.6522,1.6522,1.6522,1.6993,1.7262,1.7182,1.7398,1.7511,1.7432,1.7087,1.6997,1.7338,1.7867,1.8508,1.9211,1.9525,1.969,1.969,1.969,1.969,1.969,1.969,1.969,1.969,1.9406,1.9281,1.9281,1.8419,1.7907,1.7706,1.7435,1.7312,1.7394,1.8224,1.8688,1.8968,1.953,1.969,1.969,1.969,1.9818,1.9965,1.9965,1.9934,1.9763,1.9346,1.8999,1.8849,1.9192,1.9281,1.9332,1.9639,1.969,1.969,1.969,1.969,1.969,1.969,1.9839,1.9965,1.9965,2.033,2.055,2.0348,1.9904,0.0,0.0,1.9066,1.8893,1.8893,1.9369,1.969,1.969,1.9442,1.9169,1.893,1.8145,1.7544,1.7312,1.6795,1.6522,1.6522,1.6522,1.6522,1.6522,1.6752,1.7146,1.7666,1.8224,1.8727,1.9281,1.9566,1.969,1.9639,1.8574,1.792,1.7531,1.6176,1.5039,1.419,1.3909,1.342,1.2774,1.1674,1.1266,1.1065,1.6423,1.6522,1.6522,1.6522,1.6522,1.6522,1.6522,1.6522,1.6522,1.6522,1.6522,1.6522,1.6522,1.6993,1.7249,1.7149,1.7613,1.7861,1.7737,1.6892,1.6851,1.7891,1.8071,1.8657,1.966,1.969,1.969,1.969,1.969,1.969,1.969,1.9566,1.953,1.9479,1.8968,1.8855,1.908,1.7947,1.7585,1.7706,1.7435,1.7394,1.7585,1.8419,1.8855,1.9132,1.9566,1.969,1.969,1.969,1.969,1.969,1.9566,1.9244,1.8855,1.8612,1.8145,1.7867,1.8535,1.8817,1.9043,1.9566,1.969,1.969,1.969,1.969,1.969,1.969,1.969,1.969,1.969,1.9929,2.0158,2.0158,0.0,0.0,0.0,1.9214,1.8968,1.908,1.9442,1.969,1.969,1.9207,1.8855,1.8727,1.7827,1.7229,1.7105,1.671,1.6522,1.6522,1.6522,1.6522,1.6522,1.6522,1.6837,1.7504,1.7907,1.8458,1.9095,1.953,1.9639,1.9442,1.8496,1.7666,1.6931,1.5816,1.4767,1.3779,1.3637,1.3334,1.2725,1.1334,1.0813,1.0618,1.6479,1.6522,1.6522,1.6522,1.6522,1.6522,1.6522,1.6522,1.6522,1.6522,1.6522,1.6522,1.6522,1.6993,1.7299,1.7287,1.7678,1.7892,1.7885,1.7699,1.7873,1.8612,1.9211,1.9585,1.969,1.969,1.969,1.969,1.969,1.969,1.969,1.9207,1.8968,1.893,1.8419,1.7907,1.7504,1.7867,1.7504,1.668,1.7105,1.7585,1.8066,1.8145,1.8779,1.9639,1.969,1.969,1.969,1.969,1.969,1.9603,1.9132,1.893,1.8688,1.7706,1.7034,1.6837,1.7867,1.8535,1.9043,1.9566,1.969,1.969,1.969,1.969,1.969,1.969,1.969,1.969,1.969,1.9711,1.9747,1.9747,0.0,0.0,1.9639,1.9244,1.908,1.9566,1.969,1.969,1.969,1.9207,1.8688,1.8224,1.7626,1.7076,1.6595,1.6522,1.6522,1.6522,1.6522,1.6522,1.6522,1.6522,1.7034,1.8027,1.8066,1.865,1.9639,1.969,1.9442,1.893,1.8341,1.7477,1.6378,1.5219,1.4376,1.3721,1.32,1.2929,1.2725,1.1334,1.0813,1.0618,1.6522,1.6522,1.6522,1.6522,1.6522,1.6522,1.6522,1.6522,1.6522,1.6522,1.6522,1.6522,1.6522,1.6993,1.7289,1.7193,1.7632,1.8028,1.8361,1.8361,1.8448,1.8687,1.9331,1.969,1.969,1.969,1.969,1.969,1.969,1.953,1.9207,1.9006,1.8727,1.838,1.7827,1.7666,1.7787,1.7312,1.7076,1.6993,1.7229,1.7435,1.7626,1.7987,1.8341,1.8727,1.908,1.9207,1.9244,1.9603,1.9479,1.9169,1.8968,1.8458,1.7827,1.7435,1.7146,1.7229,1.8302,1.8496,1.8612,1.9479,1.969,1.969,1.969,1.969,1.9603,1.9281,1.9479,1.9603,1.9281,1.9479,1.969,1.969,0.0,1.9479,1.969,1.953,1.9479,1.969,1.969,1.9566,1.9244,1.8727,1.8185,1.7626,1.7118,1.671,1.6522,1.6522,1.6522,1.6522,1.6522,1.6522,1.6522,1.6522,1.671,1.7105,1.7787,1.8302,1.8727,1.9406,1.9406,1.8855,1.8341,1.7233,1.5792,1.5039,1.4107,1.3238,1.2968,1.2881,1.2725,1.1334,1.0813,1.0618,1.6522,1.6522,1.6522,1.6522,1.6522,1.6522,1.6522,1.6522,1.6522,1.6522,1.6522,1.6522,1.6522,1.6837,1.7072,1.7178,1.7636,1.8208,1.8741,1.8932,1.9016,1.9016,1.9435,1.969,1.969,1.969,1.969,1.969,1.953,1.9244,1.8893,1.8574,1.8224,1.7827,1.7312,1.7229,1.7544,1.6993,1.6879,1.7076,1.7229,1.7312,1.7353,1.7706,1.7947,1.8198,1.8931,1.9065,1.8997,1.9567,1.9382,1.8855,1.8496,1.7907,1.7312,1.7312,1.7435,1.7747,1.865,1.8612,1.8574,1.9479,1.9566,1.9479,1.9639,1.969,1.9603,1.9244,1.9442,1.9603,1.9207,1.9442,1.969,1.969,1.969,1.969,1.969,1.969,1.969,1.969,1.969,1.9566,1.9207,1.8496,1.7947,1.7585,1.6909,1.6522,1.6522,1.6522,1.6522,1.6522,1.6522,1.6522,1.6522,1.6522,1.6595,1.6752,1.7666,1.8185,1.838,1.9281,1.9332,1.8612,1.8263,1.7027,1.5217,1.4869,1.3862,1.2559,1.2559,1.2412,1.2107,1.0922,1.0466,1.0312,1.6522,1.6522,1.6522,1.6522,1.6522,1.6522,1.6522,1.6522,1.6522,1.6522,1.6522,1.6522,1.6522,1.6522,1.671,1.7271,1.7787,1.8341,1.8855,1.9406,1.969,1.969,1.969,1.969,1.969,1.969,1.969,1.969,1.9169,1.8893,1.8855,1.7787,1.7312,1.7271,1.6752,1.6522,1.6522,1.7076,1.6993,1.6552,1.7076,1.7312,1.7312,1.7312,1.7626,1.8268,1.9444,1.9454,1.8993,1.9656,1.944,1.8688,1.7626,1.7312,1.7312,1.7312,1.7706,1.8224,1.8765,1.8893,1.9043,1.9566,1.9281,1.9043,1.9566,1.969,1.969,1.969,1.969,1.969,1.969,1.969,1.969,1.969,1.969,1.969,1.969,1.969,1.969,1.969,1.969,1.969,1.969,1.8727,1.8106,1.8106,1.7118,1.6522,1.6522,1.6522,1.6522,1.6466,1.6522,1.6522,1.6466,1.6522,1.6752,1.7312,1.7827,1.838,1.8893,1.9442,1.9132,1.8106,1.8106,1.6789,1.4698,1.4698,1.3548,1.1814,1.1814,1.1416,1.0712,1.0064,0.9814,0.9718,1.6522,1.6522,1.6522,1.6522,1.6522,1.6522,1.6522,1.6522,1.6522,1.6522,1.6522,1.6637,1.7034,1.7076,1.7422,1.8341,1.8574,1.8893,1.9442,1.9603,1.969,1.969,1.969,1.969,1.969,1.969,1.953,1.9132,1.8968,1.8496,1.7787,1.7463,1.7118,1.671,1.6552,1.6522,1.6522,1.668,1.6637,1.6522,1.668,1.6752,1.6752,1.6752,1.7093,1.7726,1.8443,1.8601,1.8507,1.9003,1.8819,1.8302,1.7947,1.7867,1.7947,1.8302,1.8535,1.8779,1.9332,1.9207,1.9043,1.9566,1.9566,1.9479,1.9639,1.9406,1.9043,1.865,1.8574,1.8574,1.8574,1.8893,1.9244,1.9639,1.969,1.969,1.969,1.969,1.969,1.969,1.969,1.9406,1.865,1.8302,1.7787,1.7034,1.668,1.6522,1.6522,1.6522,1.6293,1.5864,1.6281,1.6293,1.5864,1.6281,1.6595,1.6752,1.7271,1.7827,1.8341,1.8496,1.8419,1.8066,1.7706,1.6464,1.4698,1.4698,1.3548,1.1814,1.1814,1.1416,1.0712,1.0064,0.9814,0.9718,1.6522,1.6522,1.6522,1.6522,1.6522,1.6522,1.6522,1.668,1.6837,1.6837,1.6993,1.7271,1.7585,1.7626,1.7947,1.8817,1.9095,1.9369,1.969,1.969,1.969,1.969,1.969,1.969,1.969,1.969,1.9442,1.8893,1.8688,1.8145,1.7312,1.7076,1.6795,1.6522,1.6522,1.6522,1.6522,1.6522,1.6522,1.6522,1.6522,1.6522,1.6547,1.6773,1.7074,1.7491,1.8296,1.8394,1.8296,1.8809,1.8603,1.8106,1.8106,1.8263,1.8496,1.8817,1.9043,1.9281,1.9603,1.9442,1.9281,1.9603,1.953,1.9369,1.9369,1.9132,1.8798,1.849,1.8425,1.8493,1.8741,1.9033,1.9306,1.9662,1.9693,1.969,1.969,1.969,1.9603,1.9406,1.9369,1.9043,1.8185,1.7907,1.7422,1.6552,1.6522,1.6522,1.6522,1.6522,1.6324,1.5952,1.6095,1.6095,1.5952,1.6095,1.6238,1.6522,1.7271,1.7666,1.7787,1.8224,1.8085,1.7434,1.7117,1.5911,1.4127,1.4328,1.3027,1.0998,1.1294,1.0781,0.9837,0.9518,0.9413,0.9361,1.6522,1.6522,1.6522,1.6522,1.6522,1.6522,1.6552,1.6993,1.7312,1.7394,1.7787,1.8145,1.8185,1.8185,1.838,1.893,1.9406,1.969,1.969,1.969,1.969,1.969,1.9639,1.9639,1.9639,1.9639,1.9332,1.8765,1.8263,1.7747,1.7229,1.671,1.6522,1.6522,1.6552,1.6552,1.6522,1.6552,1.6552,1.6479,1.6572,1.6597,1.666,1.7237,1.7451,1.7604,1.8643,1.8684,1.8283,1.8865,1.8683,1.8185,1.8224,1.8574,1.8968,1.8968,1.9332,1.969,1.969,1.969,1.969,1.969,1.9332,1.8968,1.8893,1.8855,1.8835,1.8838,1.8795,1.8944,1.9615,1.9684,1.9629,1.9709,1.9706,1.969,1.969,1.9639,1.9442,1.8968,1.8855,1.8612,1.8066,1.7544,1.7034,1.6552,1.6522,1.6522,1.6522,1.6522,1.6479,1.6423,1.5908,1.5864,1.6423,1.5864,1.5908,1.6522,1.7504,1.772,1.7274,1.8179,1.7807,1.6453,1.6375,1.5147,1.3211,1.3669,1.2202,0.976,1.045,0.9791,0.841,0.8697,0.8804,0.8804,1.6522,1.6522,1.6522,1.6522,1.6522,1.6637,1.7076,1.7229,1.7463,1.7867,1.8027,1.8263,1.8688,1.8727,1.893,1.9479,1.9639,1.969,1.969,1.969,1.969,1.969,1.9281,1.908,1.908,1.908,1.8612,1.7666,1.7544,1.7188,1.668,1.6552,1.6522,1.6522,1.6951,1.6879,1.6522,1.6951,1.6879,1.6559,1.7011,1.7187,1.7262,1.7815,1.8028,1.8041,1.8329,1.8319,1.8272,1.8798,1.8841,1.8817,1.9207,1.9442,1.953,1.953,1.9603,1.969,1.969,1.969,1.969,1.969,1.9603,1.9406,1.9006,1.8574,1.8285,1.8334,1.8004,1.8009,1.8975,1.9133,1.921,1.9629,1.9706,1.969,1.969,1.9332,1.9043,1.8893,1.8535,1.8066,1.7544,1.6993,1.6637,1.6522,1.6522,1.6522,1.6522,1.6522,1.6281,1.582,1.5676,1.5676,1.5776,1.5676,1.5908,1.6522,1.6752,1.6801,1.6679,1.648,1.6205,1.5843,1.5415,1.4469,1.3189,1.3301,1.191,0.9735,1.0179,0.9536,0.841,0.8697,0.8804,0.8804,1.6522,1.6522,1.6595,1.6837,1.6879,1.7076,1.7585,1.7907,1.8034,1.8026,1.8517,1.8852,1.8819,1.9104,1.9406,1.969,1.969,1.969,1.969,1.969,1.969,1.969,1.9207,1.8779,1.8535,1.8263,1.7867,1.7312,1.7312,1.7034,1.6522,1.6522,1.6522,1.6522,1.6795,1.6752,1.6522,1.6795,1.6752,1.6547,1.6848,1.7137,1.7413,1.7702,1.7978,1.8179,1.7903,1.795,1.8221,1.8725,1.908,1.9332,1.9603,1.969,1.969,1.969,1.969,1.969,1.969,1.969,1.9639,1.9369,1.9332,1.9242,1.8942,1.8695,1.8507,1.8552,1.8342,1.8431,1.9204,1.962,1.9766,1.9715,1.9985,1.999,1.9413,1.908,1.8688,1.8224,1.7907,1.7504,1.6951,1.668,1.6522,1.6522,1.6522,1.6522,1.6522,1.6522,1.638,1.6051,1.5764,1.5732,1.6008,1.572,1.5908,1.6522,1.6752,1.6612,1.6111,1.6072,1.5647,1.4933,1.4663,1.3899,1.2858,1.2822,1.1686,0.9982,1.0271,0.9849,0.9045,0.937,0.9387,0.9256,1.6637,1.6552,1.668,1.7188,1.7312,1.7504,1.8145,1.8612,1.8743,1.826,1.9081,1.948,1.8927,1.9361,1.969,1.969,1.969,1.969,1.969,1.969,1.9639,1.9566,1.9043,1.8496,1.7987,1.7544,1.7271,1.7146,1.7146,1.6951,1.6522,1.6522,1.6522,1.6522,1.6595,1.6595,1.6522,1.6595,1.6595,1.6522,1.6622,1.7011,1.7526,1.7526,1.7802,1.8129,1.7713,1.7827,1.8341,1.8855,1.9332,1.969,1.969,1.969,1.969,1.969,1.969,1.969,1.969,1.9639,1.9442,1.9006,1.8817,1.8782,1.8783,1.8767,1.8779,1.8849,1.897,1.9193,1.9843,2.0415,2.0615,1.9971,2.0352,2.0264,1.9069,1.8817,1.8419,1.7435,1.7229,1.6993,1.6552,1.6522,1.6522,1.6522,1.6522,1.6522,1.6522,1.6522,1.6522,1.6522,1.5908,1.5908,1.6466,1.5908,1.5908,1.6522,1.6951,1.6602,1.5595,1.5996,1.5388,1.3946,1.3946,1.3384,1.2496,1.2351,1.145,1.0215,1.0392,1.0107,0.9653,1.0033,1.0121,0.9961,1.7118,1.6837,1.668,1.7188,1.7312,1.7626,1.865,1.8855,1.9014,1.9411,1.9594,1.966,1.9555,1.963,1.969,1.969,1.969,1.969,1.969,1.969,1.9479,1.9043,1.8496,1.7947,1.7435,1.7353,1.7076,1.6595,1.6595,1.6552,1.6522,1.6522,1.6522,1.6522,1.6993,1.6909,1.6522,1.6993,1.6909,1.6559,1.7061,1.7601,1.8091,1.8091,1.8141,1.8176,1.8137,1.8399,1.8855,1.9406,1.9639,1.969,1.969,1.969,1.969,1.969,1.969,1.969,1.969,1.9369,1.9006,1.893,1.8535,1.8232,1.8278,1.8296,1.8319,1.832,1.8694,1.9357,2.045,2.0732,2.0754,2.0584,2.0646,2.0264,1.9069,1.8496,1.7987,1.7394,1.6879,1.6595,1.6522,1.6522,1.6522,1.6522,1.6522,1.6522,1.6522,1.6522,1.6522,1.6522,1.5908,1.5908,1.6466,1.5908,1.5908,1.6522,1.6552,1.6052,1.5016,1.5094,1.4449,1.3311,1.3311,1.3017,1.2473,1.2062,1.1212,1.0186,1.0031,0.9667,0.9273,0.9943,1.0417,1.0661,1.7312,1.7118,1.7034,1.7271,1.7544,1.8027,1.8779,1.9169,1.9309,1.9146,1.945,1.9555,1.9181,1.9465,1.9566,1.9281,1.9244,1.9244,1.9244,1.9244,1.9169,1.8893,1.838,1.7987,1.7747,1.7463,1.7353,1.7394,1.7076,1.6951,1.6951,1.6637,1.6522,1.6522,1.6752,1.671,1.6522,1.6752,1.671,1.6547,1.6798,1.7237,1.7714,1.7388,1.7631,1.8228,1.8494,1.8736,1.8968,1.953,1.969,1.969,1.969,1.969,1.969,1.969,1.969,1.9639,1.9332,1.908,1.8765,1.8185,1.7827,1.7664,1.7743,1.7655,1.7787,1.8495,1.8771,1.9107,2.0074,2.0538,2.0648,2.0196,2.0182,1.9812,1.862,1.7987,1.7463,1.6909,1.6637,1.6522,1.6522,1.6522,1.6522,1.6522,1.6522,1.6522,1.6522,1.6522,1.6522,1.6522,1.6238,1.6238,1.6522,1.6238,1.6238,1.6522,1.6795,1.6248,1.4916,1.4916,1.4274,1.3198,1.3198,1.3082,1.2838,1.2389,1.1763,1.1057,1.0685,1.0492,1.0576,1.1395,1.1541,1.1366]}]]